[[{"header":{"parameterUnit":"m.s-1","parameterCategory":1,"la1":30.6,"la2":29.2853,"lo1":-89.7004,"lo2":-87.6739,"dy":0.0162,"dx":0.0183,"nx":112,"ny":82,"refTime":"2023-06-17T00:00:00:Z","depth":0,"parameterNumber":2,"parameterNumberName":"U-component_of_WINDS"},"data":[0.0,0.0,0.0,0.0,0.0,0.0,0.0,0.0,0.0,0.0,0.0,0.0,0.0,0.0,0.0,0.0,0.0,0.0,0.0,0.0,0.0,0.0,0.0,0.0,0.0,0.0,0.0,0.0,0.0,0.0,0.0,0.0,0.0,0.0,0.0,0.0,0.0,0.0,0.0,0.0,0.0,0.0,0.0,0.0,0.0,0.0,0.0,0.0,0.0,0.0,0.0,0.0,0.0,0.0,0.0,0.0,0.0,0.0,0.0,0.0,0.0,0.0,0.0,0.0,0.0,0.0,0.0,0.0,0.0,0.0,0.0,0.0,0.0,0.0,0.0,0.0,0.0,0.0,0.0,0.0,0.0,0.0,0.0,0.0,0.0,0.0,0.0,0.0,0.0,0.0,-2.2745,-2.2805,-2.2257,-2.2189,-2.3195,-2.2482,-2.3151,-2.5777,0.0,0.0,0.0,0.0,0.0,0.0,0.0,0.0,0.0,0.0,0.0,0.0,0.0,0.0,0.0,0.0,0.0,0.0,0.0,0.0,0.0,0.0,0.0,0.0,0.0,0.0,0.0,0.0,0.0,0.0,0.0,0.0,0.0,0.0,0.0,0.0,0.0,0.0,0.0,0.0,0.0,0.0,0.0,0.0,0.0,0.0,0.0,0.0,0.0,0.0,0.0,0.0,0.0,0.0,0.0,0.0,0.0,0.0,0.0,0.0,0.0,0.0,0.0,0.0,0.0,0.0,0.0,0.0,0.0,0.0,0.0,0.0,0.0,0.0,0.0,0.0,0.0,0.0,0.0,0.0,0.0,0.0,0.0,0.0,0.0,0.0,0.0,0.0,0.0,0.0,0.0,0.0,0.0,0.0,0.0,0.0,0.0,0.0,0.0,0.0,0.0,0.0,0.0,0.0,-2.4026,-2.4372,-2.5432,-2.626,-2.6555,-2.5385,-2.5507,-2.7533,0.0,0.0,0.0,0.0,0.0,0.0,0.0,0.0,0.0,0.0,0.0,0.0,0.0,0.0,0.0,0.0,0.0,0.0,0.0,0.0,0.0,0.0,0.0,0.0,0.0,0.0,0.0,0.0,0.0,0.0,0.0,0.0,0.0,0.0,0.0,0.0,0.0,0.0,0.0,0.0,0.0,0.0,0.0,0.0,0.0,0.0,0.0,0.0,0.0,0.0,0.0,0.0,0.0,0.0,0.0,0.0,0.0,0.0,0.0,0.0,0.0,0.0,0.0,0.0,0.0,0.0,0.0,0.0,0.0,0.0,0.0,0.0,0.0,0.0,0.0,0.0,0.0,0.0,0.0,0.0,0.0,0.0,0.0,0.0,0.0,0.0,0.0,0.0,0.0,0.0,0.0,0.0,0.0,0.0,0.0,0.0,0.0,0.0,0.0,0.0,0.0,0.0,0.0,-2.4003,-2.3994,-2.4085,-2.4253,-2.4673,-2.5618,-2.4774,-2.5312,-2.7687,-2.75,0.0,0.0,0.0,0.0,0.0,0.0,0.0,0.0,0.0,0.0,0.0,0.0,0.0,0.0,0.0,0.0,0.0,0.0,0.0,0.0,0.0,0.0,0.0,0.0,0.0,0.0,0.0,0.0,0.0,0.0,0.0,0.0,0.0,0.0,0.0,0.0,0.0,0.0,0.0,0.0,0.0,0.0,0.0,0.0,0.0,0.0,0.0,0.0,0.0,0.0,0.0,0.0,0.0,0.0,0.0,0.0,0.0,0.0,0.0,0.0,0.0,0.0,0.0,0.0,0.0,0.0,0.0,0.0,0.0,0.0,0.0,0.0,0.0,0.0,0.0,0.0,0.0,0.0,0.0,0.0,0.0,0.0,0.0,0.0,0.0,0.0,0.0,0.0,0.0,0.0,0.0,0.0,0.0,0.0,0.0,0.0,0.0,0.0,0.0,0.0,0.0,0.0,-2.373,-2.3759,-2.3768,-2.3319,-2.3476,-2.4447,-2.3971,-2.4876,-2.74,-2.7815,0.0,0.0,0.0,0.0,0.0,0.0,0.0,0.0,0.0,0.0,0.0,0.0,0.0,0.0,0.0,0.0,0.0,0.0,0.0,0.0,0.0,0.0,0.0,0.0,0.0,0.0,0.0,0.0,0.0,0.0,0.0,0.0,0.0,0.0,0.0,0.0,0.0,0.0,0.0,0.0,0.0,0.0,0.0,0.0,0.0,0.0,0.0,0.0,0.0,0.0,0.0,0.0,0.0,0.0,0.0,0.0,0.0,0.0,0.0,0.0,0.0,0.0,0.0,0.0,0.0,0.0,0.0,0.0,0.0,0.0,0.0,0.0,0.0,0.0,0.0,0.0,0.0,0.0,0.0,0.0,0.0,0.0,0.0,0.0,0.0,0.0,0.0,0.0,0.0,0.0,0.0,0.0,0.0,0.0,0.0,0.0,0.0,0.0,0.0,0.0,0.0,0.0,-2.4553,-2.4153,-2.4153,-2.5324,-2.5755,-2.4803,-2.4727,-2.548,-2.7173,-2.7308,0.0,0.0,0.0,0.0,0.0,0.0,0.0,0.0,0.0,0.0,0.0,0.0,0.0,0.0,0.0,0.0,0.0,0.0,0.0,0.0,0.0,0.0,0.0,0.0,0.0,0.0,0.0,0.0,0.0,0.0,0.0,0.0,0.0,0.0,0.0,0.0,0.0,0.0,0.0,0.0,0.0,0.0,0.0,0.0,0.0,0.0,0.0,0.0,0.0,0.0,0.0,0.0,0.0,0.0,0.0,0.0,0.0,0.0,0.0,0.0,0.0,0.0,0.0,0.0,0.0,0.0,0.0,0.0,0.0,0.0,0.0,0.0,0.0,0.0,0.0,0.0,0.0,0.0,0.0,0.0,0.0,0.0,0.0,0.0,0.0,0.0,0.0,0.0,0.0,0.0,0.0,0.0,0.0,0.0,0.0,0.0,0.0,0.0,0.0,0.0,0.0,0.0,-2.475,-2.4344,0.0,-2.4019,-2.4326,-2.4239,-2.4239,-2.5313,-2.7669,0.0,0.0,0.0,0.0,0.0,0.0,0.0,0.0,0.0,0.0,0.0,0.0,0.0,0.0,0.0,0.0,0.0,0.0,0.0,0.0,0.0,0.0,0.0,0.0,0.0,0.0,0.0,0.0,0.0,0.0,0.0,0.0,0.0,0.0,0.0,0.0,0.0,0.0,0.0,0.0,0.0,0.0,0.0,0.0,0.0,0.0,0.0,0.0,0.0,0.0,0.0,0.0,0.0,0.0,0.0,0.0,0.0,0.0,0.0,0.0,0.0,0.0,0.0,0.0,0.0,0.0,0.0,0.0,0.0,0.0,0.0,0.0,0.0,0.0,0.0,0.0,0.0,0.0,0.0,0.0,0.0,0.0,0.0,0.0,0.0,0.0,0.0,0.0,0.0,0.0,0.0,0.0,0.0,0.0,0.0,0.0,0.0,0.0,0.0,0.0,0.0,0.0,-2.5532,-2.4829,-2.4182,0.0,-2.3618,-2.3918,-2.4486,-2.4373,-2.5466,-2.8416,0.0,0.0,0.0,0.0,0.0,0.0,0.0,0.0,0.0,0.0,0.0,0.0,0.0,0.0,0.0,0.0,0.0,0.0,0.0,0.0,0.0,0.0,0.0,0.0,0.0,0.0,0.0,0.0,0.0,0.0,0.0,0.0,0.0,0.0,0.0,0.0,0.0,0.0,0.0,0.0,0.0,0.0,0.0,0.0,0.0,0.0,0.0,0.0,0.0,0.0,0.0,0.0,0.0,0.0,0.0,0.0,0.0,0.0,0.0,0.0,0.0,0.0,0.0,0.0,0.0,0.0,0.0,0.0,0.0,0.0,0.0,0.0,0.0,0.0,0.0,0.0,0.0,0.0,0.0,0.0,0.0,0.0,0.0,0.0,0.0,0.0,0.0,0.0,0.0,0.0,0.0,0.0,0.0,0.0,0.0,0.0,0.0,0.0,0.0,0.0,0.0,0.0,-2.6327,-2.4758,-2.3777,-2.4449,-2.4779,-2.5227,-2.5917,-2.5336,-2.6238,0.0,0.0,0.0,0.0,0.0,0.0,0.0,0.0,0.0,0.0,0.0,0.0,0.0,0.0,0.0,0.0,0.0,0.0,0.0,0.0,0.0,0.0,0.0,0.0,0.0,0.0,0.0,0.0,0.0,0.0,0.0,0.0,0.0,0.0,0.0,0.0,0.0,0.0,0.0,0.0,0.0,0.0,0.0,0.0,0.0,0.0,0.0,0.0,0.0,0.0,0.0,0.0,0.0,0.0,0.0,0.0,0.0,0.0,0.0,0.0,0.0,0.0,0.0,0.0,0.0,0.0,0.0,0.0,0.0,0.0,0.0,0.0,0.0,0.0,0.0,0.0,0.0,0.0,0.0,0.0,0.0,0.0,0.0,0.0,0.0,0.0,0.0,0.0,0.0,0.0,0.0,0.0,0.0,0.0,0.0,0.0,0.0,0.0,0.0,0.0,0.0,0.0,0.0,-2.5138,-2.4359,-2.4021,-2.4246,-2.4343,-2.4408,-2.4634,-2.4525,-2.5319,-2.771,0.0,0.0,0.0,0.0,0.0,0.0,0.0,0.0,0.0,0.0,0.0,0.0,0.0,0.0,0.0,0.0,0.0,0.0,0.0,0.0,0.0,0.0,0.0,0.0,0.0,0.0,0.0,0.0,0.0,0.0,0.0,0.0,0.0,0.0,0.0,0.0,0.0,0.0,0.0,0.0,0.0,0.0,0.0,0.0,0.0,0.0,0.0,0.0,0.0,0.0,0.0,0.0,0.0,0.0,0.0,0.0,0.0,0.0,0.0,0.0,0.0,0.0,0.0,0.0,0.0,0.0,0.0,0.0,0.0,0.0,0.0,0.0,0.0,0.0,0.0,0.0,0.0,0.0,0.0,0.0,0.0,0.0,0.0,0.0,0.0,0.0,0.0,0.0,0.0,0.0,0.0,0.0,0.0,0.0,0.0,0.0,0.0,0.0,0.0,0.0,0.0,0.0,-2.6319,-2.5535,-2.52,-2.5436,-2.5569,-2.5771,-2.6008,-2.5771,-2.6471,-2.833,0.0,0.0,0.0,0.0,0.0,0.0,0.0,0.0,0.0,0.0,0.0,0.0,0.0,0.0,0.0,0.0,0.0,0.0,0.0,0.0,0.0,0.0,0.0,0.0,0.0,0.0,0.0,0.0,0.0,0.0,0.0,0.0,0.0,0.0,0.0,0.0,0.0,0.0,0.0,0.0,0.0,0.0,0.0,0.0,0.0,0.0,0.0,0.0,0.0,0.0,0.0,0.0,0.0,0.0,0.0,0.0,0.0,0.0,0.0,0.0,0.0,0.0,0.0,0.0,0.0,0.0,0.0,0.0,0.0,0.0,0.0,0.0,0.0,0.0,0.0,0.0,0.0,0.0,0.0,0.0,0.0,0.0,0.0,0.0,0.0,0.0,0.0,0.0,0.0,0.0,0.0,0.0,0.0,0.0,0.0,0.0,0.0,0.0,0.0,0.0,0.0,0.0,-2.8653,-2.7437,-2.6652,-2.737,-2.7688,-2.814,-2.8737,-2.8259,-2.8489,-3.003,0.0,0.0,0.0,0.0,0.0,0.0,0.0,0.0,0.0,0.0,0.0,0.0,0.0,0.0,0.0,0.0,0.0,0.0,0.0,0.0,0.0,0.0,0.0,0.0,0.0,0.0,0.0,0.0,0.0,0.0,0.0,0.0,0.0,0.0,0.0,0.0,0.0,0.0,0.0,0.0,0.0,0.0,0.0,0.0,0.0,0.0,0.0,0.0,0.0,0.0,0.0,0.0,0.0,0.0,0.0,0.0,0.0,0.0,0.0,0.0,-2.5306,0.0,0.0,0.0,0.0,0.0,0.0,0.0,0.0,0.0,0.0,0.0,0.0,0.0,0.0,0.0,0.0,0.0,0.0,0.0,0.0,0.0,0.0,0.0,0.0,0.0,0.0,0.0,0.0,0.0,0.0,0.0,0.0,0.0,0.0,0.0,0.0,0.0,0.0,0.0,0.0,0.0,-2.6555,-2.6201,-2.6202,-2.6436,-2.6883,-2.7056,-2.6805,-2.7047,-2.7409,-2.765,-2.7891,0.0,0.0,0.0,0.0,0.0,0.0,0.0,0.0,0.0,0.0,0.0,0.0,0.0,0.0,0.0,0.0,0.0,0.0,0.0,0.0,0.0,0.0,0.0,0.0,0.0,0.0,0.0,0.0,0.0,0.0,0.0,0.0,0.0,0.0,0.0,0.0,0.0,0.0,0.0,0.0,0.0,0.0,0.0,0.0,0.0,0.0,0.0,0.0,0.0,0.0,0.0,0.0,0.0,0.0,0.0,0.0,0.0,0.0,0.0,0.0,-2.5415,0.0,0.0,0.0,0.0,0.0,0.0,0.0,0.0,0.0,0.0,0.0,0.0,0.0,0.0,0.0,0.0,0.0,0.0,0.0,0.0,0.0,0.0,0.0,0.0,0.0,0.0,0.0,0.0,0.0,0.0,0.0,0.0,0.0,0.0,0.0,0.0,0.0,0.0,0.0,0.0,-2.7538,-2.7142,-2.7047,-2.7047,-2.753,-2.7779,-2.753,-2.7771,-2.802,-2.802,-2.8259,0.0,0.0,0.0,0.0,0.0,0.0,0.0,0.0,0.0,0.0,0.0,0.0,0.0,0.0,0.0,0.0,0.0,0.0,0.0,0.0,0.0,0.0,0.0,0.0,0.0,0.0,0.0,0.0,0.0,0.0,0.0,0.0,0.0,0.0,0.0,0.0,0.0,0.0,0.0,0.0,0.0,0.0,0.0,0.0,0.0,0.0,0.0,0.0,0.0,0.0,0.0,0.0,0.0,-2.4729,-2.5191,-2.5487,-2.6686,-2.6418,-2.5036,-2.4949,-2.4365,-2.3707,0.0,0.0,0.0,0.0,0.0,0.0,0.0,0.0,0.0,0.0,0.0,0.0,0.0,0.0,0.0,0.0,0.0,0.0,0.0,0.0,0.0,0.0,0.0,0.0,0.0,-2.7488,-2.7282,0.0,0.0,0.0,0.0,0.0,0.0,0.0,0.0,0.0,0.0,0.0,0.0,-2.9148,-2.8471,-2.802,-2.802,-2.8618,-2.8984,-2.8865,-2.8984,-2.8984,-2.8856,-2.8984,-2.8984,0.0,0.0,0.0,0.0,0.0,0.0,0.0,0.0,0.0,0.0,0.0,0.0,0.0,0.0,0.0,0.0,0.0,0.0,0.0,0.0,0.0,0.0,0.0,0.0,0.0,0.0,0.0,0.0,0.0,0.0,0.0,0.0,-1.5947,-1.6242,0.0,0.0,0.0,0.0,0.0,0.0,0.0,0.0,0.0,0.0,0.0,0.0,0.0,0.0,-2.4814,-2.4314,-2.4541,-2.5539,-2.4981,-2.4454,-2.3821,-2.5181,-2.5176,-2.4287,-2.54,0.0,-2.388,-2.4604,0.0,0.0,0.0,0.0,0.0,0.0,0.0,0.0,0.0,0.0,0.0,0.0,0.0,0.0,0.0,0.0,0.0,0.0,0.0,0.0,0.0,0.0,-2.5635,-2.6236,-2.6357,-2.647,0.0,-2.7991,-2.8729,-2.8505,0.0,0.0,0.0,0.0,0.0,0.0,0.0,0.0,-2.8241,-2.8131,-2.802,-2.802,-2.8618,-2.8746,-2.814,-2.8627,-2.8737,-2.814,-2.8618,-2.8984,-2.8984,-2.8865,0.0,0.0,0.0,0.0,0.0,0.0,0.0,0.0,0.0,0.0,0.0,0.0,0.0,0.0,0.0,0.0,0.0,0.0,0.0,0.0,0.0,0.0,0.0,0.0,0.0,0.0,0.0,0.0,0.0,-1.6068,-1.6359,-1.6552,-1.7492,-1.8218,0.0,0.0,0.0,0.0,0.0,0.0,0.0,0.0,0.0,-2.3357,-2.3725,-2.4242,-2.4668,-2.4507,-2.4818,-2.5613,-2.5993,-2.6054,-2.5978,-2.7237,-2.6866,-2.5477,-2.5948,-2.5128,-2.3505,-2.4976,-2.6299,-2.7499,0.0,0.0,0.0,0.0,0.0,-2.9512,-2.8325,-2.7847,0.0,0.0,0.0,0.0,0.0,0.0,0.0,0.0,0.0,0.0,0.0,0.0,0.0,-2.6197,-2.6319,-2.6684,-2.6935,-2.7736,-2.8471,0.0,-2.9231,-2.9871,-3.0558,0.0,0.0,0.0,0.0,-2.8471,-2.802,-2.802,-2.802,-2.802,-2.8618,-2.8865,-2.8627,-2.8856,-2.8856,-2.8618,-2.8865,-2.8984,-2.8984,-2.8618,-2.8259,0.0,0.0,0.0,0.0,0.0,0.0,0.0,0.0,0.0,0.0,0.0,0.0,0.0,0.0,0.0,0.0,0.0,0.0,0.0,0.0,0.0,0.0,0.0,0.0,0.0,0.0,0.0,0.0,-1.694,-1.6867,-1.7061,-1.781,-1.8555,0.0,0.0,0.0,0.0,0.0,0.0,-2.2666,-2.246,-2.2527,-2.2897,-2.3478,-2.404,-2.4579,-2.5067,-2.5749,-2.6492,-2.74,-2.7837,-2.7998,-2.9154,-2.8784,-2.7051,-2.7051,-2.6131,-2.4663,-2.5383,-2.5989,-2.6602,-2.6876,-2.7469,-2.8307,-2.8059,-2.8068,-2.8206,-2.7013,-2.6545,-2.6545,-2.6545,0.0,-2.7254,-2.8554,0.0,0.0,0.0,0.0,-2.8811,-2.7142,-2.7142,-2.7383,-2.6675,-2.6926,-2.7297,-2.7418,-2.79,-2.825,0.0,-2.8801,-2.9166,-2.9667,0.0,0.0,0.0,0.0,-2.8259,-2.8259,-2.8259,-2.8259,-2.8259,-2.8737,-2.8984,-2.8984,-2.8984,-2.8984,-2.8984,-2.8984,-2.8984,-2.8984,-2.8379,-2.7779,-2.7297,0.0,0.0,0.0,0.0,0.0,0.0,0.0,0.0,0.0,0.0,0.0,0.0,0.0,0.0,0.0,0.0,0.0,0.0,0.0,0.0,0.0,0.0,0.0,0.0,0.0,0.0,0.0,0.0,0.0,-1.7666,-1.8339,0.0,0.0,0.0,0.0,-2.1257,-2.0461,-2.0399,-2.1779,-2.1148,-2.0788,-2.0803,-2.2328,-2.3787,-2.5379,-2.6529,-2.7865,-2.942,-2.942,-2.9069,-2.8306,-2.9585,-2.9689,-2.8765,-2.8765,-2.8664,-2.8316,-2.4794,-2.4062,-2.5162,-2.5521,-2.6624,-2.7855,-2.7004,-2.6762,-2.69,-2.5586,-2.5226,-2.5226,-2.5226,-2.6067,-2.7013,-2.7478,-2.8197,0.0,0.0,-2.7366,-2.7021,-2.6311,-2.6189,-2.6432,-2.765,-2.79,-2.814,-2.8746,-2.8984,-2.8618,0.0,-2.765,-2.8361,-2.9266,0.0,-2.934,-3.0147,-2.9568,-2.8984,-2.8984,-2.8984,-2.8984,-2.8984,-2.8984,-2.8984,-2.8984,-2.8984,-2.8984,-2.8984,-2.8984,-2.8984,-2.8984,-2.8379,-2.802,-2.79,-2.7297,0.0,0.0,0.0,0.0,0.0,0.0,0.0,0.0,0.0,0.0,0.0,0.0,0.0,0.0,0.0,0.0,0.0,0.0,0.0,0.0,0.0,0.0,0.0,0.0,0.0,0.0,0.0,0.0,-1.9236,-1.9493,0.0,-2.0069,-2.0001,-2.0136,-2.0887,-2.0386,-2.031,-2.1068,-2.0877,-2.1241,-2.2443,-2.3024,-2.4505,-2.682,-2.7282,-2.8286,-2.9971,-2.9971,-2.9976,-2.9938,-3.0403,-2.9995,-2.8801,-2.8086,-2.7366,-2.665,-2.434,-2.4092,-2.5071,-2.4448,-2.4818,-2.5439,-2.5325,-2.5456,-2.5709,-2.5226,-2.5111,-2.5111,-2.5111,-2.5472,-2.5823,-2.5945,-2.6181,-2.6424,-2.6537,-2.6788,-2.6918,-2.6684,-2.7047,-2.7409,-2.79,-2.802,-2.814,-2.8865,-2.8984,-2.8865,-2.8379,-2.8498,-2.8737,-2.9076,-2.9094,-2.9103,-2.945,-2.9213,-2.8984,-2.8984,-2.8984,-2.8984,-2.8984,-2.9204,-2.936,-2.936,-2.9608,-2.9764,-2.9764,-2.9764,-2.9764,-2.9764,-2.9151,-2.8527,-2.8156,-2.7526,-2.6769,0.0,0.0,0.0,0.0,0.0,0.0,0.0,0.0,0.0,0.0,0.0,0.0,0.0,0.0,0.0,0.0,0.0,0.0,0.0,0.0,0.0,0.0,0.0,0.0,0.0,0.0,-2.0155,-2.0158,-2.0081,-2.0241,-2.0363,-2.0278,-2.0379,-2.0816,-2.0509,-2.0656,-2.1092,-2.1104,-2.1919,-2.3606,-2.4187,-2.5562,-2.8026,-2.8492,-2.9403,-3.0764,-3.0764,-3.0692,-3.0635,-3.0995,-3.0255,-2.8564,-2.7735,-2.6779,-2.57,-2.4348,-2.41,-2.471,-2.3976,-2.3984,-2.4355,-2.4487,-2.4857,-2.5111,-2.5111,-2.5111,-2.5111,-2.5111,-2.5111,-2.5111,-2.5111,-2.5111,-2.5226,-2.5953,-2.6441,-2.6813,-2.7177,-2.7659,-2.802,-2.8259,-2.8379,-2.8498,-2.8865,-2.8984,-2.8984,-2.8984,-2.8984,-2.8984,-2.8984,-2.8984,-2.903,-2.9159,-2.9067,-2.9085,-2.936,-2.9269,-2.9241,-2.9379,-2.9626,-2.9782,-2.9782,-3.0039,-3.0204,-3.0204,-3.0204,-3.0204,-3.0204,-2.9573,-2.894,-2.8572,-2.7664,-2.6959,-2.6319,0.0,0.0,0.0,0.0,0.0,0.0,0.0,0.0,0.0,0.0,0.0,0.0,0.0,0.0,0.0,0.0,0.0,0.0,0.0,0.0,0.0,0.0,0.0,-1.9576,-2.0212,-2.0426,-2.0205,-2.0197,-2.0195,-1.9898,-2.0069,-2.0494,-2.116,-2.0974,-2.1114,-2.2116,-2.1881,-2.2511,-2.3991,-2.5464,-2.7098,-2.8894,-3.0309,-3.1241,-3.1787,-3.1787,-3.1073,-2.9884,-3.1199,-3.0363,-2.8095,-2.7975,-2.7263,-2.5953,-2.4718,-2.4108,-2.4108,-2.4108,-2.4355,-2.461,-2.461,-2.4857,-2.5111,-2.5111,-2.5111,-2.5111,-2.5111,-2.5111,-2.5111,-2.5111,-2.5111,-2.5226,-2.5953,-2.6075,-2.6441,-2.765,-2.802,-2.814,-2.8865,-2.8984,-2.8984,-2.8984,-2.8984,-2.8984,-2.8984,-2.8984,-2.8984,-2.8984,-2.8984,-2.9113,-2.9498,-2.9241,0.0,-3.0075,-2.9837,-2.9745,-3.0158,-3.0213,-3.0222,-3.0222,-3.0231,-3.0241,-3.0241,-3.0241,-3.0241,-3.0241,-2.9609,-2.9234,-2.9234,-2.795,-2.7107,-2.6692,0.0,0.0,0.0,0.0,0.0,0.0,0.0,0.0,0.0,0.0,0.0,0.0,0.0,0.0,0.0,0.0,0.0,0.0,0.0,0.0,0.0,0.0,-1.8766,-1.8764,-2.0091,-2.1097,-2.1089,-2.129,-2.1595,-2.1744,-2.158,-2.167,-2.2197,-2.2131,-2.2228,-2.2488,-2.2723,-2.3078,-2.3673,-2.5046,-2.6566,-2.8282,-2.9587,-3.0238,-3.048,-3.1315,-3.1073,-2.9884,-3.0236,-3.0001,-2.9285,-2.7383,-2.6545,-2.6311,-2.4972,-2.461,-2.4857,-2.461,-2.4487,-2.461,-2.4857,-2.498,-2.5111,-2.5111,-2.5111,-2.5111,-2.5111,-2.5111,-2.5111,-2.5111,-2.5111,-2.5349,-2.6449,-2.6813,-2.7056,-2.8379,-2.8746,-2.8737,-2.8984,-2.8984,-2.8984,-2.8984,-2.8984,-2.8984,-2.8984,-2.8984,-2.8984,-2.8984,-2.8984,-2.9021,-2.9131,-2.9296,0.0,-2.9718,-2.991,-3.0066,-3.0195,-3.0461,-3.0626,-3.0626,-3.0892,-3.1057,-3.1057,-3.1057,-3.1057,-3.1057,-3.092,-3.028,-2.9258,-2.8479,-2.7744,0.0,0.0,0.0,0.0,0.0,0.0,0.0,0.0,0.0,0.0,0.0,0.0,0.0,0.0,0.0,0.0,0.0,0.0,0.0,0.0,0.0,0.0,-1.7996,-1.8828,-1.8744,-2.0476,-2.1584,-2.1549,-2.1802,-2.2063,-2.2088,-2.2015,-2.2278,-2.272,-2.2705,-2.2757,-2.3153,-2.3296,-2.399,-2.537,-2.6219,-2.7709,-2.9757,-3.0704,-3.1063,-3.1073,-3.1305,-3.0713,-2.9521,-2.9521,-2.8929,0.0,-2.7071,-2.6421,-2.6068,-2.5477,-2.5415,0.0,0.0,0.0,0.0,0.0,-2.5111,-2.5111,-2.5111,-2.5111,-2.5111,-2.5111,-2.5111,-2.5111,-2.5111,-2.5111,-2.5349,-2.6692,-2.6813,-2.7047,-2.8618,-2.8737,-2.8618,-2.8984,-2.8984,-2.8984,-2.8984,-2.8984,-2.8984,-2.8984,0.0,0.0,-2.8984,-2.8984,-2.9094,-2.9443,-2.9534,-2.9755,-3.0259,-3.0396,-3.0516,-3.0671,-3.0901,-3.1038,-3.1038,-3.1249,0.0,0.0,0.0,-3.1377,-3.1377,-3.1377,0.0,0.0,0.0,-2.8659,-2.76,0.0,0.0,0.0,-2.6899,-2.6708,0.0,0.0,0.0,0.0,0.0,0.0,0.0,0.0,0.0,0.0,0.0,0.0,0.0,0.0,0.0,0.0,-1.7859,-1.9132,-1.9322,-2.0979,-2.1993,-2.1781,-2.1986,-2.2041,-2.178,-2.203,-2.2444,-2.3115,-2.2943,-2.3183,-2.415,0.0,0.0,0.0,0.0,-2.9375,-3.1893,-3.2133,-3.2258,-3.2258,-3.1179,-2.9874,-2.8683,-2.8683,-2.7495,-2.5365,-2.6644,-2.6546,-2.5604,-2.5906,-2.6049,-2.6033,-2.5453,-2.5222,-2.5222,-2.5222,-2.5222,0.0,0.0,0.0,0.0,-2.5119,-2.5111,-2.5111,-2.5111,-2.5111,-2.5349,-2.6571,-2.6562,-2.6675,-2.8379,-2.8498,-2.8259,-2.8865,-2.8984,-2.8984,-2.8984,-2.8984,-2.8984,-2.8984,-2.8984,-2.8993,-2.9039,-2.9048,-2.9296,-3.002,-2.9892,-3.0094,-3.1176,-3.1047,-3.0983,-3.1341,0.0,0.0,-3.1377,-3.1377,-3.1377,-3.1377,-3.1377,-3.1377,-3.1377,-3.1377,-3.0991,-3.0352,-3.0352,-2.97,-2.8395,-2.8395,-2.813,-2.7467,-2.7334,-2.7034,0.0,0.0,0.0,0.0,0.0,0.0,0.0,0.0,0.0,0.0,0.0,0.0,0.0,0.0,0.0,-1.6573,-1.8348,-1.9731,-1.9773,-2.1569,-2.2641,-2.2416,-2.2625,-2.2767,-2.2775,-2.3006,-2.3316,-2.3395,-2.3956,-2.4291,-2.4468,-2.47,0.0,-2.5603,-2.6737,-2.7966,-2.9512,-2.9639,-2.963,-2.963,0.0,0.0,-2.7375,-2.7375,-2.7134,-2.6537,-2.5896,-2.5453,-2.5214,-2.5286,-2.5477,-2.5747,-2.589,-2.5945,-2.5945,-2.5945,-2.5945,-2.5906,-2.5628,-2.5532,-2.5485,-2.5199,-2.5111,-2.5111,-2.5111,-2.5111,0.0,-2.6075,-2.6562,-2.7056,-2.802,-2.8498,-2.8865,-2.8984,-2.8984,-2.8984,-2.8984,-2.8984,-2.8984,-2.8984,-2.8984,-2.9085,-2.9397,-2.9461,-2.9516,-2.9672,-3.0185,-3.0635,-3.0873,-3.1112,-3.1295,-3.1368,-3.1377,-3.1377,-3.1377,-3.1377,-3.1377,-3.1377,-3.1377,-3.1377,-3.1377,-3.1377,-3.0991,-3.0352,-3.0352,-2.9961,-2.9053,-2.9053,-2.9045,-2.8914,-2.7733,-2.7169,0.0,0.0,0.0,0.0,0.0,0.0,0.0,0.0,0.0,0.0,0.0,-1.6332,0.0,0.0,-1.6579,-1.6851,-1.8572,-1.9956,-2.0118,-2.176,-2.2934,-2.2815,-2.2879,-2.303,-2.3279,-2.3424,-2.3598,-2.4061,-2.4338,-2.4671,-2.4818,-2.4972,-2.5349,-2.6067,-2.6658,-2.7615,-2.892,-2.892,-2.892,-2.892,-2.8206,-2.7615,-2.7013,-2.6302,-2.6166,-2.6224,-2.5798,-2.5731,-2.5906,-2.6088,-2.6263,-2.6438,-2.6613,-2.6462,-2.6144,-2.6144,-2.6144,-2.612,-2.5953,-2.589,-2.5834,-2.5485,-2.5373,-2.5342,-2.5159,-2.5111,-2.5349,-2.6319,-2.6562,-2.6805,-2.814,-2.8498,-2.8618,-2.8865,-2.8984,-2.8984,-2.8984,-2.8984,-2.8984,-2.8984,-2.8984,-2.9104,-2.9498,-2.9745,-2.9956,-3.0149,-3.0525,-3.0855,-3.1057,-3.1258,-3.1377,-3.1377,-3.1377,-3.1377,-3.1377,-3.1377,-3.1377,-3.1377,-3.1377,-3.1377,-3.1377,-3.1377,-3.1249,-3.087,-3.0861,-3.0473,-2.9831,-2.9831,-2.9569,-2.9307,-2.8518,-2.8254,0.0,0.0,0.0,0.0,0.0,0.0,0.0,0.0,-1.664,-1.6429,-1.6555,-1.6718,-1.6767,-1.6767,-1.6845,-1.7123,-1.875,-2.0083,-2.0235,-2.1881,-2.3143,-2.3143,-2.3143,-2.3159,-2.3432,-2.3666,-2.3904,-2.4585,-2.4671,-2.4818,-2.5111,-2.5111,-2.5586,-2.6658,-2.6658,-2.7254,-2.8564,-2.8325,-2.8361,-2.8562,-2.7367,-2.6802,-2.6756,-2.5789,-2.5469,-2.5755,-2.6025,-2.6311,-2.6597,-2.6954,-2.7097,-2.7105,-2.7177,-2.6851,-2.635,-2.635,-2.635,-2.6342,-2.6271,-2.6247,-2.6192,-2.585,-2.5739,-2.5675,-2.5318,-2.5214,-2.5445,-2.6344,-2.6449,-2.6684,-2.8259,-2.8379,-2.8379,-2.8856,-2.8984,-2.8984,-2.8984,-2.8984,-2.8984,-2.8984,-2.8984,-2.9131,-2.9608,-2.9975,-3.0332,-3.0726,-3.0855,-3.102,-3.1332,-3.1377,-3.1377,-3.1377,-3.1377,-3.1377,-3.1377,-3.1451,-3.1469,-3.1377,-3.1451,-3.146,-3.1377,-3.1377,-3.1377,-3.1377,-3.1377,-3.112,-3.0482,-3.0482,-3.0222,-2.97,-2.97,-2.9569,-1.4519,-1.5743,-1.661,-1.661,-1.6634,-1.6646,0.0,0.0,-1.6688,-1.6664,-1.6682,-1.6773,-1.7002,-1.7104,-1.7165,-1.7388,-1.9061,-2.0228,-2.027,-2.2139,-2.3424,-2.3424,-2.3424,-2.3432,-2.3553,-2.4134,-2.4507,-2.4648,-2.4826,-2.5103,-2.5111,-2.5111,-2.5111,-2.5349,-2.5349,-2.5945,-2.7254,-2.6067,-2.6224,-2.7641,-2.643,-2.5983,-2.628,-2.6152,-2.6049,-2.6088,-2.6128,-2.6168,-2.6231,-2.6589,-2.6732,-2.6764,-2.7081,-2.7153,-2.7081,-2.7081,-2.7081,-2.7042,-2.6724,-2.6613,-2.6557,-2.6207,-2.6088,-2.6025,-2.5683,-2.558,-2.5508,-2.5322,-2.6083,-2.6935,-2.7177,-2.802,-2.8865,-2.8984,-2.8984,-2.8984,-2.8984,-2.8984,-2.8984,-2.8984,-2.8984,-2.9223,-3.0002,-3.0167,-3.0332,-3.0726,-3.1084,-3.1332,-3.1368,-3.1377,-3.1377,-3.1377,-3.1377,-3.1377,-3.1377,-3.1717,-3.1772,-3.1405,-3.1726,-3.1772,-3.1396,-3.1377,-3.1377,-3.1377,-3.1377,-3.1377,-3.1249,-3.1249,-3.1249,-3.112,-3.112,-3.0473,-1.5327,-1.6357,-1.6893,-1.6742,-1.6815,-1.6887,-1.6736,-1.6936,-1.7111,-1.696,-1.705,-1.7189,-1.7298,-1.7292,-1.7316,0.0,-1.9096,-2.0357,-2.0618,-2.2253,-2.3592,-2.385,-2.4063,-2.4111,-2.4111,-2.4428,-2.4671,-2.4826,-2.4972,-2.5111,-2.5111,-2.5111,-2.5199,-2.5405,-2.5421,-2.5758,-2.6569,-2.5959,-2.6031,-2.6799,-2.6183,-2.6009,-2.6144,-2.6144,-2.6263,-2.6462,-2.6668,-2.6764,-2.6771,-2.6922,-2.6986,-2.6994,-2.7145,-2.72,-2.72,-2.72,-2.72,-2.7185,-2.7034,-2.6986,-2.6922,-2.6565,-2.6454,-2.639,-2.6041,-2.5794,-2.5729,-2.6315,-2.673,-2.7177,-2.802,-2.8618,-2.8984,-2.8984,-2.8984,-2.8984,-2.8984,-2.8984,-2.8984,-2.8984,-2.8984,-2.9241,-3.0057,-3.0204,-3.0415,-3.1038,-3.1267,-3.1377,-3.1377,-3.1377,-3.1377,-3.1377,-3.1377,-3.1377,-3.1377,-3.1543,-3.157,-3.1387,-3.1772,-3.1928,-3.1753,-3.1964,-3.2084,-3.2084,-3.1863,-3.1744,-3.1744,-3.1497,-3.1377,-3.1377,-3.1377,-3.112,-1.6337,-1.7056,-1.7153,-1.6966,-1.7062,-1.7153,-1.696,-1.7207,-1.7424,-1.7237,-1.7346,-1.7485,-1.7485,-1.7485,-1.7485,-1.7485,-1.9181,-2.0468,-2.0727,-2.2497,-2.3942,-2.4261,-2.4541,-2.4721,-2.4721,-2.4795,-2.4818,-2.5103,-2.5111,-2.5111,-2.5111,-2.5199,-2.5373,-2.5628,-2.5731,-2.5898,-2.6144,-2.6144,-2.6192,-2.6295,-2.6295,-2.6342,-2.6438,-2.6438,-2.6581,-2.6835,-2.7089,-2.72,-2.72,-2.72,-2.72,-2.72,-2.72,-2.72,-2.72,-2.72,-2.72,-2.72,-2.72,-2.72,-2.7161,-2.6907,-2.6819,-2.6756,-2.6398,-2.624,-2.6254,-2.6927,-2.7293,-2.7548,-2.8286,-2.8737,-2.8984,-2.8984,-2.8984,-2.8984,-2.8984,-2.9067,-2.914,-2.914,-2.9241,-2.9544,-3.0241,-3.036,-3.0589,-3.1277,-3.1377,-3.1377,-3.1377,-3.1377,-3.1377,-3.1377,-3.1377,-3.1377,-3.1377,-3.1478,-3.1506,-3.1387,-3.1772,-3.1955,-3.1836,-3.2102,-3.2258,-3.2258,-3.1974,-3.1836,-3.1836,-3.1524,-3.1433,-3.1552,-3.1552,-3.1607,-1.7103,-1.7461,-1.7473,-1.7461,-1.7467,-1.7473,-1.7461,-1.7473,-1.7479,-1.7473,-1.7473,-1.7485,-1.7485,-1.7485,-1.7485,-1.7485,-1.9318,-2.0741,-2.0856,-2.3022,-2.4549,-2.4582,-2.4833,-2.5056,0.0,-2.5087,-2.5111,-2.5111,-2.5111,-2.5111,-2.5111,-2.5437,-2.5628,-2.5635,-2.5953,-2.6136,-2.6144,-2.6144,-2.6319,-2.6652,-2.6652,-2.6835,-2.7169,-2.7169,-2.7177,-2.7185,-2.72,-2.72,-2.72,-2.72,-2.72,-2.72,-2.72,-2.72,-2.72,-2.72,-2.72,-2.72,-2.72,-2.72,-2.72,-2.7193,-2.7185,-2.7121,-2.6764,-2.7166,-2.7391,-2.6071,-2.7109,-2.8368,-2.7271,-2.802,-2.8984,-2.8984,-2.8984,-2.8984,-2.8984,-2.9287,-2.9553,-2.9553,-2.9883,-3.0296,-3.0699,-3.0772,-3.091,-3.1322,-3.1377,-3.1377,-3.1377,-3.1377,-3.1377,-3.1377,-3.1377,-3.1377,-3.1377,-3.1753,-3.1818,-3.1405,-3.1772,-3.1827,-3.1414,-3.1405,-3.1414,-3.1414,-3.1405,-3.1396,-3.1396,-3.1387,-3.1588,-3.1983,-3.1983,-3.2194,-1.7361,-1.7485,-1.7485,-1.7485,-1.7485,-1.7485,-1.7485,-1.7485,-1.7485,-1.7485,-1.7485,-1.7485,-1.7485,-1.7485,-1.7485,-1.7485,-1.9318,-2.0878,-2.1138,-2.3126,-2.4691,-2.4851,-2.4979,0.0,0.0,0.0,0.0,-2.5111,-2.5111,-2.5214,-2.5445,-2.5572,-2.585,-2.6311,-2.6438,-2.6605,-2.6843,-2.6843,-2.6907,-2.7026,-2.7026,-2.7089,-2.72,-2.72,-2.72,-2.72,-2.72,-2.7335,-2.7558,-2.7558,-2.7677,-2.7884,-2.7884,-2.7749,-2.7558,-2.7558,-2.7407,-2.72,-2.72,-2.72,-2.72,-2.72,-2.7467,-2.7849,-2.7859,-2.7769,-2.7773,-2.8163,-2.8114,-2.807,-2.8549,-2.8817,-2.8984,-2.8984,-2.9177,-2.9369,-2.9369,-2.969,-2.9993,-2.9993,-3.0103,-3.0323,-3.0717,-3.0791,-3.0919,-3.1322,-3.1377,-3.1377,-3.1377,-3.1377,-3.1377,-3.1377,-3.1377,-3.1377,-3.1377,-3.1506,-3.1524,-3.1387,-3.1772,-3.1946,-3.1799,-3.2047,-3.2184,-3.2184,-3.1928,-3.1799,-3.1799,-3.1799,-3.1873,-3.201,-3.2276,-3.2469,-1.6885,-1.7126,-1.7485,-1.7485,-1.7485,-1.7485,-1.7485,-1.7485,-1.7485,-1.7485,-1.7485,-1.7485,-1.7485,-1.7485,-1.7608,-1.7997,-1.9641,-2.1159,-2.173,-2.351,-2.4826,-2.5103,-2.5111,-2.5111,0.0,0.0,0.0,-2.5111,-2.523,-2.5397,-2.5628,-2.5874,-2.6215,-2.666,-2.6795,-2.697,-2.72,-2.72,-2.72,-2.72,-2.72,-2.7272,-2.7391,-2.7391,-2.7455,-2.7566,-2.7566,-2.7701,-2.7907,-2.7907,-2.8035,-2.8225,-2.8225,-2.8236,-2.8325,-2.8044,-2.7821,-2.7769,-2.764,-2.76,-2.76,-2.76,-2.7865,-2.8263,-2.8263,-2.8229,-2.8387,-2.9153,-2.9016,-2.8818,-2.9157,-2.9377,-2.9379,-2.9232,-2.9498,-2.9791,-2.9791,-3.0121,-3.0406,-3.0406,-3.0525,-3.0699,-3.0956,-3.0992,-3.1084,-3.1341,-3.1377,-3.1377,-3.1377,-3.1377,-3.1377,-3.1377,-3.1377,-3.1377,-3.1377,-3.1377,-3.1377,-3.1377,-3.1634,-3.1781,-3.1781,-3.2029,-3.2157,-3.2157,-3.1909,-3.1854,-3.201,-3.201,-3.2157,-3.245,-3.2698,-3.29,-1.593,-1.6526,-1.7485,-1.7485,-1.7485,-1.7485,-1.7485,-1.7485,-1.7485,-1.7485,-1.7485,-1.7485,0.0,0.0,-1.7768,-1.8692,-2.0241,-2.1614,-2.2501,-2.4078,-2.5111,0.0,0.0,0.0,0.0,0.0,0.0,-2.5143,0.0,-2.5651,-2.5683,-2.6319,-2.6684,-2.67,-2.7026,-2.72,-2.72,-2.72,-2.7208,-2.7232,-2.7232,-2.7415,-2.7757,-2.7757,-2.7923,-2.8355,-2.8355,-2.8371,-2.8387,-2.8249,-2.8265,-2.8273,-2.8273,-2.8688,-2.9231,-2.8526,-2.8583,-2.8909,-2.8544,-2.8411,-2.8263,-2.8271,-2.8263,-2.8395,-2.8395,-2.879,-2.923,-2.9,-2.9775,-3.0482,-2.9091,-2.9418,-3.0103,-2.97,-2.992,-3.0231,-3.0231,-3.0543,-3.0818,-3.0818,-3.1121,-3.1377,-3.1377,-3.1377,-3.1377,-3.1377,-3.1377,-3.1377,-3.1377,-3.1377,-3.1377,-3.1377,-3.1377,-3.1377,-3.1377,-3.1377,-3.1377,-3.1377,-3.1377,-3.1377,-3.1377,-3.1377,-3.1377,-3.1377,-3.1377,-3.1588,-3.201,-3.2029,-3.2441,-3.3221,-3.3248,-3.3459,-1.5693,-1.6526,-1.7485,-1.7485,-1.7485,-1.7485,-1.7485,-1.7485,-1.7602,-1.7849,-1.7726,-1.7602,-1.7843,-1.7815,0.0,-1.8154,-2.0086,0.0,-2.1874,-2.3794,0.0,-2.5111,0.0,-2.5111,-2.5111,-2.5288,0.0,0.0,-2.5502,-2.5866,-2.6382,-2.6581,-2.6795,-2.7057,-2.7153,-2.72,-2.72,-2.72,-2.7335,-2.7598,-2.7598,-2.8052,-2.8938,-2.8938,-2.9245,-2.9858,-2.9858,-3.0018,-3.0279,-2.974,-2.9617,-2.9846,-2.9296,-2.9002,-2.9051,-2.933,-2.9379,-2.9427,-3.0131,-2.9017,-2.76,-2.813,-2.8659,-2.9176,-2.97,-2.9961,-3.0195,-3.0615,-3.0364,-2.9958,-3.0148,-3.0217,-3.0176,-3.0066,-3.0341,-3.0644,-3.0644,-3.0947,-3.1231,-3.1231,-3.1304,-3.1377,-3.1377,-3.1377,-3.1377,-3.1377,-3.1377,-3.1377,-3.1377,-3.1377,-3.1377,-3.1377,-3.1377,-3.1377,-3.1377,-3.1377,-3.1377,-3.1377,-3.1377,-3.1377,-3.1377,-3.1377,-3.1377,-3.1377,-3.1377,-3.1588,-3.201,-3.2304,-3.2716,-3.323,-3.3523,-3.3716,-1.4976,-1.6048,-1.7485,-1.7485,-1.7485,-1.7485,-1.7726,-1.7726,-1.7843,-1.8077,-1.8071,-1.8064,-1.8874,-1.8489,-1.8465,0.0,0.0,0.0,-2.232,-2.394,-2.5111,0.0,-2.5111,0.0,-2.5368,-2.5431,-2.5763,0.0,-2.612,-2.6263,-2.6652,-2.6819,-2.6994,-2.72,-2.72,-2.72,-2.72,-2.7359,-2.7661,-2.8267,-2.8421,-2.9091,-3.0119,-3.0119,-3.0487,-3.0917,0.0,-3.1037,-3.1234,-3.0823,-3.0808,-3.0843,-3.0425,-3.0443,-3.0533,-3.0542,-3.0594,-3.0635,-3.0655,-2.973,-2.8461,-2.8973,-2.9438,-2.9831,-3.0222,-3.0352,-3.0482,-3.1249,-3.0956,-3.0483,-3.0701,-3.0754,-3.0671,-3.0497,-3.0763,-3.1047,-3.1047,-3.1222,-3.1377,-3.1377,-3.1377,-3.1377,-3.1377,-3.1377,-3.1377,-3.1377,-3.1377,-3.1377,-3.1377,-3.1377,-3.1377,-3.1377,-3.1377,-3.1377,-3.1377,-3.1377,-3.1377,-3.1377,-3.1377,-3.1377,-3.1377,-3.1377,-3.1377,-3.1377,-3.1377,-3.1671,-3.2267,-3.2487,-3.29,-3.3486,-3.3707,-3.3817,-1.4262,-1.5693,-1.7485,-1.7485,-1.7485,-1.7602,-1.7966,-1.7972,-1.8083,-1.8421,-1.8532,-1.8984,-2.0113,-1.9535,-1.9529,-2.1423,0.0,-2.2352,-2.317,-2.4394,-2.5111,-2.5111,-2.5111,-2.5225,-2.5571,-2.5651,-2.5945,-2.6636,-2.6716,-2.6748,-2.6748,-2.7034,-2.72,-2.72,-2.72,-2.7224,-2.7272,-2.7709,-2.8172,-2.8939,-2.9261,-3.0015,-3.1054,-3.1054,-3.1382,-3.1841,0.0,0.0,-3.185,-3.1841,-3.17,-3.1709,-3.1709,-3.1982,-3.2535,-3.1982,-3.1914,-3.2134,-3.1181,-3.0528,-3.0264,-3.0232,-3.0352,-3.0352,-3.0482,-3.0482,-3.0611,-3.1249,-3.1377,-3.1295,-3.0956,-3.1121,-3.1295,-3.0947,-3.113,-3.1377,-3.1377,-3.1377,-3.1377,-3.1377,-3.1377,-3.1377,-3.1377,-3.1377,-3.1377,-3.1377,-3.1377,-3.1377,-3.1377,-3.1377,-3.1377,-3.1377,-3.1377,-3.1377,-3.1377,-3.1377,-3.1377,-3.1377,-3.1377,-3.1377,-3.1377,-3.1377,-3.1377,-3.1377,-3.1377,-3.1781,-3.2597,-3.2597,-3.301,-3.3817,-3.3817,-3.3669,-1.5095,-1.6408,-1.7485,-1.7485,-1.7485,-1.7602,-1.7966,-1.7972,-1.82,-1.8648,-1.9441,-2.0005,-2.0565,-2.1177,-2.1877,-2.2632,-2.321,-2.3825,-2.4291,-2.4843,-2.5111,0.0,-2.5111,-2.517,-2.5533,-2.5858,0.0,0.0,0.0,-2.7113,-2.7113,-2.7169,-2.72,-2.72,-2.72,-2.7343,-2.7637,-2.8362,-2.8695,-2.8871,-2.9486,-3.04,-3.1465,-3.1465,-3.2202,-3.3391,0.0,0.0,-3.3391,-3.2815,-3.2526,-3.2395,-3.1841,-3.1709,-3.1841,-3.2395,-3.2491,-3.2654,-3.2692,-3.2431,-3.1969,-3.0713,-3.0352,-3.0352,-3.0991,-3.1249,-3.1249,-3.1377,-3.1377,-3.1359,-3.1295,-3.1322,-3.1359,-3.1295,-3.1332,-3.1377,-3.1377,-3.1377,-3.1377,-3.1377,-3.1377,-3.1377,-3.1377,-3.1377,-3.1377,-3.1377,-3.1377,-3.1377,-3.1377,-3.1377,-3.1377,-3.1377,-3.1377,-3.1377,-3.1377,-3.1377,-3.1377,-3.1377,-3.1377,-3.1377,-3.1377,-3.1377,-3.1377,-3.1377,-3.1377,-3.1781,-3.2597,-3.2597,-3.301,-3.3817,-3.3817,-3.3094,-1.5451,-1.6526,-1.7485,-1.7485,-1.7485,-1.7602,-1.8077,-1.8194,-1.8428,-1.901,-2.0026,-2.0923,-2.1714,-2.2459,-2.32,-2.4077,-2.4556,-2.47,-2.4664,-2.5501,-2.5839,-2.5234,-2.5464,-2.573,-2.5937,-2.6136,-2.6366,0.0,0.0,-2.72,-2.72,-2.72,-2.72,-2.72,-2.7383,-2.7558,-2.7733,-2.8494,-2.9257,-3.0012,-3.05,-3.1528,-3.2693,-3.2693,-3.3112,-3.3817,-3.3817,0.0,-3.3807,-3.3381,-3.3242,-3.3242,-3.2824,-3.2693,-3.2824,-3.3103,-3.3242,-3.3327,-3.3221,-3.3092,-3.2826,-3.1815,-3.1204,-3.0991,-3.1249,-3.1377,-3.1377,-3.1377,-3.1377,-3.1377,-3.1377,-3.1377,-3.1377,-3.1377,-3.1377,-3.1377,-3.1377,-3.1377,-3.1377,-3.1377,-3.1377,-3.1377,-3.1377,-3.1377,-3.1377,-3.1377,-3.1377,-3.1377,-3.1377,-3.1377,-3.1377,-3.1377,-3.1377,-3.1377,-3.1377,-3.1377,-3.1377,-3.1377,-3.1377,-3.1377,-3.1377,-3.1377,-3.1377,-3.1377,-3.1377,-3.1781,-3.2597,-3.2597,-3.301,-3.3817,-3.2945,-3.2228,-1.6084,-1.6935,-1.766,-1.766,-1.7772,-1.7872,-1.8406,-1.8504,-1.8725,-1.9263,-2.0615,-2.1873,-2.2956,-2.3753,-2.4637,-2.5736,-2.5871,-2.5733,-2.5426,-2.6207,-2.6466,-2.557,-2.588,0.0,-2.656,-2.6689,0.0,0.0,0.0,0.0,-2.72,-2.72,-2.724,-2.7312,-2.7582,-2.7804,-2.7955,-2.8766,-2.9773,-3.0818,-3.1546,-3.2403,-3.353,-3.353,-3.3669,-3.3817,-3.3817,0.0,0.0,-3.3817,-3.3817,-3.3817,-3.3817,-3.3817,-3.3817,-3.3817,-3.3817,-3.3771,-3.3459,-3.3294,-3.3175,-3.2835,-3.2175,-3.1515,-3.1515,-3.1451,-3.1377,-3.1377,-3.1377,-3.1377,-3.1377,-3.1377,-3.1377,-3.1377,-3.1377,-3.1377,-3.1377,-3.1377,-3.1377,-3.1377,-3.1377,-3.1377,-3.1377,-3.1377,-3.1377,-3.1377,-3.1377,-3.1377,-3.1377,-3.1377,-3.1377,-3.1377,-3.1377,-3.1377,-3.1377,-3.1377,-3.1377,-3.1377,-3.1377,-3.1377,-3.1377,-3.1377,-3.1377,-3.1377,-3.1377,-3.1735,-3.2469,-3.2275,-3.2413,-3.3116,-3.1755,-3.0793,-1.7713,-1.8093,-1.8221,-1.8221,-1.8459,-1.8751,-1.8734,-1.9028,-1.9194,-1.9419,-2.1174,-2.2956,-2.3494,-2.5335,-2.7124,-2.7973,-2.766,-2.7314,-2.7586,-2.6847,-2.6288,-2.6815,0.0,0.0,-2.7925,-2.8375,0.0,0.0,0.0,0.0,-2.72,-2.72,-2.7351,-2.7677,-2.7717,-2.8035,-2.8662,-3.011,-3.073,-3.0493,-3.1947,-3.2675,-3.2806,-3.2806,-3.3103,-3.3817,-3.3817,0.0,0.0,-3.3817,-3.3817,-3.3817,-3.3817,-3.3817,-3.3817,-3.3817,-3.3817,-3.3807,-3.3771,-3.3523,-3.3221,-3.3175,-3.2615,-3.1946,-3.1946,-3.168,-3.1377,-3.1377,-3.1377,-3.1377,-3.1377,-3.1377,-3.1377,-3.1377,-3.1377,-3.1377,-3.1377,-3.1377,-3.1377,-3.1377,-3.1377,-3.1377,-3.1377,-3.1377,-3.1377,-3.1377,-3.1377,-3.1377,-3.1377,-3.1377,-3.1377,-3.1377,-3.1377,-3.1377,-3.1377,-3.1377,-3.1377,-3.1377,-3.1377,-3.1377,-3.1377,-3.1377,-3.1377,-3.1377,-3.1377,-3.1607,-3.2056,-3.1032,-3.0728,-3.1159,-2.9919,-2.8644,-1.8165,-1.8294,-1.8294,-1.8533,-1.8532,-1.862,-1.8973,-1.905,-1.9362,-2.0291,-2.2009,-2.3666,-2.4497,-2.6408,-2.8022,-2.8342,-2.8346,-2.8264,-2.8045,-2.7855,-2.7677,-2.7039,-2.746,0.0,0.0,0.0,0.0,0.0,0.0,0.0,-2.751,-2.7518,-2.7582,-2.7725,-2.8138,-2.8766,-2.9468,-3.0227,-3.0966,-3.1815,-3.2386,-3.2954,-3.3381,-3.3381,-3.353,-3.3817,-3.3817,0.0,0.0,-3.3817,-3.3817,-3.3817,-3.3817,-3.3817,-3.3817,-3.3817,-3.3817,-3.3817,-3.3817,-3.3716,-3.3578,-3.3578,-3.3202,-3.2689,-3.2441,-3.2074,-3.1753,-3.1753,-3.157,-3.1377,-3.1377,-3.1377,-3.1377,-3.1377,-3.1377,-3.1377,-3.1377,-3.1377,-3.1377,-3.1377,-3.1377,-3.1377,-3.1377,-3.1377,-3.1377,-3.1377,-3.1377,-3.1377,-3.1377,-3.1377,-3.1377,-3.1377,-3.1377,-3.1377,-3.1377,-3.1377,-3.1377,-3.1377,-3.1377,-3.1377,-3.1377,-3.1377,-3.1377,-3.1377,-3.1377,-3.1181,-3.0769,-3.0468,-3.0018,-2.9551,-2.8346,-2.7505,-1.8771,-1.8647,-1.8647,-1.9013,-1.8932,-1.8955,-1.9335,-1.9628,-2.0151,-2.1212,-2.2944,-2.4598,-2.5528,-2.7169,-2.8434,-2.8553,-2.8801,-2.8829,-2.8372,-2.8564,-2.8517,-2.7823,0.0,-2.8543,0.0,0.0,0.0,0.0,0.0,0.0,0.0,-2.7964,-2.8205,-2.8309,-2.9061,-2.9798,-3.0335,-3.0568,-3.1401,-3.2666,-3.2666,-3.3094,-3.3817,-3.3817,-3.3817,-3.3817,0.0,0.0,0.0,-3.3817,-3.3817,-3.3817,-3.3817,-3.3817,-3.3817,-3.3817,-3.3817,-3.3817,-3.3817,-3.3817,-3.3817,-3.3817,-3.3624,-3.334,-3.3046,-3.2597,-3.2157,-3.2038,-3.1698,-3.1377,-3.1377,-3.1377,-3.1377,-3.1377,-3.1377,-3.1377,-3.1377,-3.1377,-3.1377,-3.1377,-3.1377,-3.1377,-3.1377,-3.1377,-3.1377,-3.1377,-3.1377,-3.1377,-3.1377,-3.1377,-3.1377,-3.1377,-3.1377,-3.1377,-3.1377,-3.1377,-3.1377,-3.1377,-3.1377,-3.1377,-3.1377,-3.1377,-3.124,-3.0852,-3.0723,-3.0188,-2.911,-2.9038,-2.8574,-2.785,-2.6742,-2.6225,-1.9571,-1.9316,-1.9194,-1.9571,-1.9632,-1.9735,-1.9691,-2.0925,-2.2134,-2.1818,-2.3985,-2.611,-2.6497,-2.7543,-2.8526,-2.8911,-2.8984,-2.8984,-2.8984,-2.8379,-2.8402,0.0,0.0,-2.9332,-2.9577,0.0,0.0,0.0,0.0,0.0,0.0,-2.8736,-2.9501,-2.9872,-3.0561,-3.1165,-3.1559,-3.1559,-3.1982,-3.2666,-3.2666,-3.3094,-3.3817,-3.3817,-3.3817,0.0,0.0,0.0,0.0,-3.3817,-3.3817,-3.3817,-3.3817,-3.3817,-3.3817,-3.3817,-3.3817,-3.3817,-3.3817,-3.3817,-3.3817,-3.3817,-3.3807,-3.3807,-3.3798,-3.3239,-3.2505,-3.212,-3.1698,-3.1377,-3.1377,-3.1377,-3.1377,-3.1377,-3.1377,-3.1377,-3.1377,-3.1377,-3.1377,-3.1377,-3.1377,-3.1377,-3.1377,-3.1377,-3.1377,-3.1377,-3.1377,-3.1377,-3.1377,-3.1377,-3.1377,-3.1377,-3.1377,-3.1377,-3.1377,-3.1377,-3.1377,-3.1377,-3.1377,-3.1377,-3.1377,-3.1377,-3.0714,-2.9404,-2.9273,-2.86,-2.7121,-2.6328,-2.5966,-2.5848,-2.507,-2.4636,-1.9705,-1.9711,-1.9845,-1.9973,-2.0016,-2.0276,-2.138,-2.191,-2.2676,-2.4323,-2.5653,-2.6681,-2.7642,-2.8373,-2.8838,-2.8966,-2.8984,-2.8984,-2.8984,-2.8865,0.0,-2.8805,-2.8412,-2.8314,0.0,0.0,0.0,0.0,0.0,0.0,0.0,-2.9102,-2.9494,-2.9188,-3.0111,-3.0709,-3.0835,-3.0835,-3.1401,-3.2666,-3.2666,-3.3094,-3.3817,-3.3817,0.0,0.0,0.0,0.0,0.0,-3.3817,-3.3817,-3.3817,-3.3817,-3.3817,-3.3817,-3.3817,-3.3817,-3.3817,-3.3817,-3.3817,-3.3817,-3.3817,-3.3817,-3.3817,-3.3817,-3.345,-3.2945,-3.2524,-3.212,-3.1808,-3.1808,-3.1598,-3.1377,-3.1377,-3.1377,-3.1377,-3.1377,-3.1377,-3.1377,-3.1377,-3.1377,-3.1377,-3.1377,-3.1377,-3.1377,-3.1377,-3.1377,-3.1377,-3.1377,-3.1377,-3.1377,-3.1377,-3.1377,-3.1377,-3.1377,-3.1377,-3.1377,-3.1377,-3.1377,-3.0982,-3.0056,-2.9926,-2.9256,-2.7784,-2.7792,-2.7121,-2.5667,-2.5562,-2.5319,-2.4774,-2.4596,-2.4636,-1.9966,-1.9973,-2.0106,-2.0234,-2.0638,-2.1266,-2.2349,-2.3278,-2.4324,-2.5863,-2.6885,-2.7766,-2.85,-2.8819,-2.8984,-2.8984,-2.8984,-2.9039,-2.9186,-2.9204,0.0,-2.8968,0.0,0.0,0.0,0.0,0.0,0.0,0.0,0.0,0.0,0.0,-2.9674,-2.8964,-3.0159,-3.0835,-3.0835,-3.0551,-3.111,-3.2666,-3.2395,-3.2824,-3.3817,-3.3817,0.0,0.0,0.0,0.0,0.0,-3.3817,-3.3817,-3.3817,-3.3817,-3.3817,-3.3817,-3.3817,-3.3817,-3.3817,-3.3817,-3.3817,-3.3817,-3.3817,-3.3817,-3.3817,-3.3817,-3.3532,-3.3175,-3.2909,-3.2542,-3.223,-3.223,-3.1928,-3.1616,-3.1616,-3.1497,-3.1377,-3.1377,-3.1377,-3.1377,-3.1377,-3.1377,-3.1377,-3.1377,-3.1377,-3.1377,-3.1377,-3.1377,-3.1377,-3.1377,-3.1377,-3.1377,-3.1377,-3.1377,-3.1377,-3.1377,-3.1377,-3.1377,-3.1377,-3.1377,-3.0723,-2.9404,-2.9273,-2.8328,-2.6321,-2.6321,-2.5659,-2.4203,-2.4641,-2.4565,-2.4209,-2.4502,-2.4636,0.0,-2.0106,-2.0234,-2.0609,-2.1506,-2.2256,-2.2737,-2.4804,0.0,-2.6745,-2.7991,-2.8984,-2.8984,-2.8984,-2.8984,-2.8984,-2.9003,-2.9149,-2.9516,-2.9617,0.0,0.0,-2.8807,0.0,0.0,0.0,0.0,0.0,0.0,0.0,0.0,0.0,-2.9664,-2.929,-3.0718,-3.1427,-3.1427,-3.0701,-3.111,-3.2666,-3.1982,-3.2403,-3.3817,-3.3817,0.0,0.0,0.0,0.0,0.0,-3.3817,-3.3817,-3.3817,-3.3817,-3.3817,-3.3817,-3.3817,-3.3817,-3.3817,-3.3817,-3.3817,-3.3817,-3.3817,-3.3817,-3.3817,-3.3817,-3.356,-3.3266,-3.3266,-3.2964,-3.2643,-3.2643,-3.234,-3.2047,-3.201,-3.1708,-3.1414,-3.1387,-3.1377,-3.1377,-3.1377,-3.1377,-3.1377,-3.1377,-3.1377,-3.1377,-3.1377,-3.1377,-3.1377,-3.1377,-3.1377,-3.1377,-3.1377,-3.1377,-3.1249,-3.1249,-3.1249,-3.1249,-3.1249,-3.1111,-3.0455,-2.9003,-2.9003,-2.7668,-2.4873,-2.4873,-2.4203,-2.2859,-2.3474,-2.3908,-2.4182,-2.4489,-2.4636,-2.0106,0.0,-2.0729,-2.1839,-2.2527,-2.3447,0.0,-2.6394,-2.7253,-2.8226,-2.8792,-2.8984,-2.8984,-2.8984,-2.8984,-2.8984,-2.9232,-2.9461,-2.9562,-2.9226,0.0,-2.9595,-2.8416,0.0,0.0,0.0,0.0,0.0,0.0,0.0,0.0,0.0,-2.9353,-2.929,-2.9577,-2.9863,-2.9863,-2.972,-3.0283,-3.1841,-3.17,-3.2403,-3.3817,-3.3817,0.0,0.0,0.0,0.0,-3.3817,-3.3817,-3.3817,-3.3817,-3.3817,-3.3817,-3.3817,-3.3817,-3.3817,-3.3817,-3.3817,-3.3817,-3.3817,-3.3817,-3.3817,-3.3817,-3.3817,-3.3752,-3.367,-3.367,-3.3386,-3.3074,-3.3074,-3.2771,-3.2377,-3.2074,-3.1937,-3.1772,-3.1451,-3.1377,-3.1377,-3.1377,-3.1377,-3.1377,-3.1377,-3.1377,-3.1377,-3.1377,-3.1377,-3.1377,-3.1377,-3.1377,-3.1377,-3.1377,-3.0455,-2.9796,-2.9796,-2.9796,-2.9796,-2.9796,-2.8715,-2.7519,-2.6077,-2.6069,-2.5135,-2.34,-2.34,-2.327,-2.2859,-2.3474,-2.3808,-2.3888,-2.4396,-2.4636,-2.0482,-2.0976,-2.1594,-2.2215,-2.369,-2.517,-2.6286,-2.7272,-2.8122,-2.8856,-2.8984,-2.8984,-2.8984,-2.8984,-2.9039,-2.9223,-2.9434,-2.97,0.0,0.0,-2.9508,-2.9508,0.0,0.0,0.0,0.0,0.0,0.0,0.0,0.0,0.0,0.0,-2.9298,-2.9298,-2.9298,-2.9298,-2.9298,-2.9298,-3.0006,-3.1568,-3.1568,-3.2403,-3.3817,-3.3817,-3.3817,0.0,0.0,0.0,-3.3817,-3.3817,-3.3817,-3.3817,-3.3817,-3.3817,-3.3817,-3.3817,-3.3817,-3.3817,-3.3817,-3.3817,-3.3817,-3.3817,-3.3817,-3.3817,-3.3817,-3.3817,-3.3817,-3.3817,-3.3661,-3.3496,-3.3496,-3.3193,-3.2826,-3.2615,-3.2414,-3.2221,-3.1983,-3.1799,-3.1671,-3.1671,-3.1506,-3.1377,-3.1377,-3.1377,-3.1377,-3.1377,-3.1377,-3.1377,-3.1377,-3.1377,-3.1111,-3.0455,-2.9796,-2.9003,-2.8328,-2.7668,-2.7535,-2.8188,-2.7519,-2.6455,-2.5008,-2.5008,-2.4338,-2.2866,-2.2859,-2.2859,-2.2859,-2.3474,-2.3774,-2.3788,-2.4369,-2.4636,-2.0856,-2.1971,-2.2827,-2.2598,-2.4687,-2.6658,-2.6424,-2.7521,-2.8737,-2.8865,-2.8865,-2.8884,0.0,-2.8957,-2.9204,-2.9477,-2.9587,0.0,-3.0772,-3.0397,-2.9848,-2.9516,0.0,0.0,0.0,0.0,0.0,0.0,0.0,0.0,0.0,0.0,0.0,-2.9298,-2.9298,-2.9298,-2.9298,-2.9298,-3.0006,-3.1418,-3.1418,-3.2123,-3.3669,-3.3669,-3.3669,0.0,0.0,0.0,-3.3817,-3.3817,-3.3817,-3.3817,-3.3817,-3.3817,-3.3817,-3.3817,-3.3817,-3.3817,-3.3817,-3.3817,-3.3817,-3.3817,-3.3817,-3.3817,-3.3817,-3.3817,-3.3817,-3.3817,-3.3817,-3.3817,-3.3817,-3.3569,-3.3303,-3.3239,-3.2955,-3.267,-3.2329,-3.2189,-3.1961,-3.182,-3.1669,-3.1561,-3.1561,-3.1377,-3.1202,-3.1202,-3.0879,-3.0705,-3.0705,-3.0705,-3.0316,-2.9134,-2.874,-2.8089,-2.6926,-2.5607,-2.5231,-2.6476,-2.6509,-2.5943,-2.4817,-2.4681,-2.4165,-2.2999,-2.2999,-2.2999,-2.3006,-2.3561,-2.3834,-2.3848,-2.4389,-2.4636,-2.0976,-2.2716,-2.4324,-2.4579,-2.5071,-2.5806,-2.728,-2.7539,-2.7418,0.0,0.0,0.0,0.0,-2.8742,-2.9486,0.0,0.0,-3.0103,0.0,0.0,-2.9164,0.0,0.0,0.0,0.0,0.0,0.0,0.0,0.0,0.0,0.0,0.0,0.0,-2.9298,-2.9298,-2.9298,-2.9298,-2.9298,-2.9712,-3.0543,-3.0543,-3.1401,-3.2815,-3.2815,-3.3242,0.0,0.0,-3.3817,-3.3817,-3.3817,-3.3817,-3.3817,-3.3817,-3.3817,-3.3817,-3.3817,-3.3817,-3.3817,-3.3817,-3.3817,-3.3817,-3.3817,-3.3817,-3.3817,-3.3817,-3.3817,-3.3817,-3.3817,-3.3817,-3.3817,-3.3817,-3.3771,-3.3633,-3.3303,-3.3175,-3.2612,-3.0998,-3.1577,-3.2086,-3.0842,-3.1622,-3.2414,-3.2414,-3.1167,-3.0134,-3.0134,-2.8784,-2.7776,-2.7776,-2.7776,-2.7643,-2.7511,-2.6329,-2.5652,-2.5655,-2.4337,-2.3773,-2.4307,-2.3825,-2.3516,-2.3518,-2.3525,-2.3654,-2.3627,-2.3634,-2.3634,-2.3634,-2.3975,-2.4142,-2.4148,-2.4482,-2.4636,-2.2104,-2.3223,-2.4216,-2.4964,-2.5578,-2.6311,-2.6796,-2.7047,-2.7116,-2.7678,0.0,0.0,0.0,0.0,-2.8782,-2.8916,0.0,-2.9622,0.0,0.0,0.0,0.0,0.0,0.0,0.0,0.0,0.0,0.0,0.0,0.0,0.0,0.0,0.0,0.0,-2.9298,-2.9298,-2.9298,-2.9298,-2.9712,-3.04,-3.04,-3.1251,-3.2666,-3.2666,-3.3094,-3.3817,0.0,-3.3817,-3.3817,-3.3817,-3.3817,-3.3817,-3.3817,-3.3817,-3.3817,-3.3817,-3.3817,-3.3817,-3.3817,-3.3817,-3.3817,-3.3817,-3.3817,-3.3817,-3.3817,-3.3817,-3.3817,-3.3817,-3.3817,-3.3817,-3.3817,-3.3817,-3.3484,-3.2583,-3.2972,-3.3064,-3.1306,-3.1391,-3.1524,-3.0823,-3.1077,-3.1343,-3.1343,-3.1336,-3.1078,-3.0255,-2.9421,-2.8497,-2.7693,-2.7557,-2.7285,-2.6466,-2.5925,-2.5178,-2.4645,-2.3977,-2.3627,-2.3761,-2.3507,-2.342,-2.3561,-2.3567,-2.3627,-2.3768,-2.3774,-2.3774,-2.3774,-2.4062,-2.4202,-2.4209,-2.4502,-2.4636,-2.323,-2.3788,-2.423,-2.4983,-2.5905,-2.6466,-2.6305,-2.6452,-2.6806,-2.7416,-2.7492,0.0,0.0,-2.8001,0.0,-2.894,0.0,0.0,0.0,0.0,0.0,0.0,0.0,0.0,0.0,0.0,0.0,0.0,0.0,0.0,0.0,0.0,0.0,0.0,-2.9298,-2.9298,-2.9298,-2.9298,-2.9577,-3.0124,-3.0124,-3.0977,-3.2395,-3.2395,-3.2963,-3.3817,-3.3817,-3.3817,-3.3817,-3.3817,-3.3817,-3.3817,-3.3817,-3.3817,-3.3817,-3.3817,-3.3817,-3.3826,-3.3917,-3.3954,-3.3972,-3.4064,-3.4101,-3.4101,-3.4101,-3.4101,-3.4073,-3.3982,-3.3954,-3.3927,-3.3835,-3.3817,-3.3521,-3.2368,-3.2945,-3.3381,-3.1798,-3.1565,-3.1514,-3.1088,-3.1124,-3.1054,-3.0635,-3.1265,-3.134,-3.0088,-2.9601,-2.8995,-2.8186,-2.7771,-2.7076,-2.6106,-2.5552,-2.5038,-2.4004,-2.3935,-2.3975,-2.3975,-2.3848,-2.3801,-2.3868,-2.3875,-2.3901,-2.3975,-2.3975,-2.3975,-2.3975,-2.4195,-2.4302,-2.4309,-2.4529,-2.4636,-2.3604,-2.4462,-2.547,-2.5596,-2.5349,-2.5437,-2.638,-2.6088,-2.5951,-2.6931,-2.7132,-2.7111,0.0,-2.7556,-2.8715,0.0,0.0,0.0,0.0,0.0,0.0,0.0,0.0,0.0,0.0,0.0,0.0,0.0,0.0,0.0,0.0,0.0,0.0,0.0,0.0,-2.9298,-2.9298,-2.9298,-2.9298,-2.9441,-2.9441,-3.0148,-3.1709,-3.1709,-3.2403,-3.3817,-3.3817,-3.3817,-3.3817,-3.3817,-3.3817,-3.3817,-3.3817,-3.3817,-3.3817,-3.3817,-3.3817,-3.3862,-3.4229,-3.4358,-3.4422,-3.4816,-3.4944,-3.4944,-3.4944,-3.4944,-3.4862,-3.4468,-3.4358,-3.4275,-3.3908,-3.3817,-3.3807,-3.3669,-3.3669,-3.3381,-3.1798,-3.2639,-3.3197,-3.1755,-3.2595,-3.3143,-3.1712,-3.0144,-2.9075,-2.8935,-2.74,-2.6783,-2.817,-2.7061,-2.6092,-2.5944,-2.4727,-2.4018,-2.4148,-2.4422,-2.4576,-2.4576,-2.4068,-2.3888,-2.4162,-2.4168,-2.4295,-2.4569,-2.4576,-2.4576,-2.4576,-2.4596,-2.4603,-2.4609,-2.4623,-2.4636,-2.4988,-2.5596,-2.5953,-2.5953,-2.5858,-2.5913,-2.6294,-2.6207,-2.6184,-2.6794,-2.6858,-2.6913,-2.7224,0.0,-2.787,0.0,0.0,0.0,0.0,0.0,0.0,0.0,0.0,0.0,0.0,0.0,0.0,0.0,0.0,0.0,0.0,0.0,0.0,0.0,0.0,-2.9298,-2.9298,-2.9298,-2.9298,-2.9298,-2.9712,-3.0559,-3.1568,-3.2114,-3.2824,-3.3817,-3.3817,-3.3817,-3.3817,-3.3817,-3.3817,-3.3817,-3.3817,-3.3817,-3.3817,-3.3817,-3.3972,-3.4202,-3.4348,-3.4578,-3.4825,-3.4981,-3.5027,-3.5027,-3.5027,-3.5027,-3.4999,-3.4834,-3.4798,-3.4348,-3.2817,-3.3094,-3.3381,-3.1367,-3.2368,-3.3381,-3.1798,-3.1939,-3.2228,-3.1649,-3.1939,-3.2219,-3.1649,-3.1677,-3.1582,-3.0584,-2.9042,-2.7821,-2.7417,-2.6143,-2.5146,-2.5146,-2.4586,-2.4356,-2.4462,-2.4576,-2.4636,-2.4636,-2.4429,-2.4356,-2.4469,-2.4476,-2.4523,-2.4636,-2.4636,-2.4636,-2.4636,-2.4636,-2.4636,-2.4636,-2.4636,-2.4636,-2.6008,-2.6231,-2.6311,-2.6311,0.0,0.0,-2.6478,-2.639,-2.6414,-2.6764,-2.693,-2.7286,-2.7916,0.0,0.0,0.0,0.0,0.0,0.0,0.0,0.0,0.0,0.0,0.0,0.0,0.0,0.0,0.0,0.0,0.0,0.0,0.0,0.0,0.0,0.0,-2.9298,-2.9298,-2.9298,-2.9441,-2.972,-3.0417,-3.1127,-3.1568,-3.2395,-3.3094,-3.3817,-3.3817,-3.3817,-3.3817,-3.3817,-3.3817,-3.3817,-3.3817,-3.3817,-3.3826,-3.3954,-3.4174,-3.444,-3.4697,-3.4972,-3.5238,-3.5366,-3.5403,-3.5403,-3.5403,-3.5403,-3.5375,-3.5247,-3.5219,-3.4613,-3.2468,-3.2932,-3.3387,-3.1243,-3.2228,-3.353,-3.2517,-3.2228,-3.2228,-3.2228,-3.2228,-3.2079,-3.1649,-3.2368,-3.2657,-3.1649,-3.0643,-2.979,-2.9083,-2.7795,-2.6357,-2.5499,-2.4924,-2.4636,-2.4636,-2.4636,-2.4636,-2.4636,-2.4636,-2.4636,-2.4636,-2.4636,-2.4636,-2.4636,-2.4636,-2.4636,-2.4636,-2.4636,-2.4636,-2.4636,-2.4636,-2.4636,-2.6152,-2.6406,-2.6676,-2.6676,0.0,0.0,-2.7208,-2.6938,-2.6787,-2.7145,-2.7486,-2.7869,-2.8689,-2.8414,0.0,0.0,0.0,0.0,0.0,0.0,0.0,0.0,0.0,0.0,0.0,0.0,0.0,0.0,0.0,0.0,0.0,0.0,0.0,0.0,0.0,0.0,-2.9298,-2.9298,-2.9712,-3.04,-3.1277,-3.1559,-3.1709,-3.2395,-3.3094,-3.3817,-3.3817,-3.3817,-3.3817,-3.3817,-3.3817,-3.3817,-3.3817,-3.3817,-3.3862,-3.4266,-3.4413,-3.4532,-3.5339,-3.5623,-3.5687,-3.6081,-3.621,-3.621,-3.621,-3.621,-3.6127,-3.5733,-3.5623,-3.523,-3.3188,-3.3544,-3.4312,-3.3917,-3.3826,-3.3817,-3.3817,-3.3817,-3.3817,-3.3817,-3.3817,-3.3372,-3.1798,-3.1508,-3.1508,-3.1508,-3.1508,-3.2079,-3.3521,-3.2368,-3.0217,-2.7223,-2.5499,-2.4636,-2.4636,-2.4636,-2.4636,-2.4636,-2.4636,-2.4636,-2.4636,-2.4636,-2.4636,-2.4636,-2.4636,-2.4636,-2.4636,-2.4636,-2.4636,-2.4636,-2.4636,-2.4636,-2.6891,-2.6962,0.0,-2.7042,0.0,0.0,0.0,-2.7494,0.0,0.0,-2.782,-2.7884,-2.8646,-2.8467,0.0,0.0,0.0,0.0,0.0,0.0,0.0,0.0,0.0,0.0,0.0,0.0,0.0,0.0,0.0,0.0,0.0,0.0,0.0,0.0,0.0,0.0,-2.9298,-2.9855,-3.0124,-3.04,-3.1683,-3.2395,-3.2395,-3.3103,-3.353,-3.3817,-3.3817,-3.3817,-3.3817,-3.3817,-3.3817,-3.3844,-3.4119,-3.4229,-3.4275,-3.4688,-3.5018,-3.5293,-3.5531,-3.5806,-3.6054,-3.6173,-3.621,-3.621,-3.621,-3.621,-3.6182,-3.6072,-3.6026,-3.5787,-3.4938,-3.5048,-3.4857,-3.3427,-3.3705,-3.4229,-3.4229,-3.4009,-3.3817,-3.3817,-3.3817,-3.3669,-3.3233,-3.3094,-3.3094,-3.3094,-3.2228,-3.0935,-2.9234,-2.765,-2.6357,-2.5359,-2.4924,-2.4636,-2.4636,-2.4636,-2.4636,-2.4636,-2.4636,-2.4636,-2.4636,-2.4636,-2.4636,-2.4636,-2.4636,-2.4636,-2.4636,-2.4636,-2.4636,-2.4636,-2.4636,-2.4636,-2.6115,-2.6525,0.0,-2.683,-2.713,-2.7542,-2.8027,0.0,0.0,0.0,-2.8178,-2.8273,-2.8694,-2.8702,0.0,0.0,0.0,0.0,0.0,0.0,0.0,0.0,0.0,0.0,0.0,0.0,0.0,0.0,0.0,0.0,0.0,0.0,0.0,0.0,0.0,0.0,-3.0148,-3.0409,-3.0685,-3.1251,-3.2246,-3.2815,-3.3094,-3.3669,-3.3817,-3.3817,-3.3817,-3.3899,-3.4046,-3.4046,-3.4147,-3.4321,-3.4559,-3.4651,-3.4697,-3.5109,-3.5412,-3.5641,-3.5797,-3.6008,-3.621,-3.621,-3.621,-3.621,-3.621,-3.621,-3.621,-3.621,-3.621,-3.6155,-3.5916,-3.5852,-3.5412,-3.3961,-3.4091,-3.4651,-3.4651,-3.4468,-3.4248,-3.4082,-3.4046,-3.4,-3.3844,-3.3817,-3.3817,-3.3817,-3.2945,-3.1798,-2.9949,-2.7795,-2.6495,-2.6495,-2.5352,-2.4636,-2.4636,-2.4636,-2.4636,-2.4636,-2.4636,-2.4636,-2.4636,-2.4636,-2.4636,-2.4636,-2.4636,-2.4636,-2.4636,-2.4636,-2.4636,-2.4636,-2.4784,-2.4784,-2.4839,0.0,0.0,-2.6436,-2.7106,0.0,-2.8622,-2.8535,-2.8321,-2.8321,0.0,-2.8773,-2.8813,0.0,0.0,0.0,0.0,0.0,0.0,0.0,0.0,0.0,0.0,0.0,0.0,0.0,0.0,0.0,0.0,0.0,0.0,0.0,0.0,0.0,0.0,0.0,-3.1568,-3.1019,-3.1302,0.0,-3.2904,-3.3202,-3.3927,-3.3881,-3.389,-3.3927,-3.3927,-3.4128,-3.4458,-3.4458,-3.4688,-3.5036,-3.5073,-3.5082,-3.5128,-3.5531,-3.5669,-3.5724,-3.6081,-3.621,-3.621,-3.621,-3.621,-3.621,-3.621,-3.621,-3.621,-3.621,-3.621,-3.621,-3.621,-3.621,-3.6026,-3.5311,-3.5109,-3.5082,-3.5082,-3.5054,-3.4917,-3.4532,-3.4458,-3.4348,-3.3991,-3.3927,-3.3908,-3.3872,-3.3696,-3.353,-3.353,-3.1076,-2.9202,-2.9202,-2.6641,-2.4924,-2.4777,-2.4777,-2.4777,-2.4636,-2.4636,-2.4636,-2.4636,-2.4636,-2.4636,-2.4636,-2.4636,-2.4636,-2.4636,-2.4636,-2.4636,-2.4636,-2.5085,-2.5226,-2.7375,-2.7403,0.0,0.0,-2.819,-2.8583,-2.8734,-2.8924,-2.9067,-2.9067,-2.8908,-2.8853,0.0,0.0,0.0,0.0,0.0,0.0,0.0,0.0,0.0,0.0,0.0,0.0,0.0,0.0,0.0,0.0,0.0,0.0,0.0,0.0,0.0,0.0,0.0,-3.1277,-3.1568,-3.2277,-3.2861,0.0,-3.4036,-3.4627,-3.4752,-3.4422,-3.4458,-3.477,-3.477,-3.4816,-3.4899,-3.4899,-3.4944,-3.5064,-3.5375,-3.5495,-3.554,-3.5935,-3.6081,-3.6091,-3.6173,-3.621,-3.621,-3.621,-3.621,-3.621,-3.621,-3.621,-3.621,-3.621,-3.621,-3.621,-3.621,-3.621,-3.6164,-3.599,-3.5715,-3.5495,-3.5495,-3.5247,-3.4999,-3.4917,-3.4899,-3.4871,-3.4779,-3.477,-3.4651,-3.433,-3.2993,-3.1939,-3.1939,-3.0359,-2.9202,-2.9202,-2.8637,-2.7787,-2.651,-2.6364,-2.5932,-2.4636,-2.4636,-2.4636,-2.4636,-2.4636,-2.4636,-2.4636,-2.4636,-2.4636,-2.4636,-2.4931,-2.5085,-2.5085,-2.5513,-2.5653,0.0,0.0,0.0,-2.84,0.0,-2.902,-2.902,-2.9163,-2.9298,-2.9298,0.0,0.0,0.0,0.0,0.0,0.0,0.0,0.0,0.0,0.0,0.0,0.0,0.0,0.0,0.0,0.0,0.0,0.0,0.0,0.0,0.0,0.0,0.0,0.0,-3.2299,-3.2537,-3.3251,-3.3446,-3.3696,-3.4135,-3.4783,-3.5128,-3.5302,-3.4889,-3.4825,-3.5027,-3.5027,-3.5137,-3.5311,-3.5311,-3.5421,-3.5614,-3.5825,-3.5907,-3.5925,-3.6127,-3.621,-3.621,-3.621,-3.621,-3.621,-3.621,-3.621,-3.621,-3.621,-3.621,-3.621,-3.621,-3.621,-3.621,-3.621,-3.621,-3.621,-3.621,-3.6054,-3.5907,-3.5907,-3.5733,-3.554,-3.5348,-3.5311,-3.5247,-3.5064,-3.5027,-3.4954,-3.4733,-3.3785,-3.3225,-3.3225,-3.176,-3.0879,-3.0879,-3.0147,-2.9356,-2.8336,-2.7598,-2.6815,-2.58,-2.5072,-2.4636,-2.4636,-2.4636,-2.4636,-2.4636,-2.4636,-2.4636,-2.4931,-2.5085,-2.5226,-2.5513,-2.5946,-2.6093,0.0,0.0,0.0,0.0,0.0,0.0,-2.9298,-2.9298,-2.9298,0.0,0.0,0.0,0.0,0.0,0.0,0.0,0.0,0.0,0.0,0.0,0.0,0.0,0.0,0.0,0.0,0.0,0.0,0.0,0.0,0.0,0.0,0.0,-3.2074,-3.3518,-3.3261,-3.3727,-3.5036,-3.4505,-3.4532,-3.5128,-3.5201,-3.5403,-3.5705,-3.5385,-3.5238,-3.5238,-3.5238,-3.5421,-3.5724,-3.5724,-3.5916,-3.621,-3.621,-3.621,-3.621,-3.621,-3.621,-3.621,-3.621,-3.621,-3.621,-3.621,-3.621,-3.621,-3.621,-3.621,-3.621,-3.621,-3.621,-3.621,-3.621,-3.621,-3.621,-3.621,-3.621,-3.621,-3.621,-3.621,-3.6109,-3.5788,-3.5724,-3.5623,-3.5284,-3.5174,-3.5128,-3.5128,-3.5073,-3.5027,-3.5027,-3.3836,-3.3093,-3.3093,-3.1898,-3.0885,-3.03,-2.8811,-2.7652,-2.7042,-2.5582,-2.469,-2.4636,-2.4636,-2.4636,-2.4636,-2.4636,-2.4931,-2.5233,-2.538,-2.552,-2.5946,-2.6392,-2.6546,0.0,0.0,0.0,0.0,0.0,0.0,0.0,0.0,0.0,0.0,0.0,0.0,0.0,0.0,0.0,0.0,0.0,0.0,0.0,0.0,0.0,0.0,0.0,0.0,0.0,0.0,0.0,0.0,0.0,0.0,0.0,-3.345,-3.3919,-3.4801,-3.4712,-3.4739,-3.5027,-3.5221,-3.5394,-3.554,-3.5889,-3.6081,-3.6127,-3.6072,-3.6054,-3.6054,-3.6054,-3.6081,-3.6127,-3.6127,-3.6155,-3.621,-3.621,-3.621,-3.621,-3.621,-3.621,-3.621,-3.621,-3.621,-3.621,-3.621,-3.621,-3.621,-3.621,-3.621,-3.621,-3.621,-3.621,-3.621,-3.621,-3.621,-3.621,-3.621,-3.621,-3.621,-3.621,-3.621,-3.6191,-3.6136,-3.6127,-3.6109,-3.6054,-3.577,-3.554,-3.554,-3.5247,-3.5027,-3.5027,-3.4883,-3.473,-3.473,-3.4577,-3.381,-3.2424,-3.0794,-2.9174,-2.7511,-2.5894,-2.4903,-2.4649,-2.4636,-2.4636,-2.4636,-2.4938,-2.5085,-2.5233,-2.596,-2.6246,-2.6392,-2.6692,-2.6991,-2.925,0.0,0.0,0.0,0.0,0.0,0.0,0.0,0.0,0.0,0.0,0.0,0.0,0.0,0.0,0.0,0.0,0.0,0.0,0.0,0.0,0.0,0.0,0.0,0.0,0.0,0.0,0.0,0.0,0.0,-3.3836,-3.4049,-3.4612,-3.5357,-3.5577,-3.5687,-3.5687,-3.5861,-3.5953,-3.5953,-3.6127,-3.621,-3.621,-3.621,-3.621,-3.621,-3.621,-3.621,-3.621,-3.621,-3.621,-3.621,-3.621,-3.621,-3.621,-3.621,-3.621,-3.621,-3.621,-3.621,-3.621,-3.621,-3.621,-3.621,-3.621,-3.621,-3.621,-3.621,-3.621,-3.621,-3.621,-3.621,-3.621,-3.621,-3.621,-3.621,-3.621,-3.621,-3.621,-3.621,-3.621,-3.621,-3.621,-3.6063,-3.5953,-3.5953,-3.5806,-3.5687,-3.5687,-3.5687,-3.5687,-3.5687,-3.5687,-3.5294,-3.4475,-3.2955,-3.1597,-3.0502,-2.7955,-2.6326,-2.6193,-2.5153,-2.4784,-2.4938,-2.5085,-2.5373,-2.5513,-2.61,-2.6538,-2.6692,-2.6991,-2.6991,0.0,0.0,0.0,0.0,0.0,0.0,0.0,0.0,0.0,0.0,0.0,0.0,0.0,0.0,0.0,0.0,0.0,0.0,0.0,0.0,0.0,0.0,0.0,0.0,0.0,0.0,0.0,0.0,0.0,0.0,-3.443,-3.4707,-3.5163,-3.577,-3.6054,-3.621,-3.621,-3.621,-3.621,-3.621,-3.621,-3.621,-3.621,-3.621,-3.621,-3.621,-3.621,-3.621,-3.621,-3.621,-3.621,-3.621,-3.621,-3.621,-3.621,-3.621,-3.621,-3.621,-3.621,-3.621,-3.621,-3.621,-3.621,-3.621,-3.621,-3.621,-3.621,-3.621,-3.621,-3.621,-3.621,-3.621,-3.621,-3.621,-3.621,-3.621,-3.621,-3.621,-3.621,-3.621,-3.621,-3.621,-3.621,-3.621,-3.621,-3.621,-3.621,-3.621,-3.621,-3.621,-3.621,-3.621,-3.621,-3.6091,-3.5797,-3.425,-3.3326,-3.2809,-2.9556,-2.7732,-2.7563,-2.5734,-2.4864,-2.5233,-2.5226,-2.5513,-2.5946,-2.6392,-2.6692,-2.6991,-2.6991,-2.6991,0.0,0.0,0.0,0.0,0.0,0.0,0.0,0.0,0.0,0.0,0.0,0.0,0.0,0.0,0.0,0.0,0.0,0.0,0.0,0.0,0.0,0.0,0.0,0.0,0.0,0.0,0.0,0.0,0.0,0.0,-3.597,-3.6164,-3.6173,-3.6173,-3.6201,-3.621,-3.621,-3.621,-3.621,-3.621,-3.621,-3.621,-3.621,-3.621,-3.621,-3.621,-3.621,-3.621,-3.621,-3.621,-3.621,-3.621,-3.621,-3.621,-3.621,-3.621,-3.621,-3.621,-3.621,-3.621,-3.621,-3.621,-3.621,-3.621,-3.621,-3.621,-3.621,-3.621,-3.621,-3.621,-3.621,-3.621,-3.621,-3.621,-3.621,-3.621,-3.621,-3.621,-3.621,-3.621,-3.621,-3.621,-3.621,-3.621,-3.621,-3.621,-3.621,-3.621,-3.621,-3.621,-3.621,-3.621,-3.621,-3.6201,-3.6182,-3.4654,-3.3571,-3.3334,-3.0132,-2.8044,-2.7578,-2.5942,-2.5079,-2.5239,-2.5513,-2.5946,-2.6392,-2.6838,-2.6991,-2.6991,-2.6991,-2.6991,0.0,0.0,0.0,0.0,0.0,0.0,0.0,0.0,0.0,0.0,0.0,0.0,0.0,0.0,0.0,0.0,0.0,0.0,0.0,0.0,0.0,0.0,0.0,0.0,0.0,0.0,0.0,0.0,0.0,0.0,-3.6201,-3.621,-3.621,-3.621,-3.621,-3.621,-3.621,-3.621,-3.621,-3.621,-3.621,-3.621,-3.621,-3.621,-3.621,-3.621,-3.621,-3.621,-3.621,-3.621,-3.621,-3.621,-3.621,-3.621,-3.621,-3.621,-3.621,-3.621,-3.621,-3.621,-3.621,-3.621,-3.621,-3.621,-3.621,-3.621,-3.621,-3.621,-3.621,-3.621,-3.621,-3.621,-3.621,-3.621,-3.621,-3.621,-3.621,-3.621,-3.621,-3.621,-3.621,-3.621,-3.621,-3.621,-3.621,-3.621,-3.621,-3.621,-3.621,-3.621,-3.621,-3.621,-3.621,-3.621,-3.621,-3.5596,-3.5226,-3.5231,-3.2867,-3.0868,-2.9353,-2.7822,-2.6552,-2.5667,-2.5946,-2.6246,-2.6392,-2.6838,-2.6991,-2.6991,-2.6991,-2.6991,-2.9298,0.0,0.0,0.0,0.0,0.0,0.0,0.0,0.0,0.0,0.0,0.0,0.0,0.0,0.0,0.0,0.0,0.0,0.0,0.0,0.0,0.0,0.0,0.0,0.0,0.0,0.0,0.0,0.0,0.0,-3.5815,-3.5815,-3.5815,-3.5815,-3.5944,-3.6008,-3.6008,-3.6146,-3.621,-3.621,-3.621,-3.621,-3.621,-3.621,-3.621,-3.621,-3.621,-3.621,-3.621,-3.621,-3.621,-3.621,-3.621,-3.621,-3.621,-3.621,-3.621,-3.621,-3.621,-3.621,-3.621,-3.621,-3.621,-3.621,-3.621,-3.621,-3.621,-3.621,-3.621,-3.621,-3.621,-3.621,-3.621,-3.621,-3.621,-3.621,-3.621,-3.621,-3.621,-3.621,-3.621,-3.621,-3.621,-3.621,-3.621,-3.621,-3.621,-3.621,-3.621,-3.621,-3.621,-3.621,-3.621,-3.621,-3.621,-3.621,-3.621,-3.621,-3.4434,-3.2557,-3.0735,-2.9026,-2.7541,-2.61,-2.6246,-2.6538,-2.6546,-2.6838,-2.6991,-2.6991,-2.6991,-2.6991,0.0,0.0,0.0,0.0,0.0,0.0,0.0,0.0,0.0,0.0,0.0,0.0,0.0,0.0,0.0,0.0,0.0,0.0,0.0,0.0,0.0,0.0,0.0,0.0,0.0,0.0,0.0,0.0,0.0,-3.5027,-3.5027,-3.5027,-3.5027,-3.5027,-3.5403,-3.5605,-3.5605,-3.5981,-3.6182,-3.6191,-3.6191,-3.6201,-3.621,-3.621,-3.621,-3.621,-3.621,-3.621,-3.621,-3.621,-3.621,-3.621,-3.621,-3.621,-3.621,-3.621,-3.621,-3.621,-3.621,-3.621,-3.621,-3.621,-3.621,-3.621,-3.621,-3.621,-3.621,-3.621,-3.621,-3.621,-3.621,-3.621,-3.621,-3.621,-3.621,-3.621,-3.621,-3.621,-3.621,-3.621,-3.621,-3.621,-3.621,-3.621,-3.621,-3.621,-3.621,-3.621,-3.621,-3.621,-3.621,-3.621,-3.621,-3.621,-3.621,-3.621,-3.621,-3.621,-3.468,-3.2976,-3.1203,-2.9555,-2.791,-2.6553,-2.6392,-2.6546,-2.6991,-2.6991,-2.6991,-2.6991,-2.6991,-2.6991,-2.9298,0.0,0.0,0.0,0.0,0.0,0.0,0.0,0.0,0.0,0.0,0.0,0.0,0.0,0.0,0.0,0.0,0.0,0.0,0.0,0.0,0.0,0.0,0.0,0.0,0.0,0.0,0.0,-3.5027,-3.5027,-3.5027,-3.5027,-3.5027,-3.5027,-3.5137,-3.5192,-3.5192,-3.5302,-3.5504,-3.5779,-3.5779,-3.5925,-3.621,-3.621,-3.621,-3.621,-3.621,-3.621,-3.621,-3.621,-3.621,-3.621,-3.621,-3.621,-3.621,-3.621,-3.621,-3.621,-3.621,-3.621,-3.621,-3.621,-3.621,-3.621,-3.621,-3.621,-3.621,-3.621,-3.621,-3.621,-3.621,-3.621,-3.621,-3.621,-3.621,-3.621,-3.621,-3.621,-3.621,-3.621,-3.621,-3.621,-3.621,-3.621,-3.621,-3.621,-3.621,-3.621,-3.621,-3.621,-3.621,-3.621,-3.621,-3.621,-3.621,-3.621,-3.621,-3.621,-3.5745,-3.4486,-3.238,-3.1334,-2.9826,-2.7688,-2.7122,-2.6845,-2.6991,-2.6991,-2.6991,-2.6991,-2.6991,-2.6991,-2.9298,-2.9298,-2.9298,-2.9298,0.0,0.0,0.0,-2.621,0.0,0.0,0.0,0.0,0.0,0.0,0.0,0.0,0.0,0.0,0.0,0.0,0.0,0.0,0.0,0.0,0.0,0.0,0.0,0.0,-3.4523,-3.4523,-3.4523,-3.4523,-3.4523,-3.4523,-3.4678,-3.477,-3.477,-3.4944,-3.5146,-3.5375,-3.5375,-3.5577,-3.5962,-3.5962,-3.6054,-3.621,-3.621,-3.621,-3.621,-3.621,-3.621,-3.621,-3.621,-3.621,-3.621,-3.621,-3.621,-3.621,-3.621,-3.621,-3.621,-3.621,-3.621,-3.621,-3.621,-3.621,-3.621,-3.621,-3.621,-3.621,-3.621,-3.621,-3.621,-3.621,-3.621,-3.621,-3.621,-3.621,-3.621,-3.621,-3.621,-3.621,-3.621,-3.621,-3.621,-3.621,-3.621,-3.621,-3.621,-3.621,-3.621,-3.621,-3.621,-3.621,-3.621,-3.621,-3.621,-3.621,-3.621,-3.5244,-3.3273,-3.2818,-3.1289,-2.8547,-2.8114,-2.755,-2.6991,-2.6991,-2.6991,-2.6991,-2.6991,-2.6991,-2.9298,-2.9298,-2.9298,-2.9298,-2.9298,0.0,-2.6787,-2.6342,0.0,0.0,0.0,0.0,0.0,0.0,0.0,0.0,0.0,0.0,0.0,0.0,0.0,0.0,0.0,0.0,0.0,0.0,-3.3817,-3.3817,-3.3817,-3.3817,-3.3817,-3.3817,-3.3817,-3.3817,-3.4156,-3.4339,-3.4339,-3.4706,-3.4917,-3.4963,-3.4963,-3.5174,-3.555,-3.555,-3.577,-3.6146,-3.6146,-3.6164,-3.621,-3.621,-3.621,-3.621,-3.621,-3.621,-3.621,-3.621,-3.621,-3.621,-3.621,-3.621,-3.621,-3.621,-3.621,-3.621,-3.621,-3.621,-3.621,-3.621,-3.621,-3.621,-3.621,-3.621,-3.621,-3.621,-3.621,-3.621,-3.621,-3.621,-3.621,-3.621,-3.621,-3.621,-3.621,-3.621,-3.621,-3.621,-3.621,-3.621,-3.621,-3.621,-3.621,-3.621,-3.621,-3.621,-3.621,-3.621,-3.621,-3.621,-3.621,-3.5548,-3.4171,-3.3845,-3.2304,-2.9393,-2.9099,-2.8259,-2.6991,-2.6991,-2.6991,-2.6991,-2.6991,-2.6991,-2.9298,-2.9298,-2.9298,-2.9298,-2.9298,0.0,-2.9544,-2.9528,-2.9457,0.0,0.0,0.0,0.0,0.0,0.0,0.0,0.0,0.0,0.0,0.0,0.0,0.0,0.0,0.0,0.0,0.0,-3.3817,-3.3817,-3.3817,-3.3817,-3.3817,-3.3817,-3.3817,-3.3817,-3.389,-3.3927,-3.3927,-3.4009,-3.4211,-3.4523,-3.4523,-3.4743,-3.5146,-3.5146,-3.5366,-3.5733,-3.5733,-3.5916,-3.621,-3.621,-3.621,-3.621,-3.621,-3.621,-3.621,-3.621,-3.621,-3.621,-3.621,-3.621,-3.621,-3.621,-3.621,-3.621,-3.621,-3.621,-3.621,-3.621,-3.621,-3.621,-3.621,-3.621,-3.621,-3.621,-3.621,-3.621,-3.621,-3.621,-3.621,-3.621,-3.621,-3.621,-3.621,-3.621,-3.621,-3.621,-3.621,-3.621,-3.621,-3.621,-3.621,-3.621,-3.621,-3.621,-3.621,-3.621,-3.621,-3.621,-3.621,-3.5852,-3.5351,-3.3264,-3.158,-3.0534,-2.8547,-2.7274,-2.6991,-2.6991,-2.6991,-2.6991,-2.6991,-2.6991,-2.9298,-2.9298,-2.9298,-2.9298,-2.9298,0.0,0.0,-2.9528,-2.9625,0.0,0.0,0.0,0.0,0.0,0.0,0.0,0.0,0.0,0.0,0.0,0.0,0.0,0.0,0.0,0.0,0.0,-3.2945,-3.3678,-3.3817,-3.3817,-3.3817,-3.3817,-3.3817,-3.3817,-3.3817,-3.3817,-3.3817,-3.3817,-3.3917,-3.411,-3.411,-3.4321,-3.4715,-3.4715,-3.4935,-3.5339,-3.5531,-3.5733,-3.5925,-3.6127,-3.621,-3.621,-3.621,-3.621,-3.621,-3.621,-3.621,-3.621,-3.621,-3.621,-3.621,-3.621,-3.621,-3.621,-3.621,-3.621,-3.621,-3.621,-3.621,-3.621,-3.621,-3.621,-3.621,-3.621,-3.621,-3.621,-3.621,-3.621,-3.621,-3.621,-3.621,-3.621,-3.621,-3.621,-3.621,-3.621,-3.621,-3.621,-3.621,-3.621,-3.621,-3.621,-3.621,-3.621,-3.621,-3.621,-3.6358,-3.6507,-3.6507,-3.599,-3.5036,-3.3819,-3.2142,-3.0107,-2.7977,-2.6991,-2.6991,-2.6991,-2.6991,-2.6991,-2.6991,-2.6991,-2.9298,-2.9298,-2.9298,-2.9298,-2.9298,-2.9282,0.0,0.0,0.0,0.0,0.0,0.0,0.0,0.0,0.0,0.0,0.0,0.0,0.0,0.0,0.0,0.0,0.0,0.0,0.0,0.0,-3.2079,-3.3233,-3.3669,-3.3817,-3.3817,-3.3817,-3.3817,-3.3817,-3.3817,-3.3817,-3.3817,-3.3817,-3.3817,-3.3817,-3.3817,-3.3982,-3.4284,-3.4284,-3.4513,-3.4926,-3.5247,-3.543,-3.554,-3.5925,-3.6091,-3.61,-3.6173,-3.621,-3.621,-3.621,-3.621,-3.621,-3.621,-3.621,-3.621,-3.621,-3.621,-3.621,-3.621,-3.621,-3.621,-3.621,-3.621,-3.621,-3.621,-3.621,-3.621,-3.621,-3.621,-3.621,-3.621,-3.621,-3.621,-3.621,-3.621,-3.621,-3.621,-3.621,-3.621,-3.621,-3.621,-3.621,-3.621,-3.621,-3.621,-3.621,-3.621,-3.621,-3.6358,-3.6358,-3.6507,-3.696,-3.658,-3.5751,-3.4559,-3.3803,-3.1981,-2.8835,-2.7558,-2.6991,-2.6991,-2.6991,-2.6991,-2.6991,-2.6991,-2.6991,-2.9298,-2.9298,-2.9298,-2.9298,-2.9298,-2.9433,-3.0124,0.0,-3.1614,-3.3038,0.0,0.0,0.0,0.0,0.0,0.0,0.0,0.0,0.0,0.0,0.0,0.0,0.0,0.0,0.0,0.0,0.0,-3.1789,-3.3094,-3.3817,-3.3817,-3.3817,-3.3817,-3.3817,-3.3817,-3.3817,-3.3817,-3.3817,-3.3817,-3.3817,-3.3817,-3.3835,-3.3881,-3.3881,-3.4101,-3.4477,-3.4523,-3.4752,-3.5128,-3.5522,-3.5687,-3.5724,-3.6072,-3.621,-3.621,-3.621,-3.621,-3.621,-3.621,-3.621,-3.621,-3.621,-3.621,-3.621,-3.621,-3.621,-3.621,-3.621,-3.621,-3.621,-3.621,-3.621,-3.621,-3.621,-3.621,-3.621,-3.621,-3.621,-3.621,-3.621,-3.621,-3.621,-3.621,-3.621,-3.621,-3.621,-3.621,-3.621,-3.621,-3.621,-3.621,-3.621,-3.621,-3.6358,-3.6664,-3.6655,-3.696,-3.7264,-3.5714,-3.4719,-3.455,-3.1414,-2.9042,-2.7274,-2.7136,-2.6991,-2.6991,-2.6991,-2.6991,-2.6991,-2.6991,-2.6991,-2.9298,-2.9298,-2.9298,-2.9298,-2.9298,-2.9433,-3.0266,-3.0693,-3.148,-3.3541,0.0,0.0,0.0,0.0,0.0,0.0,-3.287,0.0,0.0,0.0,0.0,0.0,0.0,0.0,0.0,0.0,0.0,0.0,0.0,-3.2079,-3.1217,-3.1076,-3.1508,-3.2368,-3.2517,-3.2945,-3.3807,-3.3817,-3.3817,-3.3817,-3.3817,-3.3817,-3.3817,-3.3817,-3.3899,-3.4073,-3.4303,-3.4504,-3.4697,-3.5109,-3.5412,-3.5632,-3.5806,-3.6008,-3.621,-3.621,-3.621,-3.621,-3.621,-3.621,-3.621,-3.621,-3.621,-3.621,-3.621,-3.621,-3.621,-3.621,-3.621,-3.621,-3.621,-3.621,-3.621,-3.621,-3.621,-3.621,-3.621,-3.621,-3.621,-3.621,-3.621,-3.621,-3.621,-3.621,-3.621,-3.621,-3.621,-3.621,-3.621,-3.6358,-3.6516,-3.6516,-3.6812,-3.696,-3.7107,-3.7117,-3.695,-3.634,-3.3657,-3.2074,-3.2061,-2.9478,-2.7695,-2.6991,-2.6991,-2.6991,-2.6991,-2.6991,-2.6991,-2.6991,-2.6991,-2.6991,-2.9298,-2.9298,-2.9298,-2.9298,0.0,0.0,-2.9989,-3.0409,-3.1329,-3.3252,-3.3854,0.0,0.0,0.0,-3.4899,-3.4468,0.0,-3.2553,0.0,0.0,0.0,0.0,0.0,0.0,0.0,0.0,0.0,0.0,-3.0643,0.0,-2.9345,-2.9202,-2.9782,-3.0785,-3.1217,-3.2079,-3.3094,-3.353,-3.3817,-3.3817,-3.3817,-3.3817,-3.3817,-3.3817,-3.3817,-3.3826,-3.4119,-3.4238,-3.4275,-3.4688,-3.5027,-3.5302,-3.5531,-3.5797,-3.6054,-3.6173,-3.621,-3.621,-3.621,-3.621,-3.621,-3.621,-3.621,-3.621,-3.621,-3.621,-3.621,-3.621,-3.621,-3.621,-3.621,-3.621,-3.621,-3.621,-3.621,-3.621,-3.621,-3.621,-3.621,-3.621,-3.621,-3.621,-3.621,-3.621,-3.621,-3.621,-3.621,-3.621,-3.621,-3.6507,-3.6664,-3.6812,-3.7107,-3.7264,-3.7568,-3.7107,-3.6136,-3.4355,-3.1903,-3.0245,-2.9719,-2.7999,-2.7122,-2.7122,-2.7035,-2.6991,-2.6991,-2.6991,-2.6991,-2.6991,-2.6991,-2.6991,0.0,0.0,0.0,-2.9298,0.0,0.0,0.0,0.0,-3.1782,-3.2689,-3.4008,-3.5036,-3.5045,-3.5045,-3.4899,-3.4468,-3.4073,0.0,0.0,0.0,0.0,0.0,0.0,0.0,0.0,0.0,0.0,0.0,-3.0643,0.0,-2.9345,-2.9202,-2.9202,-2.9202,-3.0785,-3.1508,-3.1508,-3.3085,-3.3817,-3.3817,-3.3817,-3.3817,-3.3817,-3.3817,-3.3817,-3.3817,-3.3826,-3.3835,-3.3862,-3.4257,-3.4431,-3.4523,-3.5311,-3.5623,-3.5687,-3.6072,-3.621,-3.621,-3.621,-3.621,-3.621,-3.621,-3.621,-3.621,-3.621,-3.621,-3.621,-3.621,-3.621,-3.621,-3.621,-3.621,-3.621,-3.621,-3.621,-3.621,-3.621,-3.621,-3.621,-3.621,-3.621,-3.621,-3.621,-3.621,-3.621,-3.621,-3.621,-3.621,-3.621,-3.621,-3.6358,-3.6812,-3.6812,-3.7107,-3.7862,-3.6479,-3.4346,-3.1141,-3.0807,-2.9903,-2.8107,-2.7634,-2.7459,-2.7459,-2.7152,-2.6991,-2.6991,-2.6991,-2.6991,-2.6991,-2.6991,-2.6991,0.0,0.0,-2.9298,-2.9298,0.0,0.0,0.0,0.0,0.0,-3.2544,-3.3371,-3.4135,-3.4837,-3.4798,-3.4486,-3.4082,-3.3899,-3.3862,0.0,0.0,0.0,0.0,0.0,0.0,0.0,0.0,0.0,-2.9353,-2.9639,-2.9782,0.0,-2.9202,-2.9202,-2.9202,-2.9782,-3.0501,-3.1508,-3.2079,-3.2806,-3.3817,-3.3817,-3.3817,-3.3817,-3.3817,-3.3817,-3.3817,-3.3817,-3.3817,-3.3826,-3.3954,-3.4165,-3.4449,-3.5009,-3.5394,-3.5669,-3.6063,-3.621,-3.621,-3.621,-3.621,-3.621,-3.621,-3.621,-3.621,-3.621,-3.621,-3.621,-3.621,-3.621,-3.621,-3.621,-3.621,-3.621,-3.6507,-3.6358,-3.621,-3.6507,-3.6358,-3.621,-3.621,-3.621,-3.621,-3.621,-3.6358,-3.6507,-3.621,-3.621,-3.621,-3.621,-3.6655,-3.7107,-3.7117,-3.7696,-3.8136,-3.8438,-3.5867,-3.3389,-3.1317,-2.9893,-2.8978,-2.8278,-2.7964,-2.7693,-2.7481,-2.7371,-2.7203,-2.6991,-2.6991,-2.6991,-2.6991,-2.6991,-2.6991,-2.9298,-2.9298,0.0,-2.9298,-2.9298,0.0,-2.9568,0.0,-3.1296,0.0,-3.3312,-3.3928,-3.4618,-3.4587,-3.4275,-3.3881,-3.3817,-3.3817,0.0,-3.3817,0.0,0.0,0.0,0.0,0.0,0.0,-3.0651,-2.8501,-2.8357,-2.8357,0.0,0.0,-2.8637,-2.9202,-2.9782,-3.0501,-3.1508,-3.2079,-3.2806,-3.3817,-3.3817,-3.3817,-3.3817,-3.3817,-3.3817,-3.3817,-3.3817,-3.3817,-3.3817,-3.3817,-3.3963,-3.4238,-3.4651,-3.5054,-3.5476,-3.6008,-3.621,-3.621,-3.621,-3.621,-3.621,-3.621,-3.621,-3.621,-3.621,-3.621,-3.621,-3.621,-3.621,-3.621,-3.621,-3.6358,-3.6507,-3.6812,-3.6655,-3.6507,-3.6812,-3.6507,-3.621,-3.621,-3.6358,-3.6358,-3.6358,-3.6812,-3.6812,-3.6507,-3.6507,-3.6664,-3.6664,-3.7107,-3.7412,-3.7568,-3.8146,-3.798,-3.6913,-3.4345,-3.2233,-3.057,-2.9314,-2.86,-2.86,-2.8293,-2.7971,-2.7649,-2.7539,-2.7313,-2.6991,-2.6991,-2.6991,-2.6991,-2.6991,-2.6991]},{"header":{"parameterUnit":"m.s-1","parameterCategory":1,"la1":30.6,"la2":29.2853,"lo1":-89.7004,"lo2":-87.6739,"dy":0.0162,"dx":0.0183,"nx":112,"ny":82,"refTime":"2023-06-17T00:00:00:Z","depth":0,"parameterNumber":3,"parameterNumberName":"V-component_of_WINDS"},"data":[0.0,0.0,0.0,0.0,0.0,0.0,0.0,0.0,0.0,0.0,0.0,0.0,0.0,0.0,0.0,0.0,0.0,0.0,0.0,0.0,0.0,0.0,0.0,0.0,0.0,0.0,0.0,0.0,0.0,0.0,0.0,0.0,0.0,0.0,0.0,0.0,0.0,0.0,0.0,0.0,0.0,0.0,0.0,0.0,0.0,0.0,0.0,0.0,0.0,0.0,0.0,0.0,0.0,0.0,0.0,0.0,0.0,0.0,0.0,0.0,0.0,0.0,0.0,0.0,0.0,0.0,0.0,0.0,0.0,0.0,0.0,0.0,0.0,0.0,0.0,0.0,0.0,0.0,0.0,0.0,0.0,0.0,0.0,0.0,0.0,0.0,0.0,0.0,0.0,0.0,-4.6122,-4.6245,-4.6663,-4.6782,-4.6269,-4.74,-4.7467,-4.6027,0.0,0.0,0.0,0.0,0.0,0.0,0.0,0.0,0.0,0.0,0.0,0.0,0.0,0.0,0.0,0.0,0.0,0.0,0.0,0.0,0.0,0.0,0.0,0.0,0.0,0.0,0.0,0.0,0.0,0.0,0.0,0.0,0.0,0.0,0.0,0.0,0.0,0.0,0.0,0.0,0.0,0.0,0.0,0.0,0.0,0.0,0.0,0.0,0.0,0.0,0.0,0.0,0.0,0.0,0.0,0.0,0.0,0.0,0.0,0.0,0.0,0.0,0.0,0.0,0.0,0.0,0.0,0.0,0.0,0.0,0.0,0.0,0.0,0.0,0.0,0.0,0.0,0.0,0.0,0.0,0.0,0.0,0.0,0.0,0.0,0.0,0.0,0.0,0.0,0.0,0.0,0.0,0.0,0.0,0.0,0.0,0.0,0.0,0.0,0.0,0.0,0.0,0.0,0.0,-4.5667,-4.6323,-4.6597,-4.6652,-4.6462,-4.7245,-4.7223,-4.6049,0.0,0.0,0.0,0.0,0.0,0.0,0.0,0.0,0.0,0.0,0.0,0.0,0.0,0.0,0.0,0.0,0.0,0.0,0.0,0.0,0.0,0.0,0.0,0.0,0.0,0.0,0.0,0.0,0.0,0.0,0.0,0.0,0.0,0.0,0.0,0.0,0.0,0.0,0.0,0.0,0.0,0.0,0.0,0.0,0.0,0.0,0.0,0.0,0.0,0.0,0.0,0.0,0.0,0.0,0.0,0.0,0.0,0.0,0.0,0.0,0.0,0.0,0.0,0.0,0.0,0.0,0.0,0.0,0.0,0.0,0.0,0.0,0.0,0.0,0.0,0.0,0.0,0.0,0.0,0.0,0.0,0.0,0.0,0.0,0.0,0.0,0.0,0.0,0.0,0.0,0.0,0.0,0.0,0.0,0.0,0.0,0.0,0.0,0.0,0.0,0.0,0.0,0.0,-4.6604,-4.7091,-4.7526,-4.7858,-4.7906,-4.743,-4.836,-4.8367,-4.7002,-4.7631,0.0,0.0,0.0,0.0,0.0,0.0,0.0,0.0,0.0,0.0,0.0,0.0,0.0,0.0,0.0,0.0,0.0,0.0,0.0,0.0,0.0,0.0,0.0,0.0,0.0,0.0,0.0,0.0,0.0,0.0,0.0,0.0,0.0,0.0,0.0,0.0,0.0,0.0,0.0,0.0,0.0,0.0,0.0,0.0,0.0,0.0,0.0,0.0,0.0,0.0,0.0,0.0,0.0,0.0,0.0,0.0,0.0,0.0,0.0,0.0,0.0,0.0,0.0,0.0,0.0,0.0,0.0,0.0,0.0,0.0,0.0,0.0,0.0,0.0,0.0,0.0,0.0,0.0,0.0,0.0,0.0,0.0,0.0,0.0,0.0,0.0,0.0,0.0,0.0,0.0,0.0,0.0,0.0,0.0,0.0,0.0,0.0,0.0,0.0,0.0,0.0,0.0,-4.8119,-4.8714,-4.8731,-4.9164,-4.9219,-4.8766,-4.9697,-4.9622,-4.8184,-4.8666,0.0,0.0,0.0,0.0,0.0,0.0,0.0,0.0,0.0,0.0,0.0,0.0,0.0,0.0,0.0,0.0,0.0,0.0,0.0,0.0,0.0,0.0,0.0,0.0,0.0,0.0,0.0,0.0,0.0,0.0,0.0,0.0,0.0,0.0,0.0,0.0,0.0,0.0,0.0,0.0,0.0,0.0,0.0,0.0,0.0,0.0,0.0,0.0,0.0,0.0,0.0,0.0,0.0,0.0,0.0,0.0,0.0,0.0,0.0,0.0,0.0,0.0,0.0,0.0,0.0,0.0,0.0,0.0,0.0,0.0,0.0,0.0,0.0,0.0,0.0,0.0,0.0,0.0,0.0,0.0,0.0,0.0,0.0,0.0,0.0,0.0,0.0,0.0,0.0,0.0,0.0,0.0,0.0,0.0,0.0,0.0,0.0,0.0,0.0,0.0,0.0,0.0,-4.8713,-4.9521,-4.9521,-4.9701,-5.0007,-5.0573,-5.0697,-5.0279,-4.9274,-4.9266,0.0,0.0,0.0,0.0,0.0,0.0,0.0,0.0,0.0,0.0,0.0,0.0,0.0,0.0,0.0,0.0,0.0,0.0,0.0,0.0,0.0,0.0,0.0,0.0,0.0,0.0,0.0,0.0,0.0,0.0,0.0,0.0,0.0,0.0,0.0,0.0,0.0,0.0,0.0,0.0,0.0,0.0,0.0,0.0,0.0,0.0,0.0,0.0,0.0,0.0,0.0,0.0,0.0,0.0,0.0,0.0,0.0,0.0,0.0,0.0,0.0,0.0,0.0,0.0,0.0,0.0,0.0,0.0,0.0,0.0,0.0,0.0,0.0,0.0,0.0,0.0,0.0,0.0,0.0,0.0,0.0,0.0,0.0,0.0,0.0,0.0,0.0,0.0,0.0,0.0,0.0,0.0,0.0,0.0,0.0,0.0,0.0,0.0,0.0,0.0,0.0,0.0,-4.9641,-5.0471,0.0,-5.0928,-5.0999,-5.1105,-5.1105,-5.0495,-4.9154,0.0,0.0,0.0,0.0,0.0,0.0,0.0,0.0,0.0,0.0,0.0,0.0,0.0,0.0,0.0,0.0,0.0,0.0,0.0,0.0,0.0,0.0,0.0,0.0,0.0,0.0,0.0,0.0,0.0,0.0,0.0,0.0,0.0,0.0,0.0,0.0,0.0,0.0,0.0,0.0,0.0,0.0,0.0,0.0,0.0,0.0,0.0,0.0,0.0,0.0,0.0,0.0,0.0,0.0,0.0,0.0,0.0,0.0,0.0,0.0,0.0,0.0,0.0,0.0,0.0,0.0,0.0,0.0,0.0,0.0,0.0,0.0,0.0,0.0,0.0,0.0,0.0,0.0,0.0,0.0,0.0,0.0,0.0,0.0,0.0,0.0,0.0,0.0,0.0,0.0,0.0,0.0,0.0,0.0,0.0,0.0,0.0,0.0,0.0,0.0,0.0,0.0,-4.9309,-5.0626,-5.1564,0.0,-5.2125,-5.2182,-5.1918,-5.1971,-5.1357,-4.9718,0.0,0.0,0.0,0.0,0.0,0.0,0.0,0.0,0.0,0.0,0.0,0.0,0.0,0.0,0.0,0.0,0.0,0.0,0.0,0.0,0.0,0.0,0.0,0.0,0.0,0.0,0.0,0.0,0.0,0.0,0.0,0.0,0.0,0.0,0.0,0.0,0.0,0.0,0.0,0.0,0.0,0.0,0.0,0.0,0.0,0.0,0.0,0.0,0.0,0.0,0.0,0.0,0.0,0.0,0.0,0.0,0.0,0.0,0.0,0.0,0.0,0.0,0.0,0.0,0.0,0.0,0.0,0.0,0.0,0.0,0.0,0.0,0.0,0.0,0.0,0.0,0.0,0.0,0.0,0.0,0.0,0.0,0.0,0.0,0.0,0.0,0.0,0.0,0.0,0.0,0.0,0.0,0.0,0.0,0.0,0.0,0.0,0.0,0.0,0.0,0.0,0.0,-4.9775,-5.1615,-5.2782,-5.2431,-5.3139,-5.349,-5.3138,-5.3417,-5.2914,0.0,0.0,0.0,0.0,0.0,0.0,0.0,0.0,0.0,0.0,0.0,0.0,0.0,0.0,0.0,0.0,0.0,0.0,0.0,0.0,0.0,0.0,0.0,0.0,0.0,0.0,0.0,0.0,0.0,0.0,0.0,0.0,0.0,0.0,0.0,0.0,0.0,0.0,0.0,0.0,0.0,0.0,0.0,0.0,0.0,0.0,0.0,0.0,0.0,0.0,0.0,0.0,0.0,0.0,0.0,0.0,0.0,0.0,0.0,0.0,0.0,0.0,0.0,0.0,0.0,0.0,0.0,0.0,0.0,0.0,0.0,0.0,0.0,0.0,0.0,0.0,0.0,0.0,0.0,0.0,0.0,0.0,0.0,0.0,0.0,0.0,0.0,0.0,0.0,0.0,0.0,0.0,0.0,0.0,0.0,0.0,0.0,0.0,0.0,0.0,0.0,0.0,0.0,-5.154,-5.2839,-5.3636,-5.3513,-5.3727,-5.3869,-5.3744,-5.3816,-5.3382,-5.2114,0.0,0.0,0.0,0.0,0.0,0.0,0.0,0.0,0.0,0.0,0.0,0.0,0.0,0.0,0.0,0.0,0.0,0.0,0.0,0.0,0.0,0.0,0.0,0.0,0.0,0.0,0.0,0.0,0.0,0.0,0.0,0.0,0.0,0.0,0.0,0.0,0.0,0.0,0.0,0.0,0.0,0.0,0.0,0.0,0.0,0.0,0.0,0.0,0.0,0.0,0.0,0.0,0.0,0.0,0.0,0.0,0.0,0.0,0.0,0.0,0.0,0.0,0.0,0.0,0.0,0.0,0.0,0.0,0.0,0.0,0.0,0.0,0.0,0.0,0.0,0.0,0.0,0.0,0.0,0.0,0.0,0.0,0.0,0.0,0.0,0.0,0.0,0.0,0.0,0.0,0.0,0.0,0.0,0.0,0.0,0.0,0.0,0.0,0.0,0.0,0.0,0.0,-5.1934,-5.3236,-5.4042,-5.3932,-5.4214,-5.4335,-5.4222,-5.4335,-5.3975,-5.3001,0.0,0.0,0.0,0.0,0.0,0.0,0.0,0.0,0.0,0.0,0.0,0.0,0.0,0.0,0.0,0.0,0.0,0.0,0.0,0.0,0.0,0.0,0.0,0.0,0.0,0.0,0.0,0.0,0.0,0.0,0.0,0.0,0.0,0.0,0.0,0.0,0.0,0.0,0.0,0.0,0.0,0.0,0.0,0.0,0.0,0.0,0.0,0.0,0.0,0.0,0.0,0.0,0.0,0.0,0.0,0.0,0.0,0.0,0.0,0.0,0.0,0.0,0.0,0.0,0.0,0.0,0.0,0.0,0.0,0.0,0.0,0.0,0.0,0.0,0.0,0.0,0.0,0.0,0.0,0.0,0.0,0.0,0.0,0.0,0.0,0.0,0.0,0.0,0.0,0.0,0.0,0.0,0.0,0.0,0.0,0.0,0.0,0.0,0.0,0.0,0.0,0.0,-5.1691,-5.3271,-5.4343,-5.4007,-5.4635,-5.493,-5.462,-5.4869,-5.4728,-5.3898,0.0,0.0,0.0,0.0,0.0,0.0,0.0,0.0,0.0,0.0,0.0,0.0,0.0,0.0,0.0,0.0,0.0,0.0,0.0,0.0,0.0,0.0,0.0,0.0,0.0,0.0,0.0,0.0,0.0,0.0,0.0,0.0,0.0,0.0,0.0,0.0,0.0,0.0,0.0,0.0,0.0,0.0,0.0,0.0,0.0,0.0,0.0,0.0,0.0,0.0,0.0,0.0,0.0,0.0,0.0,0.0,0.0,0.0,0.0,0.0,-4.8612,0.0,0.0,0.0,0.0,0.0,0.0,0.0,0.0,0.0,0.0,0.0,0.0,0.0,0.0,0.0,0.0,0.0,0.0,0.0,0.0,0.0,0.0,0.0,0.0,0.0,0.0,0.0,0.0,0.0,0.0,0.0,0.0,0.0,0.0,0.0,0.0,0.0,0.0,0.0,0.0,0.0,-5.3847,-5.4931,-5.5557,-5.5424,-5.5426,-5.5472,-5.5572,-5.5455,-5.5277,-5.5156,-5.5035,0.0,0.0,0.0,0.0,0.0,0.0,0.0,0.0,0.0,0.0,0.0,0.0,0.0,0.0,0.0,0.0,0.0,0.0,0.0,0.0,0.0,0.0,0.0,0.0,0.0,0.0,0.0,0.0,0.0,0.0,0.0,0.0,0.0,0.0,0.0,0.0,0.0,0.0,0.0,0.0,0.0,0.0,0.0,0.0,0.0,0.0,0.0,0.0,0.0,0.0,0.0,0.0,0.0,0.0,0.0,0.0,0.0,0.0,0.0,0.0,-4.9611,0.0,0.0,0.0,0.0,0.0,0.0,0.0,0.0,0.0,0.0,0.0,0.0,0.0,0.0,0.0,0.0,0.0,0.0,0.0,0.0,0.0,0.0,0.0,0.0,0.0,0.0,0.0,0.0,0.0,0.0,0.0,0.0,0.0,0.0,0.0,0.0,0.0,0.0,0.0,0.0,-5.4338,-5.5038,-5.5455,-5.5455,-5.5217,-5.5113,-5.5217,-5.5096,-5.4992,-5.4992,-5.4869,0.0,0.0,0.0,0.0,0.0,0.0,0.0,0.0,0.0,0.0,0.0,0.0,0.0,0.0,0.0,0.0,0.0,0.0,0.0,0.0,0.0,0.0,0.0,0.0,0.0,0.0,0.0,0.0,0.0,0.0,0.0,0.0,0.0,0.0,0.0,0.0,0.0,0.0,0.0,0.0,0.0,0.0,0.0,0.0,0.0,0.0,0.0,0.0,0.0,0.0,0.0,0.0,0.0,-4.8273,-4.865,-4.9486,-4.8895,-4.9948,-5.2197,-5.1437,-5.137,-5.172,0.0,0.0,0.0,0.0,0.0,0.0,0.0,0.0,0.0,0.0,0.0,0.0,0.0,0.0,0.0,0.0,0.0,0.0,0.0,0.0,0.0,0.0,0.0,0.0,0.0,-5.3948,-5.3833,0.0,0.0,0.0,0.0,0.0,0.0,0.0,0.0,0.0,0.0,0.0,0.0,-5.4247,-5.4693,-5.4992,-5.4992,-5.4683,-5.4512,-5.4575,-5.4512,-5.4512,-5.4557,-5.4512,-5.4512,0.0,0.0,0.0,0.0,0.0,0.0,0.0,0.0,0.0,0.0,0.0,0.0,0.0,0.0,0.0,0.0,0.0,0.0,0.0,0.0,0.0,0.0,0.0,0.0,0.0,0.0,0.0,0.0,0.0,0.0,0.0,0.0,-4.3518,-4.4325,0.0,0.0,0.0,0.0,0.0,0.0,0.0,0.0,0.0,0.0,0.0,0.0,0.0,0.0,-4.7415,-4.8767,-4.9221,-4.8799,-4.9831,-5.0982,-5.2269,-5.1628,-5.2195,-5.3602,-5.2954,0.0,-5.3635,-5.3371,0.0,0.0,0.0,0.0,0.0,0.0,0.0,0.0,0.0,0.0,0.0,0.0,0.0,0.0,0.0,0.0,0.0,0.0,0.0,0.0,0.0,0.0,-5.5928,-5.5627,-5.557,-5.5495,0.0,-5.3203,-5.1828,-5.2774,0.0,0.0,0.0,0.0,0.0,0.0,0.0,0.0,-5.4834,-5.4913,-5.4992,-5.4992,-5.4683,-5.4637,-5.493,-5.47,-5.462,-5.493,-5.4683,-5.4512,-5.4512,-5.4575,0.0,0.0,0.0,0.0,0.0,0.0,0.0,0.0,0.0,0.0,0.0,0.0,0.0,0.0,0.0,0.0,0.0,0.0,0.0,0.0,0.0,0.0,0.0,0.0,0.0,0.0,0.0,0.0,0.0,-4.3848,-4.4344,-4.5168,-4.498,-4.5091,0.0,0.0,0.0,0.0,0.0,0.0,0.0,0.0,0.0,-4.7889,-4.8644,-4.889,-4.8676,-4.9696,-5.0326,-5.054,-5.0741,-5.1412,-5.2389,-5.1768,-5.2445,-5.402,-5.3795,-5.4506,-5.5713,-5.449,-5.3625,-5.3107,0.0,0.0,0.0,0.0,0.0,-5.4072,-5.4703,-5.4948,0.0,0.0,0.0,0.0,0.0,0.0,0.0,0.0,0.0,0.0,0.0,0.0,0.0,-5.5861,-5.5804,-5.5631,-5.5531,-5.4435,-5.3546,0.0,-5.3558,-5.3338,-5.3465,0.0,0.0,0.0,0.0,-5.4693,-5.4992,-5.4992,-5.4992,-5.4992,-5.4683,-5.4575,-5.47,-5.4557,-5.4557,-5.4683,-5.4575,-5.4512,-5.4512,-5.4683,-5.4869,0.0,0.0,0.0,0.0,0.0,0.0,0.0,0.0,0.0,0.0,0.0,0.0,0.0,0.0,0.0,0.0,0.0,0.0,0.0,0.0,0.0,0.0,0.0,0.0,0.0,0.0,0.0,0.0,-4.4711,-4.5114,-4.5938,-4.5799,-4.5924,0.0,0.0,0.0,0.0,0.0,0.0,-4.7788,-4.8165,-4.8586,-4.9103,-4.978,-5.0119,-5.0117,-5.0552,-5.1085,-5.1715,-5.1262,-5.1537,-5.2381,-5.1792,-5.2466,-5.4255,-5.4255,-5.5094,-5.6385,-5.5378,-5.4794,-5.4542,-5.5104,-5.5094,-5.4668,-5.4774,-5.4791,-5.4765,-5.5385,-5.5653,-5.5653,-5.5653,0.0,-5.5266,-5.4562,0.0,0.0,0.0,0.0,-5.4471,-5.5343,-5.5343,-5.5224,-5.5613,-5.5514,-5.5354,-5.5294,-5.5053,-5.4852,0.0,-5.4454,-5.4281,-5.4076,0.0,0.0,0.0,0.0,-5.4869,-5.4869,-5.4869,-5.4869,-5.4869,-5.462,-5.4512,-5.4512,-5.4512,-5.4512,-5.4512,-5.4512,-5.4512,-5.4512,-5.4807,-5.5113,-5.5354,0.0,0.0,0.0,0.0,0.0,0.0,0.0,0.0,0.0,0.0,0.0,0.0,0.0,0.0,0.0,0.0,0.0,0.0,0.0,0.0,0.0,0.0,0.0,0.0,0.0,0.0,0.0,0.0,0.0,-4.6629,-4.6557,0.0,0.0,0.0,0.0,-4.8025,-4.8497,-4.8946,-4.9204,-5.0433,-5.1131,-5.1167,-5.1352,-5.1597,-5.1748,-5.1234,-5.1055,-5.1214,-5.1214,-5.1907,-5.3235,-5.2558,-5.3014,-5.4385,-5.4385,-5.4482,-5.4686,-5.6349,-5.6686,-5.6185,-5.6002,-5.5507,-5.4966,-5.5367,-5.5484,-5.5461,-5.6144,-5.6328,-5.6328,-5.6328,-5.5901,-5.5385,-5.5112,-5.4747,0.0,0.0,-5.5189,-5.5402,-5.5786,-5.5844,-5.5729,-5.5156,-5.5053,-5.493,-5.4637,-5.4512,-5.4683,0.0,-5.5156,-5.4772,-5.4183,0.0,-5.4321,-5.3832,-5.4175,-5.4512,-5.4512,-5.4512,-5.4512,-5.4512,-5.4512,-5.4512,-5.4512,-5.4512,-5.4512,-5.4512,-5.4512,-5.4512,-5.4512,-5.4807,-5.4992,-5.5053,-5.5354,0.0,0.0,0.0,0.0,0.0,0.0,0.0,0.0,0.0,0.0,0.0,0.0,0.0,0.0,0.0,0.0,0.0,0.0,0.0,0.0,0.0,0.0,0.0,0.0,0.0,0.0,0.0,0.0,-4.7018,-4.706,0.0,-4.8153,-4.8287,-4.8612,-4.9207,-4.9523,-4.9955,-5.0551,-5.1031,-5.16,-5.2238,-5.2326,-5.2254,-5.2073,-5.1855,-5.1826,-5.1911,-5.1911,-5.2448,-5.3457,-5.3194,-5.356,-5.4454,-5.4826,-5.5189,-5.556,-5.6653,-5.6758,-5.6311,-5.6564,-5.6402,-5.6146,-5.6219,-5.6182,-5.6088,-5.6328,-5.6401,-5.6401,-5.6401,-5.6217,-5.6014,-5.5957,-5.5826,-5.5711,-5.5636,-5.5537,-5.5496,-5.5631,-5.5455,-5.5277,-5.5053,-5.4992,-5.493,-5.4575,-5.4512,-5.4575,-5.4807,-5.4745,-5.462,-5.4397,-5.4431,-5.4448,-5.4239,-5.4367,-5.4512,-5.4512,-5.4512,-5.4512,-5.4512,-5.4925,-5.5219,-5.5219,-5.5684,-5.5977,-5.5977,-5.5977,-5.5977,-5.5977,-5.6299,-5.6596,-5.6781,-5.7068,-5.7405,0.0,0.0,0.0,0.0,0.0,0.0,0.0,0.0,0.0,0.0,0.0,0.0,0.0,0.0,0.0,0.0,0.0,0.0,0.0,0.0,0.0,0.0,0.0,0.0,0.0,0.0,-4.6631,-4.7204,-4.7597,-4.7975,-4.856,-4.8955,-4.9504,-5.0254,-5.0443,-5.0805,-5.1555,-5.1909,-5.227,-5.2709,-5.2768,-5.2702,-5.2433,-5.2203,-5.2234,-5.2489,-5.2489,-5.2893,-5.3601,-5.3416,-5.3749,-5.4579,-5.5026,-5.5519,-5.607,-5.6671,-5.6776,-5.6492,-5.6829,-5.6847,-5.6689,-5.6653,-5.6492,-5.6401,-5.6401,-5.6401,-5.6401,-5.6401,-5.6401,-5.6401,-5.6401,-5.6401,-5.6328,-5.5975,-5.5746,-5.559,-5.5413,-5.5174,-5.4992,-5.4869,-5.4807,-5.4745,-5.4575,-5.4512,-5.4512,-5.4512,-5.4512,-5.4512,-5.4512,-5.4512,-5.4598,-5.4839,-5.4667,-5.4701,-5.5219,-5.5046,-5.4994,-5.5253,-5.5719,-5.6012,-5.6012,-5.6495,-5.6805,-5.6805,-5.6805,-5.6805,-5.6805,-5.7114,-5.7416,-5.7621,-5.7998,-5.8479,-5.9113,0.0,0.0,0.0,0.0,0.0,0.0,0.0,0.0,0.0,0.0,0.0,0.0,0.0,0.0,0.0,0.0,0.0,0.0,0.0,0.0,0.0,0.0,0.0,-4.7554,-4.733,-4.7259,-4.7312,-4.8163,-4.8756,-4.8942,-4.9673,-5.0407,-5.1084,-5.1266,-5.161,-5.2102,-5.3153,-5.3356,-5.2643,-5.2793,-5.2897,-5.2941,-5.2234,-5.2252,-5.2903,-5.2903,-5.3281,-5.3912,-5.323,-5.3666,-5.4844,-5.4905,-5.5284,-5.5975,-5.651,-5.6794,-5.6794,-5.6794,-5.6689,-5.66,-5.66,-5.6492,-5.6401,-5.6401,-5.6401,-5.6401,-5.6401,-5.6401,-5.6401,-5.6401,-5.6401,-5.6328,-5.5975,-5.5918,-5.5746,-5.5156,-5.4992,-5.493,-5.4575,-5.4512,-5.4512,-5.4512,-5.4512,-5.4512,-5.4512,-5.4512,-5.4512,-5.4512,-5.4512,-5.4753,-5.5477,-5.4994,0.0,-5.6564,-5.6115,-5.5943,-5.6719,-5.6822,-5.684,-5.684,-5.6857,-5.6874,-5.6874,-5.6874,-5.6874,-5.6874,-5.7183,-5.7376,-5.7376,-5.7947,-5.8799,-5.9951,0.0,0.0,0.0,0.0,0.0,0.0,0.0,0.0,0.0,0.0,0.0,0.0,0.0,0.0,0.0,0.0,0.0,0.0,0.0,0.0,0.0,0.0,-4.8571,-4.7943,-4.7911,-4.7946,-4.7929,-4.8672,-4.937,-5.0008,-5.0228,-5.0742,-5.1664,-5.2456,-5.3008,-5.3302,-5.386,-5.4367,-5.4771,-5.4329,-5.4168,-5.4329,-5.3652,-5.3445,-5.36,-5.3162,-5.3281,-5.3912,-5.3715,-5.3847,-5.4218,-5.5224,-5.5653,-5.5786,-5.642,-5.66,-5.6492,-5.66,-5.6653,-5.66,-5.6492,-5.6437,-5.6401,-5.6401,-5.6401,-5.6401,-5.6401,-5.6401,-5.6401,-5.6401,-5.6401,-5.6273,-5.5764,-5.559,-5.5472,-5.4807,-5.4637,-5.462,-5.4512,-5.4512,-5.4512,-5.4512,-5.4512,-5.4512,-5.4512,-5.4512,-5.4512,-5.4512,-5.4512,-5.4581,-5.4787,-5.5098,0.0,-5.5891,-5.6253,-5.6546,-5.6788,-5.7288,-5.7598,-5.7598,-5.8099,-5.8409,-5.8409,-5.8409,-5.8409,-5.8409,-5.8459,-5.8793,-5.933,-5.9708,-6.0182,0.0,0.0,0.0,0.0,0.0,0.0,0.0,0.0,0.0,0.0,0.0,0.0,0.0,0.0,0.0,0.0,0.0,0.0,0.0,0.0,0.0,0.0,-4.9111,-4.9049,-4.8831,-4.8533,-4.8478,-4.8686,-4.9258,-4.9847,-5.0498,-5.0934,-5.1544,-5.2566,-5.3167,-5.3612,-5.3889,-5.455,-5.4846,-5.4717,-5.4662,-5.4383,-5.396,-5.3449,-5.3264,-5.3281,-5.3145,-5.3466,-5.4089,-5.4089,-5.4408,0.0,-5.5812,-5.6339,-5.6546,-5.7221,-5.742,0.0,0.0,0.0,0.0,0.0,-5.6401,-5.6401,-5.6401,-5.6401,-5.6401,-5.6401,-5.6401,-5.6401,-5.6401,-5.6401,-5.6273,-5.5648,-5.559,-5.5455,-5.4683,-5.462,-5.4683,-5.4512,-5.4512,-5.4512,-5.4512,-5.4512,-5.4512,-5.4512,0.0,0.0,-5.4512,-5.4512,-5.4718,-5.5374,-5.5546,-5.596,-5.6909,-5.7167,-5.7391,-5.7685,-5.8116,-5.8374,-5.8374,-5.8771,0.0,0.0,0.0,-5.9012,-5.9012,-5.9012,0.0,0.0,0.0,-6.0423,-6.0914,0.0,0.0,0.0,-6.0415,-5.9987,0.0,0.0,0.0,0.0,0.0,0.0,0.0,0.0,0.0,0.0,0.0,0.0,0.0,0.0,0.0,0.0,-4.9743,-4.9518,-5.001,-4.9423,-4.9109,-4.9502,-4.9967,-5.039,-5.0695,-5.1587,-5.2556,-5.348,-5.3724,-5.3961,-5.4242,0.0,0.0,0.0,0.0,-5.4102,-5.2817,-5.2694,-5.264,-5.264,-5.3196,-5.3895,-5.4516,-5.4516,-5.5147,-5.6308,-5.6493,-5.6927,-5.7507,-5.8185,-5.8506,-5.847,-5.7168,-5.665,-5.665,-5.665,-5.665,0.0,0.0,0.0,0.0,-5.6418,-5.6401,-5.6401,-5.6401,-5.6401,-5.6273,-5.5706,-5.5689,-5.5613,-5.4807,-5.4745,-5.4869,-5.4575,-5.4512,-5.4512,-5.4512,-5.4512,-5.4512,-5.4512,-5.4512,-5.4529,-5.4615,-5.4632,-5.5098,-5.646,-5.6219,-5.6598,-5.8633,-5.8392,-5.8271,-5.8944,0.0,0.0,-5.9012,-5.9012,-5.9012,-5.9012,-5.9012,-5.9012,-5.9012,-5.9012,-5.9217,-5.9569,-5.9569,-5.9896,-6.0547,-6.0547,-6.0671,-6.0974,-6.1034,-6.0719,0.0,0.0,0.0,0.0,0.0,0.0,0.0,0.0,0.0,0.0,0.0,0.0,0.0,0.0,0.0,-5.1008,-5.1103,-5.1067,-5.1176,-5.1124,-5.0852,-5.0053,-5.0816,-5.1437,-5.1454,-5.1672,-5.2368,-5.3806,-5.5095,-5.5865,-5.5937,-5.6134,0.0,-5.5857,-5.5432,-5.4887,-5.4072,-5.4025,-5.4008,-5.4008,0.0,0.0,-5.5207,-5.5207,-5.5325,-5.5636,-5.6173,-5.6504,-5.6633,-5.6793,-5.7221,-5.7828,-5.8149,-5.8274,-5.8274,-5.8274,-5.8274,-5.8185,-5.756,-5.7346,-5.7239,-5.6597,-5.6401,-5.6401,-5.6401,-5.6401,0.0,-5.5918,-5.5689,-5.5472,-5.4992,-5.4745,-5.4575,-5.4512,-5.4512,-5.4512,-5.4512,-5.4512,-5.4512,-5.4512,-5.4512,-5.4701,-5.5288,-5.5408,-5.5512,-5.5805,-5.6771,-5.7616,-5.8064,-5.8512,-5.8857,-5.8995,-5.9012,-5.9012,-5.9012,-5.9012,-5.9012,-5.9012,-5.9012,-5.9012,-5.9012,-5.9012,-5.9217,-5.9569,-5.9569,-5.9766,-6.0234,-6.0234,-6.0216,-6.028,-6.0854,-6.1022,0.0,0.0,0.0,0.0,0.0,0.0,0.0,0.0,0.0,0.0,0.0,-5.0265,0.0,0.0,-5.1026,-5.1862,-5.1728,-5.165,-5.2069,-5.1892,-5.1512,-5.0945,-5.1387,-5.1726,-5.1678,-5.1699,-5.2692,-5.5007,-5.5973,-5.6403,-5.6402,-5.642,-5.6273,-5.5901,-5.5578,-5.5087,-5.4391,-5.4391,-5.4391,-5.4391,-5.4765,-5.5087,-5.5385,-5.5769,-5.6113,-5.656,-5.727,-5.7792,-5.8185,-5.8595,-5.8988,-5.938,-5.9773,-5.9434,-5.872,-5.872,-5.872,-5.8667,-5.8292,-5.8149,-5.8024,-5.7239,-5.6989,-5.6918,-5.6508,-5.6401,-5.6273,-5.5804,-5.5689,-5.5572,-5.493,-5.4745,-5.4683,-5.4575,-5.4512,-5.4512,-5.4512,-5.4512,-5.4512,-5.4512,-5.4512,-5.4736,-5.5477,-5.5943,-5.634,-5.6702,-5.7409,-5.803,-5.8409,-5.8788,-5.9012,-5.9012,-5.9012,-5.9012,-5.9012,-5.9012,-5.9012,-5.9012,-5.9012,-5.9012,-5.9012,-5.9012,-5.9081,-5.9301,-5.9284,-5.9485,-5.9831,-5.9831,-5.9961,-6.0089,-6.0468,-6.0591,0.0,0.0,0.0,0.0,0.0,0.0,0.0,0.0,-5.1212,-5.0562,-5.0952,-5.1454,-5.1602,-5.1602,-5.1844,-5.2698,-5.2224,-5.1978,-5.2714,-5.218,-5.1675,-5.1675,-5.1675,-5.1711,-5.1716,-5.2232,-5.3689,-5.6206,-5.6403,-5.6402,-5.6401,-5.6401,-5.6144,-5.5578,-5.5578,-5.5266,-5.4579,-5.4703,-5.4772,-5.4866,-5.5494,-5.5877,-5.6094,-5.6588,-5.7204,-5.7846,-5.8452,-5.9095,-5.9737,-6.054,-6.0861,-6.0879,-6.104,-6.0308,-5.9184,-5.9184,-5.9184,-5.9166,-5.9006,-5.8952,-5.8827,-5.806,-5.781,-5.7667,-5.6865,-5.6633,-5.6486,-5.5857,-5.5764,-5.5631,-5.4869,-5.4807,-5.4807,-5.4557,-5.4512,-5.4512,-5.4512,-5.4512,-5.4512,-5.4512,-5.4512,-5.4787,-5.5684,-5.6374,-5.7047,-5.7788,-5.803,-5.834,-5.8926,-5.9012,-5.9012,-5.9012,-5.9012,-5.9012,-5.9012,-5.915,-5.9185,-5.9012,-5.915,-5.9168,-5.9012,-5.9012,-5.9012,-5.9012,-5.9012,-5.9149,-5.9502,-5.9502,-5.9635,-5.9896,-5.9896,-5.9961,-5.1914,-5.1495,-5.1119,-5.1119,-5.1193,-5.1231,0.0,0.0,-5.1361,-5.1286,-5.1342,-5.1621,-5.2327,-5.2252,-5.2438,-5.3515,-5.3088,-5.2696,-5.2806,-5.2156,-5.1699,-5.1699,-5.1699,-5.1716,-5.1683,-5.4206,-5.6027,-5.6349,-5.642,-5.6383,-5.6401,-5.6401,-5.6401,-5.6273,-5.6273,-5.5957,-5.5266,-5.5901,-5.6237,-5.636,-5.7003,-5.768,-5.8338,-5.8396,-5.8506,-5.8595,-5.8684,-5.8774,-5.8916,-5.9719,-6.004,-6.0112,-6.0826,-6.0986,-6.0826,-6.0826,-6.0826,-6.0736,-6.0023,-5.9773,-5.9648,-5.8863,-5.8595,-5.8452,-5.7685,-5.7453,-5.7293,-5.6542,-5.5936,-5.5531,-5.5413,-5.4992,-5.4575,-5.4512,-5.4512,-5.4512,-5.4512,-5.4512,-5.4512,-5.4512,-5.4512,-5.496,-5.6426,-5.6736,-5.7047,-5.7788,-5.8461,-5.8926,-5.8995,-5.9012,-5.9012,-5.9012,-5.9012,-5.9012,-5.9012,-5.9651,-5.9754,-5.9064,-5.9668,-5.9754,-5.9047,-5.9012,-5.9012,-5.9012,-5.9012,-5.9012,-5.9081,-5.9081,-5.9081,-5.9149,-5.9149,-5.9485,-5.1742,-5.1877,-5.1992,-5.1528,-5.1751,-5.1974,-5.1509,-5.2122,-5.2661,-5.2197,-5.2475,-5.2902,-5.3237,-5.3218,-5.3292,0.0,-5.3553,-5.3379,-5.3362,-5.2426,-5.2373,-5.4203,-5.2803,-5.1705,-5.1705,-5.4545,-5.6403,-5.642,-5.642,-5.6401,-5.6401,-5.6401,-5.6597,-5.7061,-5.7096,-5.7181,-5.7304,-5.7626,-5.7786,-5.78,-5.8125,-5.8417,-5.872,-5.872,-5.8988,-5.9434,-5.9898,-6.0112,-6.013,-6.0469,-6.0611,-6.0629,-6.0968,-6.1093,-6.1093,-6.1093,-6.1093,-6.1058,-6.0719,-6.0611,-6.0469,-5.9666,-5.9416,-5.9273,-5.8488,-5.7935,-5.7451,-5.6755,-5.6041,-5.5413,-5.4992,-5.4683,-5.4512,-5.4512,-5.4512,-5.4512,-5.4512,-5.4512,-5.4512,-5.4512,-5.4512,-5.4994,-5.6529,-5.6805,-5.7202,-5.8374,-5.8806,-5.9012,-5.9012,-5.9012,-5.9012,-5.9012,-5.9012,-5.9012,-5.9012,-5.9323,-5.9375,-5.903,-5.9754,-6.0047,-5.972,-6.0116,-6.034,-6.034,-5.9926,-5.9702,-5.9702,-5.9237,-5.9012,-5.9012,-5.9012,-5.9149,-5.2211,-5.2494,-5.2791,-5.2215,-5.2512,-5.2791,-5.2197,-5.2958,-5.3627,-5.3051,-5.3385,-5.3813,-5.3813,-5.3813,-5.3813,-5.3813,-5.3792,-5.3671,-5.3299,-5.2364,-5.2536,-5.4812,-5.3851,-5.3015,-5.3015,-5.5044,-5.6402,-5.6383,-5.6401,-5.6401,-5.6401,-5.6597,-5.6989,-5.756,-5.7792,-5.8167,-5.872,-5.872,-5.8827,-5.9059,-5.9059,-5.9166,-5.938,-5.938,-5.9701,-6.0272,-6.0843,-6.1093,-6.1093,-6.1093,-6.1093,-6.1093,-6.1093,-6.1093,-6.1093,-6.1093,-6.1093,-6.1093,-6.1093,-6.1093,-6.1004,-6.0433,-6.0237,-6.0094,-5.9291,-5.8592,-5.7943,-5.7094,-5.6269,-5.5557,-5.4921,-5.462,-5.4512,-5.4512,-5.4512,-5.4512,-5.4512,-5.4667,-5.4805,-5.4805,-5.4994,-5.5563,-5.6874,-5.7098,-5.7529,-5.8823,-5.9012,-5.9012,-5.9012,-5.9012,-5.9012,-5.9012,-5.9012,-5.9012,-5.9012,-5.9202,-5.9254,-5.903,-5.9754,-6.0099,-5.9875,-6.0375,-6.0668,-6.0668,-6.0133,-5.9875,-5.9875,-5.9288,-5.9116,-5.934,-5.934,-5.9444,-5.3833,-5.3738,-5.3775,-5.3738,-5.3757,-5.3775,-5.3738,-5.3775,-5.3794,-5.3775,-5.3775,-5.3813,-5.3813,-5.3813,-5.3813,-5.3813,-5.3805,-5.3335,-5.1946,-5.1708,-5.1758,-5.1829,-5.4491,-5.6276,0.0,-5.6347,-5.6401,-5.6401,-5.6401,-5.6401,-5.6401,-5.7132,-5.756,-5.7578,-5.8292,-5.8702,-5.872,-5.872,-5.9113,-5.9862,-5.9862,-6.0272,-6.1022,-6.1022,-6.104,-6.1058,-6.1093,-6.1093,-6.1093,-6.1093,-6.1093,-6.1093,-6.1093,-6.1093,-6.1093,-6.1093,-6.1093,-6.1093,-6.1093,-6.1093,-6.1093,-6.1075,-6.1058,-6.0915,-6.0112,-5.9609,-5.9076,-5.7875,-5.6835,-5.5976,-5.5606,-5.4992,-5.4512,-5.4512,-5.4512,-5.4512,-5.4512,-5.5081,-5.5581,-5.5581,-5.6202,-5.6978,-5.7736,-5.7874,-5.8133,-5.8909,-5.9012,-5.9012,-5.9012,-5.9012,-5.9012,-5.9012,-5.9012,-5.9012,-5.9012,-5.972,-5.984,-5.9064,-5.9754,-5.9858,-5.9081,-5.9064,-5.9081,-5.9081,-5.9064,-5.9047,-5.9047,-5.903,-5.9409,-6.0151,-6.0151,-6.0547,-5.3832,-5.3813,-5.3813,-5.3813,-5.3813,-5.3813,-5.3813,-5.3813,-5.3813,-5.3813,-5.3813,-5.3813,-5.3813,-5.3813,-5.3813,-5.3813,-5.3805,-5.4036,-5.4711,-5.4813,-5.4812,-5.4847,-5.5775,0.0,0.0,0.0,0.0,-5.6401,-5.6401,-5.6633,-5.715,-5.7435,-5.806,-5.9095,-5.938,-5.9755,-6.029,-6.029,-6.0433,-6.0701,-6.0701,-6.0843,-6.1093,-6.1093,-6.1093,-6.1093,-6.1093,-6.1397,-6.1896,-6.1896,-6.2164,-6.2628,-6.2628,-6.2324,-6.1896,-6.1896,-6.1557,-6.1093,-6.1093,-6.1093,-6.1093,-6.1093,-6.0974,-6.0757,-6.043,-5.9891,-5.9221,-5.8387,-5.7325,-5.63,-5.573,-5.5063,-5.4512,-5.4512,-5.4874,-5.5236,-5.5236,-5.5839,-5.6408,-5.6408,-5.6615,-5.7029,-5.7771,-5.7909,-5.815,-5.8909,-5.9012,-5.9012,-5.9012,-5.9012,-5.9012,-5.9012,-5.9012,-5.9012,-5.9012,-5.9254,-5.9288,-5.903,-5.9754,-6.0082,-5.9806,-6.0271,-6.053,-6.053,-6.0047,-5.9806,-5.9806,-5.9806,-5.9944,-6.0202,-6.0703,-6.1065,-5.3963,-5.3907,-5.3813,-5.3813,-5.3813,-5.3813,-5.3813,-5.3813,-5.3813,-5.3813,-5.3813,-5.3813,-5.3813,-5.3813,-5.3793,-5.3788,-5.4332,-5.5121,-5.6241,-5.641,-5.642,-5.6383,-5.6401,-5.6401,0.0,0.0,0.0,-5.6401,-5.6668,-5.7043,-5.756,-5.8113,-5.8881,-5.988,-6.0183,-6.0576,-6.1093,-6.1093,-6.1093,-6.1093,-6.1093,-6.1254,-6.1521,-6.1521,-6.1664,-6.1914,-6.1914,-6.2217,-6.2681,-6.2681,-6.2967,-6.3395,-6.3395,-6.3048,-6.2515,-6.262,-6.2121,-6.1287,-6.1003,-6.0914,-6.0914,-6.0914,-6.0793,-6.0609,-6.0609,-6.0194,-5.9514,-5.8794,-5.788,-5.6865,-5.601,-5.5541,-5.5253,-5.4977,-5.5477,-5.6029,-5.6029,-5.665,-5.7185,-5.7185,-5.7409,-5.7736,-5.8219,-5.8288,-5.8461,-5.8944,-5.9012,-5.9012,-5.9012,-5.9012,-5.9012,-5.9012,-5.9012,-5.9012,-5.9012,-5.9012,-5.9012,-5.9012,-5.9495,-5.9771,-5.9771,-6.0237,-6.0478,-6.0478,-6.0013,-5.9909,-6.0202,-6.0202,-6.0478,-6.103,-6.1496,-6.1875,-5.4212,-5.4054,-5.3813,-5.3813,-5.3813,-5.3813,-5.3813,-5.3813,-5.3813,-5.3813,-5.3813,-5.3813,0.0,0.0,-5.3884,-5.3902,-5.5236,-5.6306,-5.64,-5.6382,-5.6401,0.0,0.0,0.0,0.0,0.0,0.0,-5.6472,0.0,-5.7614,-5.7685,-5.9113,-5.9933,-5.9969,-6.0701,-6.1093,-6.1093,-6.1093,-6.1111,-6.1165,-6.1165,-6.1575,-6.2342,-6.2342,-6.2717,-6.3315,-6.3315,-6.3351,-6.3387,-6.3448,-6.3484,-6.3502,-6.3502,-6.3316,-6.3045,-6.3325,-6.272,-6.1644,-6.0866,-6.0583,-6.0609,-6.0627,-6.0609,-6.0547,-6.0547,-6.036,-5.9931,-5.9131,-5.8437,-5.7631,-5.6484,-5.6512,-5.6615,-5.5857,-5.6271,-5.6857,-5.6857,-5.7443,-5.7961,-5.7961,-5.853,-5.9012,-5.9012,-5.9012,-5.9012,-5.9012,-5.9012,-5.9012,-5.9012,-5.9012,-5.9012,-5.9012,-5.9012,-5.9012,-5.9012,-5.9012,-5.9012,-5.9012,-5.9012,-5.9012,-5.9012,-5.9012,-5.9012,-5.9012,-5.9012,-5.9409,-6.0202,-6.0237,-6.1013,-6.2479,-6.253,-6.2927,-5.4281,-5.4054,-5.3813,-5.3813,-5.3813,-5.3813,-5.3813,-5.3813,-5.3774,-5.3734,-5.3754,-5.3774,-5.3716,-5.4424,0.0,-5.5053,-5.4814,0.0,-5.6248,-5.6397,0.0,-5.6401,0.0,-5.6401,-5.6401,-5.7134,0.0,0.0,-5.7616,-5.8096,-5.9255,-5.9701,-6.0183,-6.0772,-6.0986,-6.1093,-6.1093,-6.1093,-6.1397,-6.1985,-6.1985,-6.2274,-6.2772,-6.2772,-6.2716,-6.2599,-6.2599,-6.2934,-6.3481,-6.3778,-6.4244,-6.4741,-6.5034,-6.4759,-6.4116,-6.3989,-6.3364,-6.2393,-6.1099,-6.0836,-6.0914,-6.0671,-6.0423,-6.0153,-5.9896,-5.9766,-5.9582,-5.9126,-5.864,-5.8168,-5.7607,-5.713,-5.6753,-5.6546,-5.7064,-5.7633,-5.7633,-5.8202,-5.8737,-5.8737,-5.8875,-5.9012,-5.9012,-5.9012,-5.9012,-5.9012,-5.9012,-5.9012,-5.9012,-5.9012,-5.9012,-5.9012,-5.9012,-5.9012,-5.9012,-5.9012,-5.9012,-5.9012,-5.9012,-5.9012,-5.9012,-5.9012,-5.9012,-5.9012,-5.9012,-5.9409,-6.0202,-6.0754,-6.153,-6.2496,-6.3048,-6.341,-5.4463,-5.4177,-5.3813,-5.3813,-5.3813,-5.3813,-5.3754,-5.3754,-5.3716,-5.3637,-5.3619,-5.36,-5.33,-5.4467,-5.5588,0.0,0.0,0.0,-5.6303,-5.6399,-5.6401,0.0,-5.6401,0.0,-5.7313,-5.7797,-5.8206,0.0,-5.8667,-5.8988,-5.9862,-6.0237,-6.0629,-6.1093,-6.1093,-6.1093,-6.1093,-6.145,-6.1765,-6.2027,-6.2364,-6.2744,-6.3146,-6.3146,-6.3207,-6.3389,0.0,-6.3635,-6.4039,-6.426,-6.4591,-6.5029,-6.5247,-6.4915,-6.4376,-6.4393,-6.3784,-6.281,-6.1821,-6.1295,-6.1034,-6.0403,-6.0025,-5.9831,-5.9635,-5.9569,-5.9502,-5.9081,-5.8838,-5.8556,-5.8045,-5.784,-5.7685,-5.7357,-5.7857,-5.8392,-5.8392,-5.8719,-5.9012,-5.9012,-5.9012,-5.9012,-5.9012,-5.9012,-5.9012,-5.9012,-5.9012,-5.9012,-5.9012,-5.9012,-5.9012,-5.9012,-5.9012,-5.9012,-5.9012,-5.9012,-5.9012,-5.9012,-5.9012,-5.9012,-5.9012,-5.9012,-5.9012,-5.9012,-5.9012,-5.9564,-6.0685,-6.1099,-6.1875,-6.2979,-6.3393,-6.36,-5.4654,-5.4281,-5.3813,-5.3813,-5.3813,-5.3774,-5.3695,-5.3714,-5.3656,-5.3499,-5.344,-5.324,-5.274,-5.4038,-5.5533,-5.6546,0.0,-5.711,-5.6635,-5.6438,-5.6401,-5.6401,-5.6401,-5.6991,-5.8461,-5.8297,-5.8616,-5.9826,-6.0005,-6.0076,-6.0076,-6.0719,-6.1093,-6.1093,-6.1093,-6.1147,-6.1254,-6.1872,-6.2177,-6.2061,-6.2751,-6.3282,-6.367,-6.367,-6.3988,-6.4568,0.0,0.0,-6.4585,-6.4568,-6.4637,-6.4655,-6.4655,-6.4498,-6.4199,-6.4498,-6.4009,-6.3066,-6.254,-6.1905,-6.1033,-5.9979,-5.9569,-5.9569,-5.9502,-5.9502,-5.9436,-5.9081,-5.9012,-5.8857,-5.8219,-5.853,-5.8857,-5.8202,-5.8547,-5.9012,-5.9012,-5.9012,-5.9012,-5.9012,-5.9012,-5.9012,-5.9012,-5.9012,-5.9012,-5.9012,-5.9012,-5.9012,-5.9012,-5.9012,-5.9012,-5.9012,-5.9012,-5.9012,-5.9012,-5.9012,-5.9012,-5.9012,-5.9012,-5.9012,-5.9012,-5.9012,-5.9012,-5.9012,-5.9012,-5.9771,-6.1306,-6.1306,-6.2082,-6.36,-6.36,-6.3656,-5.443,-5.4089,-5.3813,-5.3813,-5.3813,-5.3774,-5.3695,-5.3714,-5.3616,-5.34,-5.3054,-5.2802,-5.2544,-5.308,-5.3809,-5.4639,-5.535,-5.6129,-5.7226,-5.6796,-5.6401,0.0,-5.6401,-5.6866,-5.8029,-5.842,0.0,0.0,0.0,-6.0897,-6.0897,-6.1022,-6.1093,-6.1093,-6.1093,-6.1414,-6.2075,-6.1876,-6.2604,-6.409,-6.396,-6.4093,-6.4513,-6.4513,-6.4236,-6.3802,0.0,0.0,-6.3802,-6.4057,-6.4182,-6.427,-6.4568,-6.4655,-6.4568,-6.427,-6.4112,-6.3744,-6.2801,-6.1968,-6.1085,-5.9954,-5.9569,-5.9569,-5.9217,-5.9081,-5.9081,-5.9012,-5.9012,-5.8978,-5.8857,-5.8909,-5.8978,-5.8857,-5.8926,-5.9012,-5.9012,-5.9012,-5.9012,-5.9012,-5.9012,-5.9012,-5.9012,-5.9012,-5.9012,-5.9012,-5.9012,-5.9012,-5.9012,-5.9012,-5.9012,-5.9012,-5.9012,-5.9012,-5.9012,-5.9012,-5.9012,-5.9012,-5.9012,-5.9012,-5.9012,-5.9012,-5.9012,-5.9012,-5.9012,-5.9771,-6.1306,-6.1306,-6.2082,-6.36,-6.36,-6.3913,-5.433,-5.4054,-5.3813,-5.3813,-5.3813,-5.3774,-5.3637,-5.3598,-5.3518,-5.3314,-5.2857,-5.2445,-5.2101,-5.2911,-5.3677,-5.3761,-5.4831,-5.6134,-5.7406,-5.6611,-5.6049,-5.6346,-5.6199,-5.6787,-5.8598,-5.8702,-5.922,0.0,0.0,-6.1093,-6.1093,-6.1093,-6.1093,-6.1093,-6.1504,-6.1896,-6.2289,-6.2889,-6.3463,-6.3996,-6.4305,-6.4286,-6.4163,-6.4163,-6.3947,-6.36,-6.36,0.0,-6.3582,-6.3785,-6.3858,-6.3858,-6.4074,-6.4163,-6.4074,-6.393,-6.3858,-6.3681,-6.281,-6.2237,-6.1737,-6.0791,-5.9942,-5.9217,-5.9081,-5.9012,-5.9012,-5.9012,-5.9012,-5.9012,-5.9012,-5.9012,-5.9012,-5.9012,-5.9012,-5.9012,-5.9012,-5.9012,-5.9012,-5.9012,-5.9012,-5.9012,-5.9012,-5.9012,-5.9012,-5.9012,-5.9012,-5.9012,-5.9012,-5.9012,-5.9012,-5.9012,-5.9012,-5.9012,-5.9012,-5.9012,-5.9012,-5.9012,-5.9012,-5.9012,-5.9012,-5.9012,-5.9012,-5.9012,-5.9012,-5.9771,-6.1306,-6.1306,-6.2082,-6.36,-6.3967,-6.4288,-5.4737,-5.454,-5.4351,-5.4351,-5.4294,-5.4199,-5.3835,-5.3739,-5.3621,-5.3285,-5.2672,-5.2162,-5.1865,-5.2729,-5.3442,-5.3356,-5.4547,-5.5819,-5.6773,-5.6202,-5.5799,-5.6108,-5.6138,0.0,-5.8962,-5.8904,0.0,0.0,0.0,0.0,-6.1093,-6.1093,-6.1182,-6.1343,-6.195,-6.2449,-6.2788,-6.3859,-6.4215,-6.3893,-6.4321,-6.4287,-6.3729,-6.3729,-6.3656,-6.36,-6.36,0.0,0.0,-6.36,-6.36,-6.36,-6.36,-6.36,-6.36,-6.36,-6.36,-6.3513,-6.2927,-6.2617,-6.2393,-6.1754,-6.0513,-5.9271,-5.9271,-5.915,-5.9012,-5.9012,-5.9012,-5.9012,-5.9012,-5.9012,-5.9012,-5.9012,-5.9012,-5.9012,-5.9012,-5.9012,-5.9012,-5.9012,-5.9012,-5.9012,-5.9012,-5.9012,-5.9012,-5.9012,-5.9012,-5.9012,-5.9012,-5.9012,-5.9012,-5.9012,-5.9012,-5.9012,-5.9012,-5.9012,-5.9012,-5.9012,-5.9012,-5.9012,-5.9012,-5.9012,-5.9012,-5.9012,-5.9012,-5.9685,-6.1065,-6.1344,-6.2264,-6.3615,-6.4393,-6.4923,-5.618,-5.61,-5.6079,-5.6079,-5.598,-5.5636,-5.4796,-5.4488,-5.4202,-5.3353,-5.2408,-5.1865,-5.246,-5.1944,-5.1827,-5.3168,-5.3706,-5.4189,-5.473,-5.566,-5.6056,-5.5285,0.0,0.0,-5.7894,-5.8501,0.0,0.0,0.0,0.0,-6.1093,-6.1093,-6.1432,-6.2164,-6.2253,-6.2967,-6.4376,-6.3842,-6.4066,-6.5021,-6.4428,-6.4128,-6.4039,-6.4039,-6.393,-6.36,-6.36,0.0,0.0,-6.36,-6.36,-6.36,-6.36,-6.36,-6.36,-6.36,-6.36,-6.3582,-6.3513,-6.3048,-6.2479,-6.2393,-6.1341,-6.0082,-6.0082,-5.9582,-5.9012,-5.9012,-5.9012,-5.9012,-5.9012,-5.9012,-5.9012,-5.9012,-5.9012,-5.9012,-5.9012,-5.9012,-5.9012,-5.9012,-5.9012,-5.9012,-5.9012,-5.9012,-5.9012,-5.9012,-5.9012,-5.9012,-5.9012,-5.9012,-5.9012,-5.9012,-5.9012,-5.9012,-5.9012,-5.9012,-5.9012,-5.9012,-5.9012,-5.9012,-5.9012,-5.9012,-5.9012,-5.9012,-5.9012,-5.9444,-6.0289,-6.1567,-6.2655,-6.3532,-6.49,-6.5878,-5.6323,-5.6302,-5.6302,-5.6203,-5.5791,-5.5247,-5.4714,-5.417,-5.3561,-5.286,-5.2486,-5.2232,-5.2236,-5.2393,-5.2701,-5.3304,-5.3877,-5.4295,-5.4452,-5.4966,-5.5209,-5.5133,-5.5992,0.0,0.0,0.0,0.0,0.0,0.0,0.0,-6.1789,-6.1807,-6.195,-6.2271,-6.3199,-6.3859,-6.4291,-6.4455,-6.4559,-6.4515,-6.4252,-6.3985,-6.3785,-6.3785,-6.3729,-6.36,-6.36,0.0,0.0,-6.36,-6.36,-6.36,-6.36,-6.36,-6.36,-6.36,-6.36,-6.36,-6.36,-6.341,-6.3151,-6.3151,-6.2444,-6.1479,-6.1013,-6.0323,-5.972,-5.972,-5.9375,-5.9012,-5.9012,-5.9012,-5.9012,-5.9012,-5.9012,-5.9012,-5.9012,-5.9012,-5.9012,-5.9012,-5.9012,-5.9012,-5.9012,-5.9012,-5.9012,-5.9012,-5.9012,-5.9012,-5.9012,-5.9012,-5.9012,-5.9012,-5.9012,-5.9012,-5.9012,-5.9012,-5.9012,-5.9012,-5.9012,-5.9012,-5.9012,-5.9012,-5.9012,-5.9012,-5.9012,-5.958,-6.0715,-6.1782,-6.2934,-6.4102,-6.5581,-6.6404,-5.6926,-5.6967,-5.6967,-5.6825,-5.6173,-5.5443,-5.4981,-5.4295,-5.354,-5.2834,-5.2767,-5.275,-5.2632,-5.3036,-5.3477,-5.3701,-5.4167,-5.4506,-5.4503,-5.4579,-5.478,-5.5201,0.0,-5.6937,0.0,0.0,0.0,0.0,0.0,0.0,0.0,-6.2442,-6.2612,-6.2844,-6.3768,-6.4268,-6.4319,-6.4813,-6.474,-6.4111,-6.4111,-6.3913,-6.36,-6.36,-6.36,-6.36,0.0,0.0,0.0,-6.36,-6.36,-6.36,-6.36,-6.36,-6.36,-6.36,-6.36,-6.36,-6.36,-6.36,-6.36,-6.36,-6.3238,-6.2703,-6.2151,-6.1306,-6.0478,-6.0254,-5.9616,-5.9012,-5.9012,-5.9012,-5.9012,-5.9012,-5.9012,-5.9012,-5.9012,-5.9012,-5.9012,-5.9012,-5.9012,-5.9012,-5.9012,-5.9012,-5.9012,-5.9012,-5.9012,-5.9012,-5.9012,-5.9012,-5.9012,-5.9012,-5.9012,-5.9012,-5.9012,-5.9012,-5.9012,-5.9012,-5.9012,-5.9012,-5.9012,-5.9012,-5.9064,-5.9267,-5.9334,-5.9892,-6.103,-6.2273,-6.3431,-6.4434,-6.6188,-6.7004,-5.8492,-5.8577,-5.8638,-5.8492,-5.7833,-5.691,-5.5994,-5.5231,-5.4442,-5.3664,-5.3245,-5.3239,-5.4028,-5.3766,-5.3649,-5.4374,-5.4512,-5.4512,-5.4512,-5.4807,-5.5147,0.0,0.0,-5.7567,-5.8363,0.0,0.0,0.0,0.0,0.0,0.0,-6.2693,-6.3264,-6.4061,-6.3714,-6.3898,-6.4706,-6.4706,-6.4498,-6.4111,-6.4111,-6.3913,-6.36,-6.36,-6.36,0.0,0.0,0.0,0.0,-6.36,-6.36,-6.36,-6.36,-6.36,-6.36,-6.36,-6.36,-6.36,-6.36,-6.36,-6.36,-6.36,-6.3582,-6.3582,-6.3565,-6.2513,-6.1134,-6.0409,-5.9616,-5.9012,-5.9012,-5.9012,-5.9012,-5.9012,-5.9012,-5.9012,-5.9012,-5.9012,-5.9012,-5.9012,-5.9012,-5.9012,-5.9012,-5.9012,-5.9012,-5.9012,-5.9012,-5.9012,-5.9012,-5.9012,-5.9012,-5.9012,-5.9012,-5.9012,-5.9012,-5.9012,-5.9012,-5.9012,-5.9012,-5.9012,-5.9012,-5.9012,-5.9317,-5.9955,-6.0019,-6.0299,-6.0915,-6.3171,-6.4269,-6.438,-6.661,-6.7687,-5.8468,-5.8486,-5.8462,-5.8418,-5.7722,-5.6864,-5.6061,-5.5268,-5.4409,-5.3371,-5.3482,-5.3807,-5.3671,-5.3929,-5.4236,-5.4477,-5.4512,-5.4512,-5.4512,-5.4575,0.0,-5.5928,-5.7613,-5.9029,0.0,0.0,0.0,0.0,0.0,0.0,0.0,-6.3492,-6.3978,-6.4419,-6.4574,-6.4746,-6.5011,-6.5011,-6.474,-6.4111,-6.4111,-6.3913,-6.36,-6.36,0.0,0.0,0.0,0.0,0.0,-6.36,-6.36,-6.36,-6.36,-6.36,-6.36,-6.36,-6.36,-6.36,-6.36,-6.36,-6.36,-6.36,-6.36,-6.36,-6.36,-6.291,-6.1961,-6.1168,-6.0409,-5.9823,-5.9823,-5.9426,-5.9012,-5.9012,-5.9012,-5.9012,-5.9012,-5.9012,-5.9012,-5.9012,-5.9012,-5.9012,-5.9012,-5.9012,-5.9012,-5.9012,-5.9012,-5.9012,-5.9012,-5.9012,-5.9012,-5.9012,-5.9012,-5.9012,-5.9012,-5.9012,-5.9012,-5.9012,-5.9012,-5.9199,-5.9631,-5.9696,-5.9984,-6.0615,-6.0633,-6.0915,-6.1584,-6.2873,-6.4275,-6.5824,-6.712,-6.7687,-5.84,-5.8418,-5.8393,-5.8349,-5.7481,-5.6502,-5.6019,-5.5173,-5.4314,-5.362,-5.3923,-5.42,-5.3884,-5.4201,-5.4512,-5.4512,-5.4512,-5.4615,-5.4891,-5.4925,0.0,-5.6854,0.0,0.0,0.0,0.0,0.0,0.0,0.0,0.0,0.0,0.0,-6.4368,-6.5054,-6.5047,-6.5011,-6.5011,-6.5145,-6.4858,-6.4111,-6.427,-6.4074,-6.36,-6.36,0.0,0.0,0.0,0.0,0.0,-6.36,-6.36,-6.36,-6.36,-6.36,-6.36,-6.36,-6.36,-6.36,-6.36,-6.36,-6.36,-6.36,-6.36,-6.36,-6.36,-6.3065,-6.2393,-6.1892,-6.1203,-6.0616,-6.0616,-6.0047,-5.9461,-5.9461,-5.9237,-5.9012,-5.9012,-5.9012,-5.9012,-5.9012,-5.9012,-5.9012,-5.9012,-5.9012,-5.9012,-5.9012,-5.9012,-5.9012,-5.9012,-5.9012,-5.9012,-5.9012,-5.9012,-5.9012,-5.9012,-5.9012,-5.9012,-5.9012,-5.9012,-5.9334,-5.9955,-6.0019,-6.0406,-6.1265,-6.1265,-6.1566,-6.2237,-6.3365,-6.4838,-6.6512,-6.732,-6.7687,0.0,-5.8393,-5.8349,-5.8197,-5.7141,-5.614,-5.5926,-5.5062,0.0,-5.4233,-5.4348,-5.4512,-5.4512,-5.4512,-5.4512,-5.4512,-5.4546,-5.4822,-5.5512,-5.5701,0.0,0.0,-5.9724,0.0,0.0,0.0,0.0,0.0,0.0,0.0,0.0,0.0,-6.4717,-6.5786,-6.5131,-6.4792,-6.4792,-6.5096,-6.4858,-6.4111,-6.4498,-6.4287,-6.36,-6.36,0.0,0.0,0.0,0.0,0.0,-6.36,-6.36,-6.36,-6.36,-6.36,-6.36,-6.36,-6.36,-6.36,-6.36,-6.36,-6.36,-6.36,-6.36,-6.36,-6.36,-6.3117,-6.2565,-6.2565,-6.1996,-6.1392,-6.1392,-6.0823,-6.0271,-6.0202,-5.9633,-5.9081,-5.903,-5.9012,-5.9012,-5.9012,-5.9012,-5.9012,-5.9012,-5.9012,-5.9012,-5.9012,-5.9012,-5.9012,-5.9012,-5.9012,-5.9012,-5.9012,-5.9012,-5.9081,-5.9081,-5.9081,-5.9081,-5.9081,-5.9132,-5.945,-6.0129,-6.0129,-6.0711,-6.1951,-6.1951,-6.2237,-6.2805,-6.4494,-6.5687,-6.6439,-6.7283,-6.7687,-5.8393,0.0,-5.8133,-5.7642,-5.7188,-5.6606,0.0,-5.5336,-5.4962,-5.4512,-5.4437,-5.4512,-5.4512,-5.4512,-5.4512,-5.4512,-5.4977,-5.5408,-5.5598,-5.7051,0.0,-5.8398,-5.9911,0.0,0.0,0.0,0.0,0.0,0.0,0.0,0.0,0.0,-6.5544,-6.5786,-6.5657,-6.5528,-6.5528,-6.5593,-6.5313,-6.4568,-6.4637,-6.4287,-6.36,-6.36,0.0,0.0,0.0,0.0,-6.36,-6.36,-6.36,-6.36,-6.36,-6.36,-6.36,-6.36,-6.36,-6.36,-6.36,-6.36,-6.36,-6.36,-6.36,-6.36,-6.36,-6.3479,-6.3324,-6.3324,-6.2789,-6.2203,-6.2203,-6.1634,-6.0892,-6.0323,-6.0064,-5.9754,-5.915,-5.9012,-5.9012,-5.9012,-5.9012,-5.9012,-5.9012,-5.9012,-5.9012,-5.9012,-5.9012,-5.9012,-5.9012,-5.9012,-5.9012,-5.9012,-5.945,-5.9761,-5.9761,-5.9761,-5.9761,-5.9761,-6.0202,-6.0736,-6.1433,-6.1415,-6.1824,-6.2585,-6.2585,-6.2654,-6.2805,-6.4494,-6.5411,-6.5632,-6.7026,-6.7687,-5.8242,-5.8024,-5.7755,-5.7498,-5.6843,-5.6203,-5.5733,-5.5301,-5.4896,-5.4557,-5.4512,-5.4512,-5.4512,-5.4512,-5.4615,-5.496,-5.5357,-5.5857,0.0,0.0,-5.9184,-5.9184,0.0,0.0,0.0,0.0,0.0,0.0,0.0,0.0,0.0,0.0,-6.5804,-6.5804,-6.5804,-6.5804,-6.5804,-6.5804,-6.5462,-6.4724,-6.4724,-6.4287,-6.36,-6.36,-6.36,0.0,0.0,0.0,-6.36,-6.36,-6.36,-6.36,-6.36,-6.36,-6.36,-6.36,-6.36,-6.36,-6.36,-6.36,-6.36,-6.36,-6.36,-6.36,-6.36,-6.36,-6.36,-6.36,-6.3307,-6.2996,-6.2996,-6.2427,-6.1737,-6.1341,-6.0961,-6.0599,-6.0151,-5.9806,-5.9564,-5.9564,-5.9254,-5.9012,-5.9012,-5.9012,-5.9012,-5.9012,-5.9012,-5.9012,-5.9012,-5.9012,-5.9132,-5.945,-5.9761,-6.0129,-6.0406,-6.0711,-6.0772,-6.045,-6.0736,-6.1207,-6.1897,-6.1897,-6.2184,-6.2823,-6.2805,-6.2805,-6.2805,-6.4494,-6.5319,-6.5356,-6.6953,-6.7687,-5.8088,-5.7613,-5.7216,-5.737,-5.6438,-5.5578,-5.5711,-5.5199,-5.462,-5.4575,-5.4575,-5.4609,0.0,-5.4747,-5.4925,-5.5731,-5.5939,0.0,-5.7874,-5.9019,-5.9866,-6.0183,0.0,0.0,0.0,0.0,0.0,0.0,0.0,0.0,0.0,0.0,0.0,-6.5804,-6.5804,-6.5804,-6.5804,-6.5804,-6.5462,-6.4775,-6.4775,-6.4428,-6.3656,-6.3656,-6.3656,0.0,0.0,0.0,-6.36,-6.36,-6.36,-6.36,-6.36,-6.36,-6.36,-6.36,-6.36,-6.36,-6.36,-6.36,-6.36,-6.36,-6.36,-6.36,-6.36,-6.36,-6.36,-6.36,-6.36,-6.36,-6.36,-6.3134,-6.2634,-6.2513,-6.1979,-6.1444,-6.1448,-6.0859,-6.0427,-6.048,-5.9875,-5.9357,-5.9357,-5.9323,-5.9304,-5.9304,-5.9319,-5.9299,-5.9299,-5.9299,-5.9499,-6.0065,-6.0254,-6.0582,-6.1193,-6.182,-6.2059,-6.1623,-6.1332,-6.149,-6.2205,-6.2259,-6.2545,-6.3191,-6.3191,-6.3191,-6.3209,-6.4732,-6.5485,-6.5521,-6.7008,-6.7687,-5.8024,-5.7302,-5.6617,-5.6528,-5.6311,-5.5978,-5.5319,-5.5234,-5.5294,0.0,0.0,0.0,0.0,-5.5807,-5.5749,0.0,0.0,-5.8137,0.0,0.0,-6.0463,0.0,0.0,0.0,0.0,0.0,0.0,0.0,0.0,0.0,0.0,0.0,0.0,-6.5804,-6.5804,-6.5804,-6.5804,-6.5804,-6.5575,-6.5127,-6.5127,-6.474,-6.4057,-6.4057,-6.3858,0.0,0.0,-6.36,-6.36,-6.36,-6.36,-6.36,-6.36,-6.36,-6.36,-6.36,-6.36,-6.36,-6.36,-6.36,-6.36,-6.36,-6.36,-6.36,-6.36,-6.36,-6.36,-6.36,-6.36,-6.36,-6.36,-6.3513,-6.3255,-6.2634,-6.2393,-6.2314,-6.2173,-6.164,-6.131,-6.1859,-6.1398,-6.0961,-6.0961,-6.0841,-6.0771,-6.0771,-6.0688,-6.0598,-6.0598,-6.0598,-6.0658,-6.0718,-6.1283,-6.1929,-6.2709,-6.3399,-6.4009,-6.4581,-6.3301,-6.2896,-6.3749,-6.3768,-6.4116,-6.4916,-6.4934,-6.4934,-6.4934,-6.587,-6.6329,-6.6347,-6.7265,-6.7687,-5.7583,-5.712,-5.6706,-5.6402,-5.6126,-5.5786,-5.5555,-5.5455,-5.5595,-5.5819,0.0,0.0,0.0,0.0,-5.7102,-5.7996,0.0,-5.9412,0.0,0.0,0.0,0.0,0.0,0.0,0.0,0.0,0.0,0.0,0.0,0.0,0.0,0.0,0.0,0.0,-6.5804,-6.5804,-6.5804,-6.5804,-6.5575,-6.5194,-6.5194,-6.479,-6.4111,-6.4111,-6.3913,-6.36,0.0,-6.36,-6.36,-6.36,-6.36,-6.36,-6.36,-6.36,-6.36,-6.36,-6.36,-6.36,-6.36,-6.36,-6.36,-6.36,-6.36,-6.36,-6.36,-6.36,-6.36,-6.36,-6.36,-6.36,-6.36,-6.36,-6.3643,-6.3605,-6.3338,-6.3179,-6.3482,-6.296,-6.2543,-6.2848,-6.2331,-6.1847,-6.1847,-6.15,-6.1325,-6.1691,-6.1682,-6.1814,-6.2199,-6.226,-6.2379,-6.2731,-6.2978,-6.3511,-6.4202,-6.4558,-6.4916,-6.5283,-6.4585,-6.4347,-6.4732,-6.4751,-6.4916,-6.5301,-6.5319,-6.5319,-6.5319,-6.6109,-6.6494,-6.6512,-6.732,-6.7687,-5.7138,-5.7077,-5.7082,-5.6778,-5.6191,-5.5799,-5.6091,-5.6087,-5.62,-5.6839,-5.6997,0.0,0.0,-5.8378,0.0,-5.9008,0.0,0.0,0.0,0.0,0.0,0.0,0.0,0.0,0.0,0.0,0.0,0.0,0.0,0.0,0.0,0.0,0.0,0.0,-6.5804,-6.5804,-6.5804,-6.5804,-6.5657,-6.5344,-6.5344,-6.4944,-6.427,-6.427,-6.4002,-6.36,-6.36,-6.36,-6.36,-6.36,-6.36,-6.36,-6.36,-6.36,-6.36,-6.36,-6.36,-6.3617,-6.3789,-6.3858,-6.3893,-6.4065,-6.4134,-6.4134,-6.4134,-6.4134,-6.4083,-6.391,-6.3858,-6.3807,-6.3634,-6.36,-6.3712,-6.4218,-6.3967,-6.3785,-6.448,-6.4007,-6.3553,-6.3741,-6.3114,-6.2626,-6.281,-6.2367,-6.2177,-6.2728,-6.2764,-6.2896,-6.3306,-6.3489,-6.3788,-6.4212,-6.4456,-6.4804,-6.5506,-6.576,-6.587,-6.587,-6.5521,-6.5393,-6.5576,-6.5595,-6.5668,-6.587,-6.587,-6.587,-6.587,-6.6476,-6.6769,-6.6788,-6.7393,-6.7687,-5.6984,-5.728,-5.7545,-5.7489,-5.6936,-5.6469,-5.6897,-5.7246,-5.7608,-5.8084,-5.8184,-5.8474,0.0,-6.0118,-6.0202,0.0,0.0,0.0,0.0,0.0,0.0,0.0,0.0,0.0,0.0,0.0,0.0,0.0,0.0,0.0,0.0,0.0,0.0,0.0,0.0,-6.5804,-6.5804,-6.5804,-6.5804,-6.574,-6.574,-6.5397,-6.4655,-6.4655,-6.4287,-6.36,-6.36,-6.36,-6.36,-6.36,-6.36,-6.36,-6.36,-6.36,-6.36,-6.36,-6.36,-6.3686,-6.4376,-6.4617,-6.4738,-6.5479,-6.5721,-6.5721,-6.5721,-6.5721,-6.5566,-6.4824,-6.4617,-6.4462,-6.3772,-6.36,-6.3582,-6.3656,-6.3656,-6.3785,-6.448,-6.4058,-6.3771,-6.4393,-6.3971,-6.3667,-6.4305,-6.4279,-6.4169,-6.4233,-6.416,-6.3869,-6.327,-6.3752,-6.4176,-6.4215,-6.4839,-6.5543,-6.6347,-6.71,-6.7522,-6.7522,-6.6127,-6.5632,-6.6384,-6.6402,-6.6751,-6.7504,-6.7522,-6.7522,-6.7522,-6.7577,-6.7595,-6.7614,-6.765,-6.7687,-5.816,-5.8172,-5.8292,-5.8292,-5.8078,-5.7861,-5.8032,-5.8178,-5.8467,-5.9135,-5.9277,-5.9745,-6.1147,0.0,-6.1156,0.0,0.0,0.0,0.0,0.0,0.0,0.0,0.0,0.0,0.0,0.0,0.0,0.0,0.0,0.0,0.0,0.0,0.0,0.0,0.0,-6.5804,-6.5804,-6.5804,-6.5804,-6.5804,-6.5575,-6.5163,-6.4724,-6.4411,-6.4074,-6.36,-6.36,-6.36,-6.36,-6.36,-6.36,-6.36,-6.36,-6.36,-6.36,-6.36,-6.3893,-6.4324,-6.46,-6.5031,-6.5497,-6.579,-6.5876,-6.5876,-6.5876,-6.5876,-6.5824,-6.5514,-6.5445,-6.5285,-6.4406,-6.3913,-6.3785,-6.4669,-6.4218,-6.3785,-6.448,-6.4411,-6.4288,-6.4532,-6.4411,-6.4271,-6.4532,-6.4235,-6.4042,-6.4482,-6.4848,-6.5148,-6.5382,-6.5944,-6.6373,-6.6373,-6.6644,-6.6916,-6.721,-6.7522,-6.7687,-6.7687,-6.7118,-6.6916,-6.7228,-6.7247,-6.7375,-6.7687,-6.7687,-6.7687,-6.7687,-6.7687,-6.7687,-6.7687,-6.7687,-6.7687,-5.8759,-5.8916,-5.9095,-5.9095,0.0,0.0,-5.947,-5.9273,-5.9327,-6.0112,-6.0487,-6.0927,-6.1971,0.0,0.0,0.0,0.0,0.0,0.0,0.0,0.0,0.0,0.0,0.0,0.0,0.0,0.0,0.0,0.0,0.0,0.0,0.0,0.0,0.0,0.0,-6.5804,-6.5804,-6.5804,-6.574,-6.5593,-6.5229,-6.4894,-6.4724,-6.427,-6.3913,-6.36,-6.36,-6.36,-6.36,-6.36,-6.36,-6.36,-6.36,-6.36,-6.3617,-6.3858,-6.4272,-6.4772,-6.5255,-6.5773,-6.6273,-6.6514,-6.6583,-6.6583,-6.6583,-6.6583,-6.6531,-6.629,-6.6238,-6.6138,-6.5478,-6.4633,-6.4135,-6.4773,-6.4288,-6.3729,-6.4164,-6.4288,-6.4288,-6.4288,-6.4288,-6.4341,-6.4532,-6.4218,-6.4093,-6.4532,-6.4972,-6.5368,-6.5707,-6.6283,-6.691,-6.7304,-6.7561,-6.7687,-6.7687,-6.7687,-6.7687,-6.7687,-6.7687,-6.7687,-6.7687,-6.7687,-6.7687,-6.7687,-6.7687,-6.7687,-6.7687,-6.7687,-6.7687,-6.7687,-6.7687,-6.7687,-5.8738,-5.9309,-5.9916,-5.9916,0.0,0.0,-6.1111,-6.0504,-6.0165,-6.0968,-6.1736,-6.2228,-6.1876,-6.2711,0.0,0.0,0.0,0.0,0.0,0.0,0.0,0.0,0.0,0.0,0.0,0.0,0.0,0.0,0.0,0.0,0.0,0.0,0.0,0.0,0.0,0.0,-6.5804,-6.5804,-6.5575,-6.5194,-6.4843,-6.4706,-6.4655,-6.427,-6.3913,-6.36,-6.36,-6.36,-6.36,-6.36,-6.36,-6.36,-6.36,-6.36,-6.3686,-6.4445,-6.4721,-6.4945,-6.6462,-6.6997,-6.7118,-6.7859,-6.8101,-6.8101,-6.8101,-6.8101,-6.7945,-6.7204,-6.6997,-6.6962,-6.693,-6.5833,-6.4531,-6.3789,-6.3617,-6.36,-6.36,-6.36,-6.36,-6.36,-6.36,-6.3768,-6.448,-6.4601,-6.4601,-6.4601,-6.4601,-6.4341,-6.3712,-6.4218,-6.5171,-6.6541,-6.7304,-6.7687,-6.7687,-6.7687,-6.7687,-6.7687,-6.7687,-6.7687,-6.7687,-6.7687,-6.7687,-6.7687,-6.7687,-6.7687,-6.7687,-6.7687,-6.7687,-6.7687,-6.7687,-6.7687,-6.0397,-6.0558,0.0,-6.0736,0.0,0.0,0.0,-6.1753,0.0,0.0,-6.2485,-6.2628,-6.3592,-6.3565,0.0,0.0,0.0,0.0,0.0,0.0,0.0,0.0,0.0,0.0,0.0,0.0,0.0,0.0,0.0,0.0,0.0,0.0,0.0,0.0,0.0,0.0,-6.5804,-6.551,-6.5344,-6.5194,-6.4602,-6.427,-6.427,-6.393,-6.3729,-6.36,-6.36,-6.36,-6.36,-6.36,-6.36,-6.3651,-6.4169,-6.4376,-6.4462,-6.5238,-6.5859,-6.6376,-6.6824,-6.7342,-6.7807,-6.8032,-6.8101,-6.8101,-6.8101,-6.8101,-6.8049,-6.7842,-6.7756,-6.7662,-6.7115,-6.6616,-6.6253,-6.5959,-6.5092,-6.4376,-6.4376,-6.3962,-6.36,-6.36,-6.36,-6.3656,-6.384,-6.3913,-6.3913,-6.3913,-6.4288,-6.4856,-6.5661,-6.6344,-6.691,-6.7378,-6.7561,-6.7687,-6.7687,-6.7687,-6.7687,-6.7687,-6.7687,-6.7687,-6.7687,-6.7687,-6.7687,-6.7687,-6.7687,-6.7687,-6.7687,-6.7687,-6.7687,-6.7687,-6.7687,-6.7687,-6.1523,-6.1368,0.0,-6.1704,-6.1658,-6.186,-6.2949,0.0,0.0,0.0,-6.3288,-6.3502,-6.4448,-6.4465,0.0,0.0,0.0,0.0,0.0,0.0,0.0,0.0,0.0,0.0,0.0,0.0,0.0,0.0,0.0,0.0,0.0,0.0,0.0,0.0,0.0,0.0,-6.5397,-6.5212,-6.5061,-6.479,-6.4323,-6.4057,-6.3913,-6.3656,-6.36,-6.36,-6.36,-6.3755,-6.4031,-6.4031,-6.422,-6.4548,-6.4997,-6.5169,-6.5255,-6.6031,-6.66,-6.7031,-6.7325,-6.7721,-6.8101,-6.8101,-6.8101,-6.8101,-6.8101,-6.8101,-6.8101,-6.8101,-6.8101,-6.7997,-6.7549,-6.7428,-6.7307,-6.6651,-6.5838,-6.5169,-6.5169,-6.4824,-6.441,-6.41,-6.4031,-6.3945,-6.3651,-6.36,-6.36,-6.36,-6.3967,-6.448,-6.5338,-6.6283,-6.6834,-6.6834,-6.7359,-6.7687,-6.7687,-6.7687,-6.7687,-6.7687,-6.7687,-6.7687,-6.7687,-6.7687,-6.7687,-6.7687,-6.7687,-6.7687,-6.7687,-6.7687,-6.7687,-6.7687,-6.7633,-6.7633,-6.2259,0.0,0.0,-6.2659,-6.2713,0.0,-6.4287,-6.4091,-6.3609,-6.3609,0.0,-6.4626,-6.4715,0.0,0.0,0.0,0.0,0.0,0.0,0.0,0.0,0.0,0.0,0.0,0.0,0.0,0.0,0.0,0.0,0.0,0.0,0.0,0.0,0.0,0.0,0.0,-6.4724,-6.5032,-6.4896,0.0,-6.423,-6.4121,-6.3807,-6.372,-6.3738,-6.3807,-6.3807,-6.4186,-6.4807,-6.4807,-6.5238,-6.5893,-6.5962,-6.5979,-6.6066,-6.6824,-6.7083,-6.7187,-6.7859,-6.8101,-6.8101,-6.8101,-6.8101,-6.8101,-6.8101,-6.8101,-6.8101,-6.8101,-6.8101,-6.8101,-6.8101,-6.8101,-6.7756,-6.6411,-6.6031,-6.5979,-6.5979,-6.5928,-6.5669,-6.4945,-6.4807,-6.46,-6.3927,-6.3807,-6.3772,-6.3703,-6.3708,-6.3729,-6.3729,-6.4788,-6.559,-6.559,-6.6776,-6.7561,-6.7615,-6.7615,-6.7615,-6.7687,-6.7687,-6.7687,-6.7687,-6.7687,-6.7687,-6.7687,-6.7687,-6.7687,-6.7687,-6.7687,-6.7687,-6.7687,-6.7543,-6.747,-6.2958,-6.2648,0.0,0.0,-6.3689,-6.4198,-6.4537,-6.4965,-6.5286,-6.5286,-6.4929,-6.4804,0.0,0.0,0.0,0.0,0.0,0.0,0.0,0.0,0.0,0.0,0.0,0.0,0.0,0.0,0.0,0.0,0.0,0.0,0.0,0.0,0.0,0.0,0.0,-6.4843,-6.4724,-6.5093,-6.5194,0.0,-6.5382,-6.5469,-6.5359,-6.4738,-6.4807,-6.5393,-6.5393,-6.5479,-6.5635,-6.5635,-6.5721,-6.5945,-6.6531,-6.6756,-6.6842,-6.7583,-6.7859,-6.7876,-6.8032,-6.8101,-6.8101,-6.8101,-6.8101,-6.8101,-6.8101,-6.8101,-6.8101,-6.8101,-6.8101,-6.8101,-6.8101,-6.8101,-6.8014,-6.7687,-6.7169,-6.6756,-6.6756,-6.629,-6.5824,-6.5669,-6.5635,-6.5583,-6.541,-6.5393,-6.5169,-6.4565,-6.4404,-6.4411,-6.4411,-6.5105,-6.559,-6.559,-6.586,-6.6265,-6.687,-6.6928,-6.7117,-6.7687,-6.7687,-6.7687,-6.7687,-6.7687,-6.7687,-6.7687,-6.7687,-6.7687,-6.7687,-6.7579,-6.7543,-6.7543,-6.7341,-6.7266,0.0,0.0,0.0,-6.3787,0.0,-6.5179,-6.5179,-6.55,-6.5804,-6.5804,0.0,0.0,0.0,0.0,0.0,0.0,0.0,0.0,0.0,0.0,0.0,0.0,0.0,0.0,0.0,0.0,0.0,0.0,0.0,0.0,0.0,0.0,0.0,0.0,-6.5496,-6.5618,-6.5259,-6.5642,-6.5777,-6.5573,-6.5762,-6.6066,-6.6393,-6.5617,-6.5497,-6.5876,-6.5876,-6.6083,-6.6411,-6.6411,-6.6618,-6.698,-6.7376,-6.7532,-6.7566,-6.7945,-6.8101,-6.8101,-6.8101,-6.8101,-6.8101,-6.8101,-6.8101,-6.8101,-6.8101,-6.8101,-6.8101,-6.8101,-6.8101,-6.8101,-6.8101,-6.8101,-6.8101,-6.8101,-6.7807,-6.7532,-6.7532,-6.7204,-6.6842,-6.648,-6.6411,-6.629,-6.5945,-6.5876,-6.5738,-6.5324,-6.5248,-6.5207,-6.5207,-6.5846,-6.622,-6.622,-6.6536,-6.6717,-6.6754,-6.7041,-6.7212,-6.721,-6.7506,-6.7687,-6.7687,-6.7687,-6.7687,-6.7687,-6.7687,-6.7687,-6.7579,-6.7543,-6.747,-6.7341,-6.7154,-6.7097,0.0,0.0,0.0,0.0,0.0,0.0,-6.5804,-6.5804,-6.5804,0.0,0.0,0.0,0.0,0.0,0.0,0.0,0.0,0.0,0.0,0.0,0.0,0.0,0.0,0.0,0.0,0.0,0.0,0.0,0.0,0.0,0.0,0.0,-6.6128,-6.543,-6.6348,-6.6551,-6.5893,-6.6283,-6.6335,-6.6066,-6.6204,-6.6583,-6.7152,-6.6549,-6.6273,-6.6273,-6.6273,-6.6618,-6.7187,-6.7187,-6.7549,-6.8101,-6.8101,-6.8101,-6.8101,-6.8101,-6.8101,-6.8101,-6.8101,-6.8101,-6.8101,-6.8101,-6.8101,-6.8101,-6.8101,-6.8101,-6.8101,-6.8101,-6.8101,-6.8101,-6.8101,-6.8101,-6.8101,-6.8101,-6.8101,-6.8101,-6.8101,-6.8101,-6.7911,-6.7307,-6.7187,-6.6997,-6.6359,-6.6152,-6.6066,-6.6066,-6.5962,-6.5876,-6.5876,-6.6408,-6.6738,-6.6738,-6.7252,-6.738,-6.6874,-6.7465,-6.759,-6.6931,-6.7523,-6.7834,-6.7687,-6.7687,-6.7687,-6.7687,-6.7687,-6.7579,-6.7488,-6.7433,-6.7359,-6.7154,-6.7001,-6.6961,0.0,0.0,0.0,0.0,0.0,0.0,0.0,0.0,0.0,0.0,0.0,0.0,0.0,0.0,0.0,0.0,0.0,0.0,0.0,0.0,0.0,0.0,0.0,0.0,0.0,0.0,0.0,0.0,0.0,0.0,0.0,-6.6363,-6.6212,-6.5797,-6.5976,-6.6028,-6.5876,-6.6591,-6.6919,-6.6842,-6.7497,-6.7859,-6.7945,-6.7842,-6.7807,-6.7807,-6.7807,-6.7859,-6.7945,-6.7945,-6.7997,-6.8101,-6.8101,-6.8101,-6.8101,-6.8101,-6.8101,-6.8101,-6.8101,-6.8101,-6.8101,-6.8101,-6.8101,-6.8101,-6.8101,-6.8101,-6.8101,-6.8101,-6.8101,-6.8101,-6.8101,-6.8101,-6.8101,-6.8101,-6.8101,-6.8101,-6.8101,-6.8101,-6.8066,-6.7963,-6.7945,-6.7911,-6.7807,-6.7273,-6.6842,-6.6842,-6.629,-6.5876,-6.5876,-6.5952,-6.6011,-6.6011,-6.6069,-6.6355,-6.6848,-6.7572,-6.7904,-6.7668,-6.8345,-6.8421,-6.7724,-6.7687,-6.7687,-6.7687,-6.7597,-6.7543,-6.7488,-6.719,-6.7058,-6.7001,-6.6903,-6.6804,-6.5697,0.0,0.0,0.0,0.0,0.0,0.0,0.0,0.0,0.0,0.0,0.0,0.0,0.0,0.0,0.0,0.0,0.0,0.0,0.0,0.0,0.0,0.0,0.0,0.0,0.0,0.0,0.0,0.0,0.0,-6.6408,-6.6825,-6.6844,-6.6497,-6.6911,-6.7118,-6.7118,-6.7445,-6.7618,-6.7618,-6.7945,-6.8101,-6.8101,-6.8101,-6.8101,-6.8101,-6.8101,-6.8101,-6.8101,-6.8101,-6.8101,-6.8101,-6.8101,-6.8101,-6.8101,-6.8101,-6.8101,-6.8101,-6.8101,-6.8101,-6.8101,-6.8101,-6.8101,-6.8101,-6.8101,-6.8101,-6.8101,-6.8101,-6.8101,-6.8101,-6.8101,-6.8101,-6.8101,-6.8101,-6.8101,-6.8101,-6.8101,-6.8101,-6.8101,-6.8101,-6.8101,-6.8101,-6.8101,-6.7825,-6.7618,-6.7618,-6.7342,-6.7118,-6.7118,-6.7118,-6.7118,-6.7118,-6.7118,-6.7083,-6.6937,-6.7567,-6.7761,-6.7318,-6.7908,-6.8138,-6.7792,-6.7726,-6.7633,-6.7597,-6.7543,-6.7414,-6.7341,-6.7115,-6.6943,-6.6903,-6.6804,-6.6804,0.0,0.0,0.0,0.0,0.0,0.0,0.0,0.0,0.0,0.0,0.0,0.0,0.0,0.0,0.0,0.0,0.0,0.0,0.0,0.0,0.0,0.0,0.0,0.0,0.0,0.0,0.0,0.0,0.0,0.0,-6.685,-6.7388,-6.7548,-6.7273,-6.7807,-6.8101,-6.8101,-6.8101,-6.8101,-6.8101,-6.8101,-6.8101,-6.8101,-6.8101,-6.8101,-6.8101,-6.8101,-6.8101,-6.8101,-6.8101,-6.8101,-6.8101,-6.8101,-6.8101,-6.8101,-6.8101,-6.8101,-6.8101,-6.8101,-6.8101,-6.8101,-6.8101,-6.8101,-6.8101,-6.8101,-6.8101,-6.8101,-6.8101,-6.8101,-6.8101,-6.8101,-6.8101,-6.8101,-6.8101,-6.8101,-6.8101,-6.8101,-6.8101,-6.8101,-6.8101,-6.8101,-6.8101,-6.8101,-6.8101,-6.8101,-6.8101,-6.8101,-6.8101,-6.8101,-6.8101,-6.8101,-6.8101,-6.8101,-6.7876,-6.7325,-6.795,-6.7951,-6.7269,-6.7973,-6.8211,-6.7795,-6.7925,-6.7853,-6.7488,-6.747,-6.7341,-6.7154,-6.7001,-6.6903,-6.6804,-6.6804,-6.6804,0.0,0.0,0.0,0.0,0.0,0.0,0.0,0.0,0.0,0.0,0.0,0.0,0.0,0.0,0.0,0.0,0.0,0.0,0.0,0.0,0.0,0.0,0.0,0.0,0.0,0.0,0.0,0.0,0.0,0.0,-6.8007,-6.8014,-6.8032,-6.8032,-6.8083,-6.8101,-6.8101,-6.8101,-6.8101,-6.8101,-6.8101,-6.8101,-6.8101,-6.8101,-6.8101,-6.8101,-6.8101,-6.8101,-6.8101,-6.8101,-6.8101,-6.8101,-6.8101,-6.8101,-6.8101,-6.8101,-6.8101,-6.8101,-6.8101,-6.8101,-6.8101,-6.8101,-6.8101,-6.8101,-6.8101,-6.8101,-6.8101,-6.8101,-6.8101,-6.8101,-6.8101,-6.8101,-6.8101,-6.8101,-6.8101,-6.8101,-6.8101,-6.8101,-6.8101,-6.8101,-6.8101,-6.8101,-6.8101,-6.8101,-6.8101,-6.8101,-6.8101,-6.8101,-6.8101,-6.8101,-6.8101,-6.8101,-6.8101,-6.8083,-6.8049,-6.8752,-6.8831,-6.7969,-6.9299,-6.9412,-6.7831,-6.8473,-6.844,-6.7506,-6.7341,-6.7154,-6.7001,-6.6845,-6.6804,-6.6804,-6.6804,-6.6804,0.0,0.0,0.0,0.0,0.0,0.0,0.0,0.0,0.0,0.0,0.0,0.0,0.0,0.0,0.0,0.0,0.0,0.0,0.0,0.0,0.0,0.0,0.0,0.0,0.0,0.0,0.0,0.0,0.0,0.0,-6.8083,-6.8101,-6.8101,-6.8101,-6.8101,-6.8101,-6.8101,-6.8101,-6.8101,-6.8101,-6.8101,-6.8101,-6.8101,-6.8101,-6.8101,-6.8101,-6.8101,-6.8101,-6.8101,-6.8101,-6.8101,-6.8101,-6.8101,-6.8101,-6.8101,-6.8101,-6.8101,-6.8101,-6.8101,-6.8101,-6.8101,-6.8101,-6.8101,-6.8101,-6.8101,-6.8101,-6.8101,-6.8101,-6.8101,-6.8101,-6.8101,-6.8101,-6.8101,-6.8101,-6.8101,-6.8101,-6.8101,-6.8101,-6.8101,-6.8101,-6.8101,-6.8101,-6.8101,-6.8101,-6.8101,-6.8101,-6.8101,-6.8101,-6.8101,-6.8101,-6.8101,-6.8101,-6.8101,-6.8101,-6.8101,-6.8379,-6.8395,-6.8041,-6.8521,-6.8524,-6.7912,-6.8005,-6.784,-6.7303,-6.7154,-6.7058,-6.7001,-6.6845,-6.6804,-6.6804,-6.6804,-6.6804,-6.5804,0.0,0.0,0.0,0.0,0.0,0.0,0.0,0.0,0.0,0.0,0.0,0.0,0.0,0.0,0.0,0.0,0.0,0.0,0.0,0.0,0.0,0.0,0.0,0.0,0.0,0.0,0.0,0.0,0.0,-6.7359,-6.7359,-6.7359,-6.7359,-6.7601,-6.7721,-6.7721,-6.798,-6.8101,-6.8101,-6.8101,-6.8101,-6.8101,-6.8101,-6.8101,-6.8101,-6.8101,-6.8101,-6.8101,-6.8101,-6.8101,-6.8101,-6.8101,-6.8101,-6.8101,-6.8101,-6.8101,-6.8101,-6.8101,-6.8101,-6.8101,-6.8101,-6.8101,-6.8101,-6.8101,-6.8101,-6.8101,-6.8101,-6.8101,-6.8101,-6.8101,-6.8101,-6.8101,-6.8101,-6.8101,-6.8101,-6.8101,-6.8101,-6.8101,-6.8101,-6.8101,-6.8101,-6.8101,-6.8101,-6.8101,-6.8101,-6.8101,-6.8101,-6.8101,-6.8101,-6.8101,-6.8101,-6.8101,-6.8101,-6.8101,-6.8101,-6.8101,-6.8101,-6.8316,-6.8258,-6.7834,-6.7968,-6.774,-6.7115,-6.7058,-6.6943,-6.6961,-6.6845,-6.6804,-6.6804,-6.6804,-6.6804,0.0,0.0,0.0,0.0,0.0,0.0,0.0,0.0,0.0,0.0,0.0,0.0,0.0,0.0,0.0,0.0,0.0,0.0,0.0,0.0,0.0,0.0,0.0,0.0,0.0,0.0,0.0,0.0,0.0,-6.5876,-6.5876,-6.5876,-6.5876,-6.5876,-6.6583,-6.6962,-6.6962,-6.7669,-6.8049,-6.8066,-6.8066,-6.8083,-6.8101,-6.8101,-6.8101,-6.8101,-6.8101,-6.8101,-6.8101,-6.8101,-6.8101,-6.8101,-6.8101,-6.8101,-6.8101,-6.8101,-6.8101,-6.8101,-6.8101,-6.8101,-6.8101,-6.8101,-6.8101,-6.8101,-6.8101,-6.8101,-6.8101,-6.8101,-6.8101,-6.8101,-6.8101,-6.8101,-6.8101,-6.8101,-6.8101,-6.8101,-6.8101,-6.8101,-6.8101,-6.8101,-6.8101,-6.8101,-6.8101,-6.8101,-6.8101,-6.8101,-6.8101,-6.8101,-6.8101,-6.8101,-6.8101,-6.8101,-6.8101,-6.8101,-6.8101,-6.8101,-6.8101,-6.8101,-6.8805,-6.875,-6.7685,-6.8378,-6.8222,-6.6979,-6.7001,-6.6961,-6.6804,-6.6804,-6.6804,-6.6804,-6.6804,-6.6804,-6.5804,0.0,0.0,0.0,0.0,0.0,0.0,0.0,0.0,0.0,0.0,0.0,0.0,0.0,0.0,0.0,0.0,0.0,0.0,0.0,0.0,0.0,0.0,0.0,0.0,0.0,0.0,0.0,-6.5876,-6.5876,-6.5876,-6.5876,-6.5876,-6.5876,-6.6083,-6.6186,-6.6186,-6.6393,-6.6773,-6.729,-6.729,-6.7566,-6.8101,-6.8101,-6.8101,-6.8101,-6.8101,-6.8101,-6.8101,-6.8101,-6.8101,-6.8101,-6.8101,-6.8101,-6.8101,-6.8101,-6.8101,-6.8101,-6.8101,-6.8101,-6.8101,-6.8101,-6.8101,-6.8101,-6.8101,-6.8101,-6.8101,-6.8101,-6.8101,-6.8101,-6.8101,-6.8101,-6.8101,-6.8101,-6.8101,-6.8101,-6.8101,-6.8101,-6.8101,-6.8101,-6.8101,-6.8101,-6.8101,-6.8101,-6.8101,-6.8101,-6.8101,-6.8101,-6.8101,-6.8101,-6.8101,-6.8101,-6.8101,-6.8101,-6.8101,-6.8101,-6.8101,-6.8101,-6.8302,-6.8049,-6.713,-6.7581,-6.7386,-6.6434,-6.6709,-6.6863,-6.6804,-6.6804,-6.6804,-6.6804,-6.6804,-6.6804,-6.5804,-6.5804,-6.5804,-6.5804,0.0,0.0,0.0,-6.6967,0.0,0.0,0.0,0.0,0.0,0.0,0.0,0.0,0.0,0.0,0.0,0.0,0.0,0.0,0.0,0.0,0.0,0.0,0.0,0.0,-6.4928,-6.4928,-6.4928,-6.4928,-6.4928,-6.4928,-6.5221,-6.5393,-6.5393,-6.5721,-6.61,-6.6531,-6.6531,-6.6911,-6.7635,-6.7635,-6.7807,-6.8101,-6.8101,-6.8101,-6.8101,-6.8101,-6.8101,-6.8101,-6.8101,-6.8101,-6.8101,-6.8101,-6.8101,-6.8101,-6.8101,-6.8101,-6.8101,-6.8101,-6.8101,-6.8101,-6.8101,-6.8101,-6.8101,-6.8101,-6.8101,-6.8101,-6.8101,-6.8101,-6.8101,-6.8101,-6.8101,-6.8101,-6.8101,-6.8101,-6.8101,-6.8101,-6.8101,-6.8101,-6.8101,-6.8101,-6.8101,-6.8101,-6.8101,-6.8101,-6.8101,-6.8101,-6.8101,-6.8101,-6.8101,-6.8101,-6.8101,-6.8101,-6.8101,-6.8101,-6.8101,-6.7704,-6.6735,-6.6917,-6.6719,-6.6048,-6.6233,-6.6512,-6.6804,-6.6804,-6.6804,-6.6804,-6.6804,-6.6804,-6.5804,-6.5804,-6.5804,-6.5804,-6.5804,0.0,-6.6718,-6.6874,0.0,0.0,0.0,0.0,0.0,0.0,0.0,0.0,0.0,0.0,0.0,0.0,0.0,0.0,0.0,0.0,0.0,0.0,-6.36,-6.36,-6.36,-6.36,-6.36,-6.36,-6.36,-6.36,-6.4238,-6.4583,-6.4583,-6.5272,-6.5669,-6.5755,-6.5755,-6.6152,-6.6859,-6.6859,-6.7273,-6.798,-6.798,-6.8014,-6.8101,-6.8101,-6.8101,-6.8101,-6.8101,-6.8101,-6.8101,-6.8101,-6.8101,-6.8101,-6.8101,-6.8101,-6.8101,-6.8101,-6.8101,-6.8101,-6.8101,-6.8101,-6.8101,-6.8101,-6.8101,-6.8101,-6.8101,-6.8101,-6.8101,-6.8101,-6.8101,-6.8101,-6.8101,-6.8101,-6.8101,-6.8101,-6.8101,-6.8101,-6.8101,-6.8101,-6.8101,-6.8101,-6.8101,-6.8101,-6.8101,-6.8101,-6.8101,-6.8101,-6.8101,-6.8101,-6.8101,-6.8101,-6.8101,-6.8101,-6.8101,-6.7567,-6.6346,-6.6425,-6.6233,-6.5633,-6.5742,-6.6172,-6.6804,-6.6804,-6.6804,-6.6804,-6.6804,-6.6804,-6.5804,-6.5804,-6.5804,-6.5804,-6.5804,0.0,-6.5586,-6.5551,-6.5775,0.0,0.0,0.0,0.0,0.0,0.0,0.0,0.0,0.0,0.0,0.0,0.0,0.0,0.0,0.0,0.0,0.0,-6.36,-6.36,-6.36,-6.36,-6.36,-6.36,-6.36,-6.36,-6.3738,-6.3807,-6.3807,-6.3962,-6.4341,-6.4928,-6.4928,-6.5341,-6.61,-6.61,-6.6514,-6.7204,-6.7204,-6.7549,-6.8101,-6.8101,-6.8101,-6.8101,-6.8101,-6.8101,-6.8101,-6.8101,-6.8101,-6.8101,-6.8101,-6.8101,-6.8101,-6.8101,-6.8101,-6.8101,-6.8101,-6.8101,-6.8101,-6.8101,-6.8101,-6.8101,-6.8101,-6.8101,-6.8101,-6.8101,-6.8101,-6.8101,-6.8101,-6.8101,-6.8101,-6.8101,-6.8101,-6.8101,-6.8101,-6.8101,-6.8101,-6.8101,-6.8101,-6.8101,-6.8101,-6.8101,-6.8101,-6.8101,-6.8101,-6.8101,-6.8101,-6.8101,-6.8101,-6.8101,-6.8101,-6.7428,-6.5791,-6.6718,-6.6582,-6.511,-6.6048,-6.6668,-6.6804,-6.6804,-6.6804,-6.6804,-6.6804,-6.6804,-6.5804,-6.5804,-6.5804,-6.5804,-6.5804,0.0,0.0,-6.5551,-6.5764,0.0,0.0,0.0,0.0,0.0,0.0,0.0,0.0,0.0,0.0,0.0,0.0,0.0,0.0,0.0,0.0,0.0,-6.3967,-6.3673,-6.36,-6.36,-6.36,-6.36,-6.36,-6.36,-6.36,-6.36,-6.36,-6.36,-6.3789,-6.4152,-6.4152,-6.4548,-6.529,-6.529,-6.5704,-6.6462,-6.6824,-6.7204,-6.7566,-6.7945,-6.8101,-6.8101,-6.8101,-6.8101,-6.8101,-6.8101,-6.8101,-6.8101,-6.8101,-6.8101,-6.8101,-6.8101,-6.8101,-6.8101,-6.8101,-6.8101,-6.8101,-6.8101,-6.8101,-6.8101,-6.8101,-6.8101,-6.8101,-6.8101,-6.8101,-6.8101,-6.8101,-6.8101,-6.8101,-6.8101,-6.8101,-6.8101,-6.8101,-6.8101,-6.8101,-6.8101,-6.8101,-6.8101,-6.8101,-6.8101,-6.8101,-6.8101,-6.8101,-6.8101,-6.8101,-6.8101,-6.8021,-6.7942,-6.7942,-6.7332,-6.5893,-6.6373,-6.6268,-6.5308,-6.6312,-6.6804,-6.6804,-6.6804,-6.6804,-6.6804,-6.6804,-6.6804,-6.5804,-6.5804,-6.5804,-6.5804,-6.5804,-6.5768,0.0,0.0,0.0,0.0,0.0,0.0,0.0,0.0,0.0,0.0,0.0,0.0,0.0,0.0,0.0,0.0,0.0,0.0,0.0,0.0,-6.4341,-6.384,-6.3656,-6.36,-6.36,-6.36,-6.36,-6.36,-6.36,-6.36,-6.36,-6.36,-6.36,-6.36,-6.36,-6.391,-6.4479,-6.4479,-6.491,-6.5686,-6.629,-6.6635,-6.6842,-6.7566,-6.7876,-6.7894,-6.8032,-6.8101,-6.8101,-6.8101,-6.8101,-6.8101,-6.8101,-6.8101,-6.8101,-6.8101,-6.8101,-6.8101,-6.8101,-6.8101,-6.8101,-6.8101,-6.8101,-6.8101,-6.8101,-6.8101,-6.8101,-6.8101,-6.8101,-6.8101,-6.8101,-6.8101,-6.8101,-6.8101,-6.8101,-6.8101,-6.8101,-6.8101,-6.8101,-6.8101,-6.8101,-6.8101,-6.8101,-6.8101,-6.8101,-6.8101,-6.8101,-6.8101,-6.8021,-6.8021,-6.7942,-6.7719,-6.7725,-6.7238,-6.6035,-6.5986,-6.5935,-6.5922,-6.653,-6.6804,-6.6804,-6.6804,-6.6804,-6.6804,-6.6804,-6.6804,-6.5804,-6.5804,-6.5804,-6.5804,-6.5804,-6.5722,-6.5344,0.0,-6.5179,-6.6263,0.0,0.0,0.0,0.0,0.0,0.0,0.0,0.0,0.0,0.0,0.0,0.0,0.0,0.0,0.0,0.0,0.0,-6.4463,-6.3913,-6.36,-6.36,-6.36,-6.36,-6.36,-6.36,-6.36,-6.36,-6.36,-6.36,-6.36,-6.36,-6.3634,-6.372,-6.372,-6.4134,-6.4841,-6.4928,-6.5359,-6.6066,-6.6807,-6.7118,-6.7187,-6.7842,-6.8101,-6.8101,-6.8101,-6.8101,-6.8101,-6.8101,-6.8101,-6.8101,-6.8101,-6.8101,-6.8101,-6.8101,-6.8101,-6.8101,-6.8101,-6.8101,-6.8101,-6.8101,-6.8101,-6.8101,-6.8101,-6.8101,-6.8101,-6.8101,-6.8101,-6.8101,-6.8101,-6.8101,-6.8101,-6.8101,-6.8101,-6.8101,-6.8101,-6.8101,-6.8101,-6.8101,-6.8101,-6.8101,-6.8101,-6.8101,-6.8021,-6.7879,-6.7862,-6.7719,-6.7574,-6.7523,-6.7052,-6.6017,-6.586,-6.6002,-6.6668,-6.6745,-6.6804,-6.6804,-6.6804,-6.6804,-6.6804,-6.6804,-6.6804,-6.5804,-6.5804,-6.5804,-6.5804,-6.5804,-6.5722,-6.5278,-6.5078,-6.5265,-6.6185,0.0,0.0,0.0,0.0,0.0,0.0,-6.4861,0.0,0.0,0.0,0.0,0.0,0.0,0.0,0.0,0.0,0.0,0.0,0.0,-6.4341,-6.472,-6.4788,-6.4601,-6.4218,-6.4164,-6.3967,-6.3582,-6.36,-6.36,-6.36,-6.36,-6.36,-6.36,-6.36,-6.3755,-6.4083,-6.4514,-6.4893,-6.5255,-6.6031,-6.66,-6.7014,-6.7342,-6.7721,-6.8101,-6.8101,-6.8101,-6.8101,-6.8101,-6.8101,-6.8101,-6.8101,-6.8101,-6.8101,-6.8101,-6.8101,-6.8101,-6.8101,-6.8101,-6.8101,-6.8101,-6.8101,-6.8101,-6.8101,-6.8101,-6.8101,-6.8101,-6.8101,-6.8101,-6.8101,-6.8101,-6.8101,-6.8101,-6.8101,-6.8101,-6.8101,-6.8101,-6.8101,-6.8101,-6.8021,-6.7959,-6.7959,-6.7799,-6.7719,-6.7638,-6.7655,-6.7702,-6.7987,-6.7875,-6.7623,-6.7218,-6.66,-6.6452,-6.6804,-6.6804,-6.6804,-6.6804,-6.6804,-6.6804,-6.6804,-6.6804,-6.6804,-6.5804,-6.5804,-6.5804,-6.5804,0.0,0.0,-6.5427,-6.5212,-6.5316,-6.6331,-6.6442,0.0,0.0,0.0,-6.5635,-6.4824,0.0,-6.4234,0.0,0.0,0.0,0.0,0.0,0.0,0.0,0.0,0.0,0.0,-6.4972,0.0,-6.5526,-6.559,-6.535,-6.4905,-6.472,-6.4341,-6.3913,-6.3729,-6.36,-6.36,-6.36,-6.36,-6.36,-6.36,-6.36,-6.3617,-6.4169,-6.4393,-6.4462,-6.5238,-6.5876,-6.6393,-6.6824,-6.7325,-6.7807,-6.8032,-6.8101,-6.8101,-6.8101,-6.8101,-6.8101,-6.8101,-6.8101,-6.8101,-6.8101,-6.8101,-6.8101,-6.8101,-6.8101,-6.8101,-6.8101,-6.8101,-6.8101,-6.8101,-6.8101,-6.8101,-6.8101,-6.8101,-6.8101,-6.8101,-6.8101,-6.8101,-6.8101,-6.8101,-6.8101,-6.8101,-6.8101,-6.8101,-6.8101,-6.7942,-6.7879,-6.7799,-6.7638,-6.7574,-6.7428,-6.7638,-6.7963,-6.8531,-6.8415,-6.8332,-6.8349,-6.7595,-6.713,-6.713,-6.6913,-6.6804,-6.6804,-6.6804,-6.6804,-6.6804,-6.6804,-6.6804,0.0,0.0,0.0,-6.5804,0.0,0.0,0.0,0.0,-6.5162,-6.6654,-6.6386,-6.5893,-6.5911,-6.5911,-6.5635,-6.4824,-6.4083,0.0,0.0,0.0,0.0,0.0,0.0,0.0,0.0,0.0,0.0,0.0,-6.4972,0.0,-6.5526,-6.559,-6.559,-6.559,-6.4905,-6.4601,-6.4601,-6.3895,-6.36,-6.36,-6.36,-6.36,-6.36,-6.36,-6.36,-6.36,-6.3617,-6.3634,-6.3686,-6.4427,-6.4755,-6.4928,-6.6411,-6.6997,-6.7118,-6.7842,-6.8101,-6.8101,-6.8101,-6.8101,-6.8101,-6.8101,-6.8101,-6.8101,-6.8101,-6.8101,-6.8101,-6.8101,-6.8101,-6.8101,-6.8101,-6.8101,-6.8101,-6.8101,-6.8101,-6.8101,-6.8101,-6.8101,-6.8101,-6.8101,-6.8101,-6.8101,-6.8101,-6.8101,-6.8101,-6.8101,-6.8101,-6.8101,-6.8101,-6.8101,-6.8021,-6.7799,-6.7799,-6.7638,-6.7263,-6.789,-6.8513,-6.913,-6.9194,-6.9185,-6.9133,-6.8398,-6.7963,-6.7963,-6.7203,-6.6804,-6.6804,-6.6804,-6.6804,-6.6804,-6.6804,-6.6804,0.0,0.0,-6.5804,-6.5804,0.0,0.0,0.0,0.0,0.0,-6.6725,-6.6206,-6.5573,-6.5866,-6.5445,-6.4859,-6.41,-6.3755,-6.3686,0.0,0.0,0.0,0.0,0.0,0.0,0.0,0.0,0.0,-6.5544,-6.5415,-6.535,0.0,-6.559,-6.559,-6.559,-6.535,-6.5039,-6.4601,-6.4341,-6.4039,-6.36,-6.36,-6.36,-6.36,-6.36,-6.36,-6.36,-6.36,-6.36,-6.3617,-6.3858,-6.4255,-6.479,-6.5842,-6.6566,-6.7083,-6.7825,-6.8101,-6.8101,-6.8101,-6.8101,-6.8101,-6.8101,-6.8101,-6.8101,-6.8101,-6.8101,-6.8101,-6.8101,-6.8101,-6.8101,-6.8101,-6.8101,-6.8101,-6.7942,-6.8021,-6.8101,-6.7942,-6.8021,-6.8101,-6.8101,-6.8101,-6.8101,-6.8101,-6.8021,-6.7942,-6.8101,-6.8101,-6.8101,-6.8101,-6.7862,-6.7638,-6.7655,-6.7312,-6.7063,-6.6913,-6.8172,-6.9223,-6.9929,-6.9997,-6.9958,-6.9991,-6.9213,-6.8543,-6.8017,-6.7746,-6.7329,-6.6804,-6.6804,-6.6804,-6.6804,-6.6804,-6.6804,-6.5804,-6.5804,0.0,-6.5804,-6.5804,0.0,-6.564,0.0,-6.5246,0.0,-6.5732,-6.5174,-6.5452,-6.5048,-6.4462,-6.372,-6.36,-6.36,0.0,-6.36,0.0,0.0,0.0,0.0,0.0,0.0,-6.499,-6.594,-6.6002,-6.6002,0.0,0.0,-6.586,-6.559,-6.535,-6.5039,-6.4601,-6.4341,-6.4039,-6.36,-6.36,-6.36,-6.36,-6.36,-6.36,-6.36,-6.36,-6.36,-6.36,-6.36,-6.3876,-6.4393,-6.5169,-6.5928,-6.6721,-6.7721,-6.8101,-6.8101,-6.8101,-6.8101,-6.8101,-6.8101,-6.8101,-6.8101,-6.8101,-6.8101,-6.8101,-6.8101,-6.8101,-6.8101,-6.8101,-6.8021,-6.7942,-6.7799,-6.7862,-6.7942,-6.7799,-6.7942,-6.8101,-6.8101,-6.8021,-6.8021,-6.8021,-6.7799,-6.7799,-6.7942,-6.7942,-6.7879,-6.7879,-6.7638,-6.7492,-6.7428,-6.708,-6.7129,-6.7633,-6.8885,-6.992,-7.0727,-7.077,-7.0788,-7.0788,-7.0028,-6.9231,-6.8434,-6.8162,-6.7601,-6.6804,-6.6804,-6.6804,-6.6804,-6.6804,-6.6804]}]]